[[{"header":{"parameterUnit":"m.s-1","parameterCategory":1,"la1":31.0,"la2":29.5877,"lo1":-88.7671,"lo2":-86.6584,"dy":0.0162,"dx":0.0185,"nx":115,"ny":88,"refTime":"2024-04-23T12:00:00:Z","depth":0,"parameterNumber":2,"parameterNumberName":"U-component_of_WINDS"},"data":[0.0,0.0,0.0,0.0,0.0,0.0,0.0,0.0,0.0,0.0,0.0,0.0,0.0,0.0,0.0,0.0,0.0,0.0,0.0,0.0,0.0,0.0,0.0,0.0,0.0,0.0,0.0,0.0,0.0,0.0,0.0,0.0,0.0,0.0,0.0,0.0,0.0,0.0,0.0,0.0,0.0,0.0,0.0,0.0,0.0,0.0,0.0,0.0,0.0,0.0,0.0,0.0,0.0,0.0,0.0,0.0,0.0,0.0,0.0,0.0,0.0,0.0,0.0,0.0,0.0,0.0,0.0,0.0,0.0,0.0,0.0,0.0,0.0,0.0,0.0,0.0,0.0,0.0,0.0,0.0,0.0,0.0,0.0,0.0,0.0,0.0,0.0,0.0,0.0,0.0,0.0,0.0,0.0,0.0,0.0,0.0,0.0,0.0,0.0,0.0,0.0,0.0,0.0,0.0,0.0,0.0,0.0,0.0,0.0,0.0,0.0,0.0,0.0,0.0,0.0,0.0,0.0,0.0,0.0,0.0,0.0,0.0,0.0,0.0,0.0,0.0,0.0,0.0,0.0,0.0,0.0,0.0,0.0,0.0,0.0,0.0,0.0,0.0,0.0,0.0,0.0,0.0,0.0,0.0,0.0,0.0,0.0,0.0,0.0,0.0,0.0,0.0,0.0,0.0,0.0,0.0,0.0,0.0,0.0,0.0,0.0,0.0,0.0,0.0,0.0,0.0,0.0,0.0,0.0,0.0,0.0,0.0,0.0,0.0,0.0,0.0,0.0,0.0,0.0,0.0,0.0,0.0,0.0,0.0,0.0,0.0,0.0,0.0,0.0,0.0,0.0,0.0,0.0,0.0,0.0,0.0,0.0,0.0,0.0,0.0,0.0,0.0,0.0,0.0,0.0,0.0,0.0,0.0,0.0,0.0,0.0,0.0,0.0,0.0,0.0,0.0,0.0,0.0,0.0,0.0,0.0,0.0,0.0,0.0,0.0,0.0,0.0,0.0,0.0,0.0,0.0,0.0,0.0,0.0,0.0,0.0,0.0,0.0,0.0,0.0,0.0,0.0,0.0,0.0,0.0,0.0,0.0,0.0,0.0,0.0,0.0,0.0,0.0,0.0,0.0,0.0,0.0,0.0,0.0,0.0,0.0,0.0,0.0,0.0,0.0,0.0,0.0,0.0,0.0,0.0,0.0,0.0,0.0,0.0,0.0,0.0,0.0,0.0,0.0,0.0,0.0,0.0,0.0,0.0,0.0,0.0,0.0,0.0,0.0,0.0,0.0,0.0,0.0,0.0,0.0,0.0,0.0,0.0,0.0,0.0,0.0,0.0,0.0,0.0,0.0,0.0,0.0,0.0,0.0,0.0,0.0,0.0,0.0,0.0,0.0,0.0,0.0,0.0,0.0,0.0,0.0,0.0,0.0,0.0,0.0,0.0,0.0,0.0,0.0,0.0,0.0,0.0,0.0,0.0,0.0,0.0,0.0,0.0,0.0,0.0,0.0,0.0,0.0,0.0,0.0,0.0,0.0,0.0,0.0,0.0,0.0,0.0,0.0,0.0,0.0,0.0,0.0,0.0,0.0,0.0,0.0,0.0,0.0,0.0,0.0,0.0,0.0,0.0,0.0,0.0,0.0,0.0,0.0,0.0,0.0,0.0,0.0,0.0,0.0,0.0,0.0,0.0,0.0,0.0,0.0,0.0,0.0,0.0,0.0,0.0,0.0,0.0,0.0,0.0,0.0,0.0,0.0,0.0,0.0,0.0,0.0,0.0,0.0,0.0,0.0,0.0,0.0,0.0,0.0,0.0,0.0,0.0,0.0,0.0,0.0,0.0,0.0,0.0,0.0,0.0,0.0,0.0,0.0,0.0,0.0,0.0,0.0,0.0,0.0,0.0,0.0,0.0,0.0,0.0,0.0,0.0,0.0,0.0,0.0,0.0,0.0,0.0,0.0,0.0,0.0,0.0,0.0,0.0,0.0,0.0,0.0,0.0,0.0,0.0,0.0,0.0,0.0,0.0,0.0,0.0,0.0,0.0,0.0,0.0,0.0,0.0,0.0,0.0,0.0,0.0,0.0,0.0,0.0,0.0,0.0,0.0,0.0,0.0,0.0,0.0,0.0,0.0,0.0,0.0,0.0,0.0,0.0,0.0,0.0,0.0,0.0,0.0,0.0,0.0,0.0,0.0,0.0,0.0,0.0,0.0,0.0,0.0,0.0,0.0,0.0,0.0,0.0,0.0,0.0,0.0,0.0,0.0,0.0,0.0,0.0,0.0,0.0,0.0,0.0,0.0,0.0,0.0,0.0,0.0,0.0,0.0,0.0,0.0,0.0,0.0,0.0,0.0,0.0,0.0,0.0,0.0,0.0,0.0,0.0,0.0,0.0,0.0,0.0,0.0,0.0,0.0,0.0,0.0,0.0,0.0,0.0,0.0,0.0,0.0,0.0,0.0,0.0,0.0,0.0,0.0,0.0,0.0,0.0,0.0,0.0,0.0,0.0,0.0,0.0,0.0,0.0,0.0,0.0,0.0,0.0,0.0,0.0,0.0,0.0,0.0,0.0,0.0,0.0,0.0,0.0,0.0,0.0,0.0,0.0,0.0,0.0,0.0,0.0,0.0,0.0,0.0,0.0,0.0,0.0,0.0,0.0,0.0,0.0,0.0,0.0,0.0,0.0,0.0,0.0,0.0,0.0,0.0,0.0,0.0,0.0,0.0,0.0,0.0,0.0,0.0,0.0,0.0,0.0,0.0,0.0,0.0,0.0,0.0,0.0,0.0,0.0,0.0,0.0,0.0,0.0,0.0,0.0,0.0,0.0,0.0,0.0,0.0,0.0,0.0,0.0,0.0,0.0,0.0,0.0,0.0,0.0,0.0,0.0,0.0,0.0,0.0,0.0,0.0,0.0,0.0,0.0,0.0,0.0,0.0,0.0,0.0,0.0,0.0,0.0,0.0,0.0,0.0,0.0,0.0,0.0,0.0,0.0,0.0,0.0,0.0,0.0,0.0,0.0,0.0,0.0,0.0,0.0,0.0,0.0,0.0,0.0,0.0,0.0,0.0,0.0,0.0,0.0,0.0,0.0,0.0,0.0,0.0,0.0,0.0,0.0,0.0,0.0,0.0,0.0,0.0,0.0,0.0,0.0,0.0,0.0,0.0,0.0,0.0,0.0,0.0,0.0,0.0,0.0,0.0,0.0,0.0,0.0,0.0,0.0,0.0,0.0,0.0,0.0,0.0,0.0,0.0,0.0,0.0,0.0,0.0,0.0,0.0,0.0,0.0,0.0,0.0,0.0,0.0,0.0,0.0,0.0,0.0,0.0,0.0,0.0,0.0,0.0,0.0,0.0,0.0,0.0,0.0,0.0,0.0,0.0,0.0,0.0,0.0,0.0,0.0,0.0,0.0,0.0,0.0,0.0,0.0,0.0,0.0,0.0,0.0,0.0,0.0,0.0,0.0,0.0,0.0,0.0,0.0,0.0,0.0,0.0,0.0,0.0,0.0,0.0,0.0,0.0,0.0,0.0,0.0,0.0,0.0,0.0,0.0,0.0,0.0,0.0,0.0,0.0,0.0,0.0,0.0,0.0,0.0,0.0,0.0,0.0,0.0,0.0,0.0,0.0,0.0,0.0,0.0,0.0,0.0,0.0,0.0,0.0,0.0,0.0,0.0,0.0,0.0,0.0,0.0,0.0,0.0,0.0,0.0,0.0,0.0,0.0,0.0,0.0,0.0,0.0,0.0,0.0,0.0,0.0,0.0,0.0,0.0,0.0,0.0,0.0,0.0,0.0,0.0,0.0,0.0,0.0,0.0,0.0,0.0,0.0,0.0,0.0,0.0,0.0,0.0,0.0,0.0,0.0,0.0,0.0,0.0,0.0,0.0,0.0,0.0,0.0,0.0,0.0,0.0,0.0,0.0,0.0,0.0,0.0,0.0,0.0,0.0,0.0,0.0,0.0,0.0,0.0,0.0,0.0,0.0,0.0,0.0,0.0,0.0,0.0,0.0,0.0,0.0,0.0,0.0,0.0,0.0,0.0,0.0,0.0,0.0,0.0,0.0,0.0,0.0,0.0,0.0,0.0,0.0,0.0,0.0,0.0,0.0,0.0,0.0,0.0,0.0,0.0,0.0,0.0,0.0,0.0,0.0,0.0,0.0,0.0,0.0,0.0,0.0,0.0,0.0,0.0,0.0,0.0,0.0,0.0,0.0,0.0,0.0,0.0,0.0,0.0,0.0,0.0,0.0,0.0,0.0,0.0,0.0,-3.3234,0.0,0.0,0.0,0.0,0.0,0.0,0.0,0.0,0.0,0.0,0.0,0.0,0.0,0.0,0.0,0.0,0.0,0.0,0.0,0.0,0.0,0.0,0.0,0.0,0.0,0.0,0.0,0.0,0.0,0.0,0.0,0.0,0.0,0.0,0.0,0.0,0.0,0.0,0.0,0.0,0.0,0.0,0.0,0.0,0.0,0.0,0.0,0.0,0.0,0.0,0.0,0.0,0.0,0.0,0.0,0.0,0.0,0.0,0.0,0.0,0.0,0.0,0.0,0.0,0.0,0.0,0.0,0.0,0.0,0.0,0.0,0.0,0.0,0.0,0.0,0.0,0.0,0.0,0.0,0.0,0.0,0.0,0.0,0.0,0.0,0.0,0.0,0.0,0.0,0.0,0.0,0.0,0.0,0.0,0.0,0.0,0.0,0.0,0.0,0.0,0.0,0.0,0.0,0.0,0.0,0.0,0.0,0.0,0.0,0.0,-3.7558,-3.5962,-3.6027,-3.5366,-3.3833,0.0,0.0,0.0,0.0,0.0,0.0,0.0,0.0,0.0,0.0,0.0,0.0,0.0,0.0,0.0,0.0,0.0,0.0,0.0,0.0,0.0,0.0,0.0,0.0,0.0,0.0,0.0,0.0,0.0,0.0,0.0,0.0,0.0,0.0,0.0,0.0,0.0,0.0,0.0,0.0,0.0,0.0,0.0,0.0,0.0,0.0,0.0,0.0,0.0,0.0,0.0,0.0,0.0,0.0,0.0,0.0,0.0,0.0,0.0,0.0,0.0,0.0,0.0,0.0,0.0,0.0,0.0,0.0,0.0,0.0,0.0,0.0,0.0,0.0,0.0,0.0,0.0,0.0,0.0,0.0,0.0,0.0,0.0,0.0,0.0,0.0,0.0,0.0,0.0,0.0,0.0,0.0,0.0,0.0,0.0,0.0,0.0,0.0,0.0,0.0,0.0,0.0,0.0,0.0,0.0,0.0,0.0,0.0,0.0,0.0,0.0,0.0,-3.6895,-3.5926,-3.4688,0.0,0.0,0.0,0.0,0.0,0.0,0.0,0.0,0.0,0.0,0.0,0.0,0.0,0.0,0.0,0.0,0.0,0.0,0.0,0.0,0.0,0.0,0.0,0.0,0.0,0.0,0.0,0.0,0.0,0.0,0.0,0.0,0.0,0.0,0.0,0.0,0.0,0.0,0.0,0.0,0.0,0.0,0.0,0.0,0.0,0.0,0.0,0.0,0.0,0.0,0.0,0.0,0.0,0.0,0.0,0.0,0.0,0.0,0.0,0.0,0.0,0.0,0.0,0.0,0.0,0.0,0.0,0.0,0.0,0.0,0.0,0.0,0.0,0.0,0.0,0.0,0.0,0.0,0.0,0.0,0.0,0.0,0.0,0.0,0.0,0.0,0.0,0.0,0.0,0.0,0.0,0.0,0.0,0.0,0.0,0.0,0.0,0.0,0.0,0.0,0.0,0.0,0.0,0.0,0.0,0.0,0.0,0.0,0.0,0.0,-3.8203,-3.9311,-3.853,0.0,-3.5704,0.0,0.0,0.0,0.0,0.0,0.0,0.0,0.0,0.0,0.0,0.0,0.0,0.0,0.0,0.0,0.0,0.0,0.0,0.0,0.0,0.0,0.0,0.0,0.0,0.0,0.0,0.0,0.0,0.0,0.0,0.0,0.0,0.0,0.0,0.0,0.0,0.0,0.0,0.0,0.0,0.0,0.0,0.0,0.0,0.0,0.0,0.0,0.0,0.0,0.0,0.0,0.0,0.0,0.0,0.0,0.0,0.0,0.0,0.0,0.0,0.0,0.0,0.0,0.0,0.0,0.0,0.0,0.0,0.0,0.0,0.0,0.0,0.0,0.0,0.0,0.0,0.0,0.0,0.0,0.0,0.0,0.0,0.0,0.0,0.0,0.0,0.0,0.0,0.0,0.0,0.0,0.0,0.0,0.0,0.0,0.0,0.0,0.0,0.0,0.0,0.0,0.0,0.0,0.0,0.0,0.0,0.0,0.0,0.0,0.0,-3.7988,-4.0253,-3.9083,-3.7235,0.0,0.0,0.0,0.0,0.0,0.0,0.0,0.0,0.0,0.0,0.0,0.0,0.0,0.0,0.0,0.0,0.0,0.0,0.0,0.0,0.0,0.0,0.0,0.0,0.0,0.0,0.0,0.0,0.0,0.0,0.0,0.0,0.0,0.0,0.0,0.0,0.0,0.0,0.0,0.0,0.0,0.0,0.0,0.0,0.0,0.0,0.0,0.0,0.0,0.0,0.0,0.0,0.0,0.0,0.0,0.0,0.0,0.0,0.0,0.0,0.0,0.0,0.0,0.0,0.0,0.0,0.0,0.0,0.0,0.0,0.0,0.0,0.0,0.0,0.0,0.0,0.0,0.0,0.0,0.0,0.0,0.0,0.0,0.0,0.0,0.0,0.0,0.0,0.0,0.0,0.0,0.0,0.0,0.0,0.0,0.0,0.0,0.0,0.0,0.0,0.0,0.0,0.0,0.0,0.0,0.0,0.0,0.0,0.0,0.0,-3.779,-3.8491,-4.063,-3.8713,-3.6568,-3.4468,0.0,0.0,0.0,0.0,0.0,0.0,0.0,0.0,0.0,0.0,0.0,0.0,0.0,0.0,0.0,0.0,0.0,0.0,0.0,0.0,0.0,0.0,0.0,0.0,0.0,0.0,0.0,0.0,0.0,0.0,0.0,0.0,0.0,0.0,0.0,0.0,0.0,0.0,0.0,0.0,0.0,0.0,0.0,0.0,0.0,0.0,0.0,0.0,0.0,0.0,0.0,0.0,0.0,0.0,0.0,0.0,0.0,0.0,0.0,0.0,0.0,0.0,0.0,0.0,0.0,0.0,0.0,0.0,0.0,0.0,0.0,0.0,0.0,0.0,0.0,0.0,0.0,0.0,0.0,0.0,0.0,0.0,0.0,0.0,0.0,0.0,0.0,0.0,0.0,0.0,0.0,0.0,0.0,0.0,0.0,0.0,0.0,0.0,0.0,0.0,0.0,0.0,0.0,0.0,0.0,0.0,0.0,0.0,-4.2004,-4.0593,-4.0149,-4.0921,-3.7298,-3.5377,0.0,0.0,0.0,0.0,0.0,0.0,0.0,0.0,0.0,0.0,0.0,0.0,0.0,0.0,0.0,0.0,0.0,0.0,0.0,0.0,0.0,0.0,0.0,0.0,0.0,0.0,0.0,0.0,0.0,0.0,0.0,0.0,0.0,0.0,0.0,0.0,0.0,0.0,0.0,0.0,0.0,0.0,0.0,0.0,0.0,0.0,0.0,0.0,0.0,0.0,0.0,0.0,0.0,0.0,0.0,0.0,0.0,0.0,0.0,0.0,0.0,0.0,0.0,0.0,0.0,0.0,0.0,0.0,0.0,0.0,0.0,0.0,0.0,0.0,0.0,0.0,0.0,0.0,0.0,0.0,0.0,0.0,0.0,0.0,0.0,0.0,0.0,0.0,0.0,0.0,0.0,0.0,0.0,0.0,0.0,0.0,0.0,0.0,0.0,0.0,0.0,0.0,0.0,0.0,0.0,0.0,0.0,0.0,0.0,-3.8642,-3.9932,-4.0185,-3.9317,-3.8128,-3.7195,0.0,0.0,0.0,0.0,0.0,0.0,0.0,0.0,0.0,0.0,0.0,0.0,0.0,0.0,0.0,0.0,0.0,0.0,0.0,0.0,0.0,0.0,0.0,0.0,0.0,0.0,0.0,0.0,0.0,0.0,0.0,0.0,0.0,0.0,0.0,0.0,0.0,0.0,0.0,0.0,0.0,0.0,0.0,0.0,0.0,0.0,0.0,0.0,0.0,0.0,0.0,0.0,0.0,0.0,0.0,0.0,0.0,0.0,0.0,0.0,0.0,0.0,0.0,0.0,0.0,0.0,0.0,0.0,0.0,0.0,0.0,0.0,0.0,0.0,0.0,0.0,0.0,0.0,0.0,0.0,0.0,0.0,0.0,0.0,0.0,0.0,0.0,0.0,0.0,0.0,0.0,0.0,0.0,0.0,0.0,0.0,0.0,0.0,0.0,0.0,0.0,0.0,0.0,0.0,0.0,0.0,0.0,0.0,0.0,-3.8443,0.0,-4.148,-3.985,-3.8792,-3.7561,0.0,0.0,0.0,0.0,0.0,0.0,0.0,0.0,0.0,0.0,0.0,0.0,0.0,0.0,0.0,0.0,0.0,0.0,0.0,0.0,0.0,0.0,0.0,0.0,0.0,0.0,0.0,0.0,0.0,0.0,0.0,0.0,0.0,0.0,0.0,0.0,0.0,0.0,0.0,0.0,0.0,0.0,0.0,0.0,0.0,0.0,0.0,0.0,0.0,0.0,0.0,0.0,0.0,0.0,0.0,0.0,0.0,0.0,0.0,0.0,0.0,0.0,0.0,0.0,0.0,0.0,0.0,0.0,0.0,0.0,0.0,0.0,0.0,0.0,0.0,0.0,0.0,0.0,0.0,0.0,0.0,0.0,0.0,0.0,0.0,0.0,0.0,0.0,0.0,0.0,0.0,0.0,0.0,0.0,0.0,0.0,0.0,0.0,0.0,0.0,0.0,0.0,0.0,0.0,0.0,0.0,0.0,0.0,-3.7827,-4.2188,-4.3884,-4.4022,-4.2845,-3.9065,-3.624,0.0,0.0,0.0,0.0,0.0,0.0,0.0,0.0,0.0,0.0,0.0,0.0,0.0,0.0,0.0,0.0,0.0,0.0,0.0,0.0,0.0,0.0,0.0,0.0,0.0,0.0,0.0,0.0,0.0,0.0,0.0,0.0,0.0,0.0,0.0,0.0,0.0,0.0,0.0,0.0,0.0,0.0,0.0,0.0,0.0,0.0,0.0,0.0,0.0,0.0,0.0,0.0,0.0,0.0,0.0,0.0,0.0,0.0,0.0,0.0,0.0,0.0,0.0,0.0,0.0,0.0,0.0,0.0,0.0,0.0,0.0,0.0,0.0,0.0,0.0,0.0,0.0,0.0,0.0,0.0,0.0,0.0,0.0,0.0,0.0,0.0,0.0,0.0,0.0,0.0,0.0,0.0,0.0,0.0,0.0,0.0,0.0,0.0,0.0,0.0,0.0,0.0,0.0,0.0,0.0,0.0,0.0,0.0,0.0,-3.9335,-4.1846,-4.3341,-4.3539,-4.0077,-3.8172,0.0,0.0,0.0,0.0,0.0,0.0,0.0,0.0,0.0,0.0,0.0,0.0,0.0,0.0,0.0,0.0,0.0,0.0,0.0,0.0,0.0,0.0,0.0,0.0,0.0,0.0,0.0,0.0,0.0,0.0,0.0,0.0,0.0,0.0,0.0,0.0,0.0,0.0,0.0,0.0,0.0,0.0,0.0,0.0,0.0,0.0,0.0,0.0,0.0,0.0,0.0,0.0,0.0,0.0,0.0,0.0,0.0,0.0,0.0,0.0,0.0,0.0,0.0,0.0,0.0,0.0,0.0,0.0,0.0,0.0,0.0,0.0,0.0,0.0,0.0,0.0,0.0,0.0,0.0,0.0,0.0,0.0,0.0,0.0,0.0,0.0,0.0,0.0,0.0,0.0,0.0,0.0,0.0,0.0,0.0,0.0,0.0,0.0,0.0,0.0,0.0,0.0,0.0,0.0,0.0,0.0,0.0,0.0,0.0,-3.9585,-4.2426,-4.4383,-4.5141,-4.1519,-3.9629,-3.9777,0.0,0.0,0.0,0.0,0.0,0.0,0.0,0.0,0.0,0.0,0.0,0.0,0.0,0.0,0.0,0.0,0.0,0.0,0.0,0.0,0.0,0.0,0.0,0.0,0.0,0.0,0.0,0.0,0.0,0.0,0.0,0.0,0.0,0.0,0.0,0.0,0.0,0.0,0.0,0.0,0.0,0.0,0.0,0.0,0.0,0.0,0.0,0.0,0.0,0.0,0.0,0.0,0.0,0.0,0.0,0.0,0.0,0.0,0.0,0.0,0.0,0.0,0.0,0.0,0.0,0.0,0.0,0.0,0.0,0.0,0.0,0.0,0.0,0.0,0.0,0.0,0.0,0.0,0.0,0.0,0.0,0.0,0.0,0.0,0.0,0.0,0.0,0.0,0.0,0.0,0.0,0.0,0.0,0.0,0.0,0.0,0.0,0.0,0.0,0.0,0.0,0.0,0.0,0.0,0.0,0.0,0.0,0.0,-4.2133,-4.5143,-4.6809,-4.7037,-4.3154,-4.067,0.0,0.0,0.0,0.0,0.0,0.0,0.0,0.0,0.0,0.0,0.0,0.0,0.0,0.0,0.0,0.0,0.0,0.0,0.0,0.0,0.0,0.0,0.0,0.0,0.0,0.0,0.0,0.0,0.0,0.0,0.0,0.0,0.0,0.0,0.0,0.0,0.0,0.0,0.0,0.0,0.0,0.0,0.0,0.0,0.0,0.0,0.0,0.0,0.0,0.0,0.0,0.0,0.0,0.0,0.0,0.0,0.0,0.0,0.0,0.0,0.0,0.0,0.0,0.0,0.0,0.0,0.0,0.0,0.0,0.0,0.0,0.0,0.0,0.0,0.0,0.0,0.0,0.0,0.0,0.0,0.0,0.0,0.0,0.0,0.0,0.0,0.0,0.0,0.0,0.0,0.0,0.0,0.0,0.0,0.0,0.0,0.0,0.0,0.0,0.0,0.0,0.0,0.0,0.0,0.0,0.0,0.0,0.0,0.0,-4.298,-4.5569,-4.7104,-4.7367,-4.3562,-4.1422,0.0,0.0,0.0,0.0,0.0,0.0,0.0,0.0,0.0,0.0,0.0,0.0,0.0,0.0,0.0,0.0,0.0,0.0,0.0,0.0,0.0,0.0,0.0,0.0,0.0,0.0,0.0,0.0,0.0,0.0,0.0,0.0,0.0,0.0,0.0,0.0,0.0,0.0,0.0,0.0,0.0,0.0,0.0,0.0,0.0,0.0,0.0,0.0,0.0,0.0,0.0,0.0,0.0,0.0,0.0,0.0,0.0,0.0,0.0,0.0,0.0,0.0,0.0,0.0,0.0,0.0,0.0,0.0,0.0,0.0,0.0,0.0,0.0,0.0,0.0,0.0,0.0,0.0,0.0,0.0,0.0,0.0,0.0,0.0,0.0,0.0,0.0,0.0,0.0,0.0,0.0,0.0,0.0,0.0,0.0,0.0,0.0,0.0,0.0,0.0,0.0,0.0,0.0,0.0,0.0,0.0,0.0,0.0,-4.1047,-4.3671,-4.6008,-4.7402,-4.7793,-4.4912,-4.3031,0.0,0.0,0.0,0.0,0.0,0.0,0.0,0.0,0.0,0.0,0.0,0.0,0.0,0.0,0.0,0.0,0.0,0.0,0.0,0.0,0.0,0.0,0.0,0.0,0.0,0.0,0.0,0.0,0.0,0.0,0.0,0.0,0.0,0.0,0.0,0.0,0.0,0.0,0.0,0.0,0.0,0.0,0.0,0.0,0.0,0.0,0.0,0.0,0.0,0.0,0.0,0.0,0.0,0.0,0.0,0.0,0.0,0.0,0.0,0.0,0.0,0.0,0.0,0.0,0.0,0.0,0.0,0.0,0.0,0.0,0.0,0.0,0.0,0.0,0.0,0.0,0.0,0.0,0.0,0.0,0.0,0.0,0.0,0.0,0.0,0.0,0.0,0.0,0.0,0.0,0.0,0.0,0.0,0.0,0.0,0.0,0.0,0.0,0.0,0.0,0.0,0.0,0.0,0.0,0.0,0.0,0.0,0.0,-4.1612,-4.4301,-4.6376,-4.7624,-4.798,-4.6395,-4.473,0.0,0.0,0.0,0.0,0.0,0.0,0.0,0.0,0.0,0.0,0.0,0.0,0.0,0.0,0.0,0.0,0.0,0.0,0.0,0.0,0.0,0.0,0.0,0.0,0.0,0.0,0.0,0.0,0.0,0.0,0.0,0.0,0.0,0.0,0.0,0.0,0.0,0.0,0.0,0.0,0.0,0.0,0.0,0.0,0.0,0.0,0.0,0.0,0.0,0.0,0.0,0.0,0.0,0.0,0.0,0.0,0.0,0.0,0.0,0.0,0.0,0.0,0.0,0.0,0.0,0.0,0.0,0.0,0.0,0.0,0.0,0.0,0.0,0.0,0.0,0.0,0.0,0.0,0.0,0.0,0.0,0.0,0.0,0.0,0.0,0.0,0.0,0.0,0.0,0.0,0.0,0.0,0.0,0.0,0.0,0.0,0.0,0.0,0.0,0.0,0.0,0.0,0.0,0.0,0.0,0.0,0.0,0.0,-4.2081,-4.4622,-4.6227,-4.7244,-4.7695,-4.5481,-4.3734,0.0,0.0,0.0,0.0,0.0,0.0,0.0,0.0,0.0,0.0,0.0,0.0,0.0,0.0,0.0,0.0,0.0,0.0,0.0,0.0,0.0,0.0,0.0,0.0,0.0,0.0,0.0,0.0,0.0,0.0,0.0,0.0,0.0,0.0,0.0,0.0,0.0,0.0,0.0,0.0,0.0,0.0,0.0,0.0,0.0,0.0,0.0,0.0,-4.396,0.0,0.0,0.0,0.0,0.0,0.0,0.0,0.0,0.0,0.0,0.0,0.0,0.0,0.0,0.0,0.0,0.0,0.0,0.0,0.0,0.0,0.0,0.0,0.0,0.0,0.0,0.0,0.0,0.0,0.0,0.0,0.0,0.0,0.0,0.0,0.0,0.0,0.0,0.0,0.0,0.0,0.0,0.0,0.0,0.0,0.0,0.0,0.0,0.0,0.0,0.0,0.0,0.0,0.0,0.0,0.0,0.0,0.0,0.0,-4.2405,-4.4393,-4.5771,-4.6753,-4.7259,-4.5833,-4.4129,0.0,0.0,0.0,0.0,0.0,0.0,0.0,0.0,0.0,0.0,0.0,0.0,0.0,0.0,0.0,0.0,0.0,0.0,0.0,0.0,0.0,0.0,0.0,0.0,0.0,0.0,0.0,0.0,0.0,0.0,0.0,0.0,0.0,0.0,0.0,0.0,0.0,0.0,0.0,0.0,0.0,0.0,0.0,0.0,0.0,0.0,0.0,0.0,0.0,0.0,0.0,0.0,0.0,0.0,0.0,0.0,0.0,0.0,0.0,0.0,0.0,0.0,0.0,0.0,0.0,0.0,0.0,0.0,0.0,0.0,0.0,0.0,0.0,0.0,0.0,0.0,0.0,0.0,0.0,0.0,0.0,0.0,0.0,0.0,0.0,0.0,0.0,0.0,0.0,0.0,0.0,0.0,0.0,0.0,0.0,0.0,0.0,0.0,0.0,0.0,0.0,0.0,0.0,0.0,0.0,0.0,0.0,-4.0364,-4.2395,-4.4059,-4.5138,-4.6119,-4.6954,-4.6464,-4.4817,-4.2023,0.0,0.0,0.0,0.0,0.0,0.0,0.0,0.0,0.0,0.0,0.0,0.0,0.0,0.0,0.0,0.0,0.0,0.0,0.0,0.0,0.0,0.0,0.0,0.0,0.0,0.0,0.0,0.0,0.0,0.0,0.0,0.0,0.0,0.0,0.0,0.0,0.0,0.0,-3.9901,-4.1444,0.0,0.0,0.0,0.0,0.0,0.0,0.0,0.0,-4.3814,0.0,0.0,0.0,0.0,0.0,0.0,0.0,0.0,0.0,0.0,0.0,0.0,0.0,0.0,0.0,0.0,0.0,0.0,0.0,0.0,0.0,0.0,0.0,0.0,0.0,0.0,0.0,0.0,0.0,0.0,0.0,0.0,0.0,0.0,0.0,0.0,0.0,0.0,0.0,0.0,0.0,0.0,0.0,0.0,0.0,0.0,0.0,0.0,0.0,0.0,0.0,0.0,0.0,0.0,0.0,0.0,-3.917,-3.9768,-4.1493,-4.4332,-4.442,-4.5074,-4.6424,-4.595,-4.4298,-4.1582,0.0,0.0,0.0,0.0,0.0,0.0,0.0,0.0,0.0,0.0,0.0,0.0,0.0,0.0,0.0,0.0,0.0,0.0,0.0,0.0,0.0,0.0,0.0,0.0,0.0,0.0,0.0,0.0,0.0,0.0,0.0,0.0,0.0,0.0,0.0,0.0,0.0,0.0,0.0,-4.3377,-4.3613,0.0,0.0,0.0,0.0,0.0,0.0,0.0,0.0,-4.3661,0.0,0.0,0.0,0.0,0.0,0.0,0.0,0.0,0.0,0.0,0.0,0.0,0.0,0.0,0.0,0.0,0.0,0.0,0.0,0.0,0.0,0.0,0.0,0.0,0.0,0.0,0.0,0.0,0.0,0.0,0.0,0.0,0.0,0.0,0.0,0.0,0.0,0.0,0.0,0.0,0.0,0.0,0.0,0.0,0.0,0.0,0.0,0.0,0.0,0.0,0.0,0.0,0.0,0.0,0.0,-3.9486,-4.0954,-4.2564,-4.4231,-4.4302,-4.4791,-4.5767,-4.5444,-4.3974,0.0,0.0,0.0,0.0,0.0,0.0,0.0,0.0,0.0,0.0,0.0,0.0,0.0,0.0,0.0,0.0,0.0,0.0,0.0,0.0,0.0,0.0,0.0,0.0,0.0,0.0,0.0,0.0,0.0,0.0,0.0,0.0,0.0,0.0,0.0,0.0,0.0,0.0,0.0,0.0,-4.3266,-4.3612,-4.3134,0.0,0.0,0.0,0.0,0.0,0.0,-4.287,-4.2787,0.0,0.0,0.0,0.0,0.0,0.0,0.0,0.0,0.0,0.0,0.0,0.0,0.0,0.0,0.0,0.0,0.0,0.0,0.0,0.0,0.0,0.0,0.0,0.0,0.0,0.0,0.0,0.0,0.0,0.0,0.0,0.0,0.0,0.0,0.0,0.0,0.0,0.0,0.0,0.0,0.0,0.0,0.0,0.0,0.0,0.0,0.0,0.0,0.0,0.0,0.0,0.0,0.0,0.0,0.0,-3.9592,-4.1796,-4.3359,-4.4035,-4.4158,-4.45,-4.518,-4.4927,-4.3582,0.0,0.0,0.0,0.0,0.0,0.0,0.0,0.0,0.0,0.0,0.0,0.0,0.0,0.0,0.0,0.0,0.0,0.0,0.0,0.0,0.0,0.0,0.0,0.0,0.0,0.0,0.0,0.0,0.0,0.0,0.0,0.0,0.0,0.0,0.0,0.0,0.0,0.0,0.0,0.0,0.0,-4.376,-4.3194,-4.3162,0.0,0.0,0.0,0.0,-4.2538,-4.2649,0.0,0.0,0.0,0.0,0.0,0.0,0.0,0.0,0.0,0.0,0.0,0.0,0.0,0.0,0.0,0.0,0.0,0.0,0.0,0.0,0.0,0.0,0.0,0.0,0.0,0.0,0.0,0.0,0.0,0.0,0.0,0.0,0.0,0.0,0.0,0.0,0.0,0.0,0.0,0.0,0.0,0.0,0.0,0.0,0.0,0.0,0.0,0.0,0.0,0.0,0.0,0.0,0.0,0.0,0.0,0.0,-3.9626,-4.0447,-4.1924,-4.3939,-4.3375,-4.3592,-4.4885,-4.4299,-4.2937,0.0,0.0,0.0,0.0,0.0,0.0,0.0,0.0,0.0,0.0,0.0,0.0,0.0,0.0,0.0,0.0,0.0,0.0,0.0,0.0,0.0,0.0,0.0,0.0,0.0,0.0,0.0,0.0,0.0,0.0,0.0,0.0,0.0,0.0,0.0,0.0,0.0,0.0,0.0,0.0,0.0,-4.5212,-4.2522,-4.333,-4.3676,0.0,0.0,-4.2795,-4.3804,-4.4749,0.0,0.0,0.0,0.0,0.0,0.0,0.0,0.0,0.0,0.0,0.0,0.0,0.0,0.0,0.0,0.0,0.0,0.0,0.0,0.0,0.0,0.0,0.0,0.0,0.0,0.0,0.0,0.0,0.0,0.0,0.0,0.0,0.0,0.0,0.0,0.0,0.0,0.0,0.0,0.0,0.0,0.0,0.0,0.0,0.0,0.0,0.0,0.0,0.0,0.0,0.0,0.0,0.0,0.0,0.0,-3.8338,-3.9324,-4.1067,-4.2504,-4.3638,-4.3402,-4.3589,-4.4305,-4.3325,-4.195,0.0,0.0,0.0,0.0,0.0,0.0,0.0,0.0,0.0,0.0,0.0,0.0,0.0,0.0,0.0,0.0,0.0,0.0,0.0,0.0,0.0,0.0,0.0,0.0,0.0,0.0,0.0,0.0,0.0,0.0,0.0,0.0,0.0,0.0,0.0,0.0,0.0,0.0,0.0,0.0,0.0,0.0,-4.3682,-4.3622,0.0,0.0,0.0,-4.2986,-4.2814,0.0,0.0,0.0,0.0,0.0,0.0,0.0,0.0,0.0,0.0,0.0,0.0,0.0,0.0,0.0,0.0,0.0,0.0,0.0,0.0,0.0,0.0,0.0,0.0,0.0,0.0,0.0,0.0,0.0,0.0,0.0,0.0,0.0,0.0,0.0,0.0,0.0,0.0,0.0,0.0,0.0,0.0,0.0,0.0,0.0,0.0,0.0,0.0,0.0,0.0,0.0,0.0,0.0,0.0,0.0,0.0,0.0,-3.9015,-4.146,-4.2902,-4.3312,-4.3372,-4.3426,-4.3405,-4.2299,0.0,0.0,0.0,0.0,0.0,0.0,0.0,0.0,0.0,0.0,0.0,0.0,0.0,0.0,0.0,0.0,0.0,0.0,0.0,0.0,0.0,0.0,0.0,0.0,0.0,0.0,0.0,-3.7676,0.0,0.0,0.0,0.0,0.0,0.0,0.0,0.0,0.0,0.0,0.0,0.0,0.0,0.0,-4.4217,-4.4288,-4.3725,-4.3511,0.0,0.0,-4.3103,-4.2555,-4.3639,-4.3726,0.0,0.0,0.0,0.0,0.0,0.0,0.0,0.0,0.0,0.0,0.0,0.0,0.0,0.0,0.0,0.0,0.0,0.0,0.0,0.0,0.0,0.0,0.0,0.0,0.0,0.0,0.0,0.0,0.0,0.0,0.0,0.0,0.0,0.0,0.0,0.0,0.0,0.0,0.0,0.0,0.0,0.0,0.0,0.0,0.0,0.0,0.0,0.0,0.0,0.0,0.0,0.0,0.0,0.0,-3.7933,-3.9015,-4.0778,-4.2169,-4.3064,-4.3007,-4.2727,-4.2219,-4.1285,-3.9793,0.0,0.0,0.0,0.0,0.0,0.0,0.0,0.0,0.0,0.0,0.0,0.0,0.0,0.0,0.0,0.0,0.0,0.0,0.0,0.0,0.0,0.0,0.0,0.0,0.0,0.0,0.0,0.0,0.0,0.0,0.0,0.0,0.0,0.0,0.0,0.0,0.0,0.0,0.0,0.0,0.0,-4.385,-4.336,-4.3494,-4.3996,0.0,-4.401,-4.3444,-4.4354,-4.5241,-4.485,-4.1863,0.0,0.0,0.0,0.0,0.0,0.0,0.0,0.0,0.0,0.0,0.0,0.0,0.0,0.0,0.0,0.0,0.0,0.0,0.0,0.0,0.0,0.0,0.0,0.0,0.0,0.0,0.0,0.0,0.0,0.0,0.0,0.0,0.0,0.0,0.0,0.0,0.0,0.0,0.0,0.0,0.0,0.0,0.0,0.0,0.0,0.0,0.0,0.0,0.0,0.0,0.0,0.0,0.0,-3.6971,-3.7947,-4.0156,-4.175,-4.26,-4.2166,-4.1871,-4.1794,-4.0388,-3.8866,0.0,0.0,0.0,0.0,0.0,0.0,0.0,0.0,0.0,0.0,0.0,0.0,0.0,0.0,0.0,0.0,0.0,0.0,0.0,0.0,0.0,0.0,0.0,0.0,0.0,0.0,0.0,0.0,-3.7345,-3.7304,-3.7202,0.0,0.0,0.0,0.0,0.0,0.0,0.0,0.0,0.0,0.0,-4.3294,-4.3606,-4.3793,0.0,0.0,-4.5127,-4.4658,-4.4435,-4.4958,-4.4338,-4.1321,-4.1379,0.0,0.0,0.0,0.0,0.0,0.0,0.0,0.0,0.0,0.0,0.0,0.0,0.0,0.0,0.0,0.0,0.0,0.0,0.0,0.0,0.0,0.0,0.0,0.0,0.0,0.0,0.0,0.0,0.0,0.0,0.0,0.0,0.0,0.0,0.0,0.0,0.0,0.0,0.0,0.0,0.0,0.0,0.0,0.0,0.0,0.0,0.0,0.0,0.0,0.0,0.0,0.0,-3.6123,-3.7134,-3.923,-4.0831,-4.1821,-4.118,-4.0777,-4.0645,-3.9395,-3.7912,0.0,0.0,0.0,0.0,0.0,0.0,0.0,0.0,0.0,0.0,0.0,0.0,0.0,0.0,0.0,0.0,0.0,0.0,0.0,0.0,0.0,0.0,0.0,0.0,0.0,0.0,0.0,0.0,-3.7479,-3.7483,-3.781,0.0,0.0,0.0,0.0,0.0,0.0,0.0,0.0,0.0,0.0,-4.2737,-4.3282,-4.3635,-4.4204,-4.5269,-4.5291,-4.486,-4.4075,-4.4172,-4.3396,-4.0795,0.0,0.0,0.0,0.0,0.0,0.0,0.0,0.0,0.0,0.0,0.0,0.0,0.0,0.0,0.0,0.0,0.0,0.0,0.0,0.0,0.0,0.0,0.0,0.0,0.0,0.0,0.0,-3.628,0.0,0.0,-3.6357,0.0,0.0,0.0,0.0,0.0,0.0,0.0,0.0,0.0,0.0,0.0,0.0,0.0,0.0,0.0,0.0,0.0,0.0,0.0,0.0,0.0,0.0,-3.5405,-3.68,-3.7993,-3.9249,-4.0578,-4.0087,-3.9436,-3.8631,-3.8199,-3.6939,-3.4656,0.0,0.0,0.0,0.0,0.0,0.0,0.0,0.0,0.0,0.0,0.0,0.0,0.0,0.0,0.0,0.0,0.0,0.0,0.0,0.0,0.0,0.0,0.0,0.0,0.0,0.0,-3.8029,-3.7794,-3.7667,0.0,0.0,0.0,0.0,0.0,0.0,0.0,0.0,0.0,0.0,-4.1343,-4.2134,-4.215,-4.2867,-4.3682,-4.4441,-4.411,-4.3706,-4.3469,-4.3055,-4.2122,0.0,0.0,0.0,0.0,0.0,0.0,0.0,0.0,0.0,0.0,0.0,0.0,0.0,0.0,0.0,0.0,0.0,0.0,0.0,0.0,0.0,0.0,0.0,0.0,0.0,0.0,0.0,-3.6945,-3.6137,0.0,0.0,0.0,0.0,0.0,0.0,0.0,0.0,0.0,0.0,0.0,-3.6633,-3.715,0.0,0.0,0.0,0.0,0.0,0.0,0.0,0.0,0.0,0.0,0.0,0.0,-3.5143,-3.6072,-3.7466,-3.8639,-3.9548,-3.8952,-3.8481,-3.8168,-3.7514,-3.6199,-3.4255,0.0,0.0,0.0,0.0,0.0,0.0,0.0,0.0,0.0,0.0,0.0,0.0,0.0,0.0,0.0,0.0,0.0,0.0,0.0,0.0,0.0,0.0,0.0,0.0,0.0,-3.8175,0.0,0.0,0.0,0.0,0.0,0.0,0.0,0.0,0.0,0.0,0.0,-3.9603,-3.9591,-4.0415,-4.1222,-4.1685,-4.2512,-4.3359,0.0,0.0,0.0,0.0,0.0,0.0,0.0,0.0,0.0,0.0,0.0,0.0,0.0,0.0,-4.0193,-3.8612,-3.8777,-3.9018,-3.8577,0.0,0.0,0.0,0.0,0.0,0.0,0.0,0.0,0.0,0.0,0.0,0.0,0.0,0.0,-3.6915,0.0,-3.6048,0.0,0.0,0.0,0.0,0.0,0.0,0.0,0.0,-3.7254,-3.7323,-3.747,-3.7714,-3.7813,0.0,-3.7313,-3.681,0.0,0.0,0.0,0.0,0.0,0.0,0.0,0.0,-3.5137,-3.5814,-3.6832,-3.7747,-3.8462,-3.7904,-3.753,-3.753,-3.6616,-3.5493,-3.4197,-3.3696,-3.3144,0.0,0.0,0.0,0.0,0.0,0.0,0.0,0.0,0.0,0.0,0.0,0.0,0.0,0.0,0.0,0.0,0.0,0.0,0.0,0.0,0.0,0.0,0.0,-3.7601,0.0,0.0,0.0,0.0,0.0,0.0,0.0,0.0,0.0,-3.8056,-3.87,-3.9388,-3.9671,-4.0109,-4.0681,-4.1372,0.0,0.0,0.0,0.0,0.0,0.0,0.0,-4.1128,-3.9394,-3.9409,-3.923,-3.7952,-3.828,-3.8592,-3.8189,0.0,0.0,-3.8416,-3.8844,-3.9221,-3.8818,-3.9203,-3.9581,-3.9324,-3.9262,-3.9129,0.0,0.0,0.0,0.0,0.0,0.0,0.0,0.0,-3.666,-3.6706,0.0,-3.6235,0.0,0.0,0.0,0.0,0.0,-3.7812,0.0,0.0,-3.7612,-3.8066,-3.8589,-3.8293,-3.8544,-3.9256,-3.8176,-3.7303,-3.6559,-3.5197,0.0,0.0,0.0,0.0,0.0,0.0,-3.529,-3.5914,-3.6116,-3.6595,-3.7383,-3.694,-3.6693,-3.6693,-3.563,-3.4924,-3.452,-3.3889,-3.3382,-3.3059,-3.3545,0.0,0.0,0.0,0.0,0.0,0.0,0.0,0.0,0.0,0.0,0.0,0.0,0.0,0.0,0.0,0.0,0.0,0.0,0.0,0.0,-3.6743,0.0,0.0,0.0,0.0,0.0,0.0,0.0,0.0,0.0,0.0,-3.8157,-3.8847,-3.9736,-4.0601,0.0,0.0,0.0,0.0,-4.1893,-4.226,-4.2447,-4.2499,-4.2346,-4.1866,-4.1025,-3.9662,0.0,0.0,-3.7787,-3.7113,-3.6777,-3.6693,-3.7604,-3.8602,-3.9743,-3.9744,-3.9815,-3.9967,-3.9762,-3.977,-4.0239,-3.9939,-3.966,-3.838,0.0,0.0,0.0,0.0,-3.7633,-3.7553,-3.718,-3.7144,-3.6744,-3.6056,-3.6039,0.0,0.0,0.0,0.0,0.0,0.0,-3.7387,-3.7449,-3.7864,-3.8017,-3.8003,-3.8496,-3.8555,-3.8163,-3.7689,-3.7203,-3.6655,-3.5694,-3.5066,-3.4765,0.0,0.0,0.0,0.0,-3.4798,-3.4898,-3.551,-3.597,-3.6184,-3.6191,-3.6242,-3.6321,-3.6027,-3.5536,-3.4863,-3.4527,-3.4074,-3.3397,-3.3379,0.0,0.0,0.0,0.0,0.0,0.0,0.0,0.0,0.0,0.0,0.0,0.0,0.0,0.0,0.0,0.0,0.0,0.0,0.0,-3.745,-3.7483,-3.7697,0.0,0.0,0.0,0.0,0.0,0.0,0.0,0.0,0.0,-3.8178,-3.8767,-3.9667,0.0,0.0,-4.0152,-4.0948,-4.1147,-4.1443,-4.2004,-4.1611,0.0,-4.1473,-4.0434,-3.932,-3.8484,-3.815,-3.7772,-3.7088,-3.7069,-3.6942,-3.6408,-3.74,-3.8398,-3.8546,-3.9437,-4.0026,-3.9957,-4.0097,-4.0449,-4.0717,-4.0562,-4.0379,-3.8935,-3.7914,-3.7897,-3.7784,-3.7623,-3.7899,-3.7824,-3.7514,-3.7432,-3.7091,-3.6648,-3.6524,-3.6227,-3.5846,-3.6589,0.0,0.0,0.0,-3.7254,-3.724,-3.7573,-3.779,-3.7951,-3.8167,-3.8257,-3.8114,-3.7531,-3.7089,-3.6816,-3.6322,-3.586,-3.5401,0.0,0.0,-3.4433,-3.4666,-3.4718,-3.4604,-3.5121,-3.5444,-3.5621,-3.5878,-3.6037,-3.6116,-3.6116,-3.5902,-3.5428,-3.5194,-3.4798,-3.4135,-3.3819,-3.3818,0.0,0.0,0.0,0.0,0.0,0.0,0.0,0.0,0.0,0.0,0.0,-3.6195,-3.6554,0.0,0.0,0.0,-3.5551,-3.5997,-3.6692,-3.6844,0.0,0.0,0.0,0.0,0.0,0.0,0.0,-3.8686,-3.8389,-3.8318,-3.8551,-3.8662,-3.9195,-4.0425,-4.0016,-3.9866,-4.0652,0.0,-4.081,-4.1388,-4.0984,-4.0658,-4.0831,-4.0018,-3.9037,-3.8078,-3.7356,-3.6864,-3.6524,-3.6588,-3.6551,-3.6389,-3.7027,-3.7731,-3.7939,-3.8853,-3.9666,-3.9842,-4.0235,-4.0616,-4.073,-4.0688,-4.0702,-3.9352,-3.905,-3.905,-3.8722,-3.825,-3.8351,-3.8075,-3.7568,-3.7503,-3.7649,-3.7896,-3.735,-3.7134,-3.7154,-3.6841,0.0,-3.7254,-3.7358,-3.7254,-3.7015,-3.7062,-3.7466,-3.8151,-3.7555,-3.7738,-3.8609,-3.7525,-3.7,-3.7032,-3.7024,-3.7005,-3.6942,-3.5332,-3.4887,-3.5484,-3.5096,-3.4868,-3.4835,-3.4868,-3.5049,-3.5472,-3.5797,-3.5973,-3.602,-3.6037,-3.6068,-3.6037,-3.5863,-3.5543,-3.5093,-3.4691,-3.4297,-3.3925,0.0,0.0,0.0,0.0,0.0,0.0,0.0,0.0,0.0,0.0,0.0,0.0,0.0,0.0,0.0,-3.5274,0.0,-3.5059,-3.5492,0.0,0.0,0.0,-3.8163,-3.8142,-3.8333,-3.8478,-3.8478,0.0,0.0,-3.9044,-3.858,-3.8495,-3.9282,-3.9343,-3.9591,-4.027,-4.0112,-4.0081,-4.0558,-4.0411,-4.03,-4.0353,-4.0042,-3.9269,-3.7995,-3.7044,-3.6379,-3.614,-3.6034,-3.6008,-3.6154,-3.6535,-3.7025,-3.7906,-3.8336,-3.8771,-3.9672,-4.0099,-4.0342,-4.0471,-4.0587,-4.0659,-3.972,-3.952,-3.9432,-3.9056,-3.8476,-3.8323,-3.8226,-3.8156,-3.7593,-3.7405,-3.746,-3.7213,-3.7307,-3.7706,-3.7533,-3.7467,-3.7567,-3.7344,-3.7224,-3.7181,-3.7576,-3.7592,-3.7326,-3.7638,-3.7684,-3.7432,-3.7001,-3.6971,-3.7341,-3.7223,-3.7025,-3.6733,-3.6088,-3.5763,-3.5792,-3.51,-3.4597,-3.4298,-3.4433,-3.4769,-3.5261,-3.5621,-3.5863,-3.6005,-3.6352,-3.6476,-3.6398,-3.6336,-3.6165,-3.5762,-3.5261,-3.4653,-3.3955,-3.4501,0.0,0.0,0.0,0.0,0.0,0.0,0.0,0.0,0.0,-3.6825,-3.6336,0.0,-3.5723,0.0,-3.4719,-3.5182,-3.6529,-3.6851,0.0,0.0,-3.8493,-3.8524,-3.8193,-3.8227,-3.8277,-3.8263,-3.824,-3.826,-3.842,-3.8304,-3.8298,-3.8495,-3.8618,-3.901,-3.9779,-3.9446,-3.929,-3.9817,-3.9394,-3.9134,-3.9554,-3.8755,-3.7742,-3.6918,-3.6567,-3.6272,-3.5844,-3.6266,-3.647,-3.6076,-3.7233,-3.7997,-3.7756,-3.8551,-3.9131,-3.8967,-3.9461,-4.0227,-4.053,-4.0659,-4.0616,-3.9729,-3.959,-3.9379,-3.9029,-3.8616,-3.8488,-3.8516,-3.8539,-3.8026,-3.782,-3.7864,-3.7585,-3.7566,-3.773,-3.7658,-3.7628,-3.7583,-3.7419,-3.7284,-3.721,-3.7526,-3.7388,-3.703,-3.7374,-3.7358,-3.6999,-3.6785,-3.7018,-3.7541,-3.7301,-3.7397,-3.7795,-3.6984,-3.6514,-3.6443,-3.5395,-3.4781,-3.4545,-3.4457,-3.4616,-3.5034,-3.5427,-3.5767,-3.61,-3.6399,-3.66,-3.6585,-3.6585,-3.6445,-3.6101,-3.5615,-3.5095,-3.4607,-3.4653,-3.4571,0.0,0.0,0.0,0.0,0.0,0.0,0.0,0.0,0.0,0.0,0.0,-3.5532,-3.4688,-3.4702,-3.5291,-3.6538,-3.6919,-3.7404,-3.8175,-3.8277,-3.815,-3.7953,-3.7938,-3.7953,-3.7938,-3.7915,-3.7953,-3.8066,-3.8081,-3.8104,-3.8188,-3.8277,-3.8558,-3.9052,-3.8884,-3.8781,-3.9119,-3.866,-3.8228,-3.8429,-3.7723,-3.6954,-3.6431,-3.6232,-3.6085,-3.5764,-3.5981,-3.613,-3.6089,-3.7083,-3.8015,-3.7923,-3.8365,-3.8878,-3.9166,-3.9367,-3.9681,-3.9953,-4.0377,-4.0616,-3.9642,-3.9484,-3.9228,-3.8942,-3.8722,-3.8832,-3.8777,-3.8639,-3.842,-3.8379,-3.8448,-3.8049,-3.773,-3.751,-3.7494,-3.7539,-3.7539,-3.7539,-3.7435,-3.7284,-3.7194,-3.7089,-3.6999,-3.6938,-3.6908,-3.6908,-3.677,-3.7002,-3.762,-3.7413,-3.7833,-3.8855,-3.7651,-3.7062,-3.703,-3.5837,-3.5148,-3.5099,-3.4631,-3.4578,-3.5019,-3.5323,-3.5746,-3.627,-3.646,-3.6585,-3.6677,-3.6662,-3.6523,-3.618,-3.5799,-3.5492,-3.5309,-3.4863,-3.4615,0.0,-3.4631,0.0,0.0,0.0,0.0,0.0,0.0,0.0,0.0,-3.6094,-3.5481,-3.498,-3.5149,-3.5481,-3.6086,-3.6464,-3.6939,-3.7539,-3.761,-3.761,-3.761,-3.7625,-3.761,-3.761,-3.7625,-3.7739,-3.7891,-3.7891,-3.7967,-3.8127,-3.8179,-3.8306,-3.8404,-3.8368,-3.8287,-3.8375,-3.8127,-3.7725,-3.7229,-3.7084,-3.6875,-3.6338,-3.6218,-3.6085,-3.5911,-3.5859,-3.5927,-3.6319,-3.7016,-3.7675,-3.8295,-3.822,-3.8514,-3.9428,-3.9277,-3.9071,-3.9295,-4.0039,-4.0474,-3.9798,-3.9651,-3.9582,-3.9484,-3.9325,-3.9245,-3.8711,-3.7905,-3.7847,-3.7847,-3.7876,-3.7759,-3.7658,-3.751,-3.7628,-3.7671,-3.7642,-3.7687,-3.7642,-3.7583,-3.7195,-3.703,-3.6969,-3.6724,-3.6523,-3.6367,-3.6492,-3.6799,-3.7301,-3.7509,-3.76,-3.7571,-3.731,-3.6955,-3.6544,0.0,0.0,0.0,-3.4479,-3.4632,-3.5672,-3.5535,-3.5862,-3.681,-3.6737,0.0,-3.6554,-3.6538,-3.6398,-3.6053,-3.5947,0.0,0.0,0.0,0.0,0.0,0.0,0.0,0.0,0.0,0.0,0.0,-3.6029,-3.6614,-3.6477,-3.6686,-3.663,-3.6283,-3.6139,-3.628,-3.6734,-3.6722,-3.6939,-3.7539,-3.761,-3.761,-3.761,-3.7739,-3.7853,-3.7868,-3.7853,-3.7853,-3.7891,-3.7891,-3.7929,-3.7924,-3.8104,-3.8202,-3.8196,-3.7707,-3.7494,-3.789,-3.7763,-3.7419,-3.6864,-3.7031,-3.7056,-3.6719,-3.6705,-3.6705,-3.6575,-3.699,-3.7087,-3.6829,-3.8018,-3.888,-3.8393,-3.8698,-3.8893,-3.8643,-3.8588,-3.8769,-3.9256,-4.0039,-4.0419,-3.9781,-3.9781,-3.9668,-3.9415,0.0,-3.8914,-3.8387,-3.7746,-3.802,-3.802,-3.7788,-3.773,-3.7612,-3.748,-3.7285,-3.7134,-3.7043,-3.7126,-3.7126,-3.7059,-3.7126,-3.7111,-3.6969,-3.6708,-3.6476,-3.6196,-3.632,-3.6673,-3.7191,-3.7138,-3.7354,-3.7824,-3.7195,-3.6755,-3.6535,-3.5856,-3.5452,-3.5357,-3.4787,-3.4863,-3.5526,-3.5561,-3.5853,-3.6474,-3.6473,0.0,0.0,0.0,0.0,0.0,0.0,0.0,0.0,-3.5649,0.0,-3.5472,-3.5554,-3.5557,-3.5459,-3.5444,-3.5339,-3.52,-3.6098,-3.6698,-3.6752,-3.7297,-3.736,-3.6679,-3.6606,-3.667,-3.6691,-3.6803,-3.6963,-3.726,-3.7303,-3.7303,-3.7341,-3.7457,-3.761,-3.7625,-3.7701,-3.7777,-3.7891,-3.7891,-3.7748,-3.7526,-3.7618,-3.754,-3.7057,-3.7132,-3.7372,-3.7313,-3.724,-3.7046,-3.6811,-3.7031,-3.7264,-3.7056,-3.7187,-3.7187,-3.7031,-3.731,-3.7422,-3.7041,-3.7952,-3.857,-3.8211,-3.8323,-3.8477,-3.8366,-3.8199,-3.8197,-3.8615,-3.9508,-4.0069,-3.972,-3.9755,-3.9511,-3.9218,-3.8805,-3.8511,-3.8189,-3.7876,0.0,0.0,0.0,-3.7725,-3.7671,-3.7539,-3.7089,-3.6831,-3.6677,-3.6761,-3.67,-3.66,-3.7078,-3.7188,-3.6984,-3.6831,-3.66,-3.6274,-3.6274,-3.6549,-3.699,-3.669,-3.7077,-3.7969,-3.7062,-3.6565,-3.6572,-3.5729,-3.54,-3.5653,-3.5248,-3.5144,-3.5475,-3.5617,-3.5859,-3.6123,-3.6099,-3.6116,-3.6085,-3.6226,-3.6178,-3.5941,-3.6005,-3.6037,-3.5925,-3.5782,-3.5671,-3.5591,-3.5362,-3.5148,-3.5096,-3.4854,-3.5101,-3.5884,-3.6318,-3.6808,-3.7331,-3.7747,-3.7701,-3.7072,-3.7005,-3.6874,-3.6689,-3.6876,-3.6978,-3.6978,-3.6978,-3.6978,-3.7017,-3.7226,-3.7394,-3.738,-3.742,-3.7544,-3.769,-3.7575,-3.7388,-3.6913,-3.6931,-3.6735,-3.5915,-3.6509,-3.6957,-3.6549,-3.6621,-3.6747,-3.6797,-3.7109,-3.7341,-3.7481,-3.761,-3.7649,-3.7572,-3.7481,-3.7366,-3.724,-3.7603,-3.7957,-3.796,-3.7856,-3.7847,-3.8295,-3.7945,-3.7634,-3.8004,-3.8915,-3.9605,-3.9484,-3.9379,-3.9148,-3.9023,-3.8952,-3.8805,-3.8628,-3.8464,-3.802,-3.754,-3.707,-3.7649,-3.7847,-3.7847,-3.7759,-3.7714,-3.7685,-3.7573,-3.7438,-3.7252,-3.7258,-3.7153,-3.6999,-3.6969,-3.6785,-3.6492,-3.6569,-3.6538,-3.6396,-3.6569,-3.6708,-3.6769,-3.6693,-3.6553,-3.627,-3.5829,-3.5748,-3.5918,-3.5524,-3.5699,-3.6463,-3.5972,-3.5989,-3.6549,-3.6054,-3.5703,-3.5587,-3.5634,-3.5634,-3.5569,-3.5587,-3.5602,-3.5569,-3.5554,-3.5457,-3.5279,-3.5213,-3.5001,-3.4563,-3.545,-3.6404,-3.7175,-3.67,-3.6967,-3.8384,-3.7653,-3.7526,-3.8514,-3.7587,-3.7143,-3.7557,-3.7256,-3.6993,-3.6993,-3.6978,-3.6978,-3.7017,-3.7341,-3.7572,-3.7572,-3.7252,-3.7115,-3.7152,-3.672,-3.6273,-3.5991,-3.6014,-3.5963,-3.5628,-3.578,-3.5882,-3.5776,-3.6217,-3.6691,-3.6954,-3.7303,-3.7634,-3.8014,-3.8089,-3.8113,-3.8144,-3.8098,-3.7938,-3.7815,-3.8043,-3.8243,-3.8142,-3.7986,-3.7866,-3.7924,-3.7608,-3.754,-3.8113,-3.897,-3.9453,-3.9458,-3.9395,-3.9245,-3.9067,-3.8887,-3.8766,-3.8537,-3.8297,-3.8365,-3.8141,-3.7758,-3.7917,-3.8017,-3.7988,-3.7669,-3.7433,-3.7254,-3.7311,-3.7157,-3.6907,-3.7234,-3.728,-3.7121,-3.7014,-3.6816,-3.6523,-3.6631,-3.6523,-3.6258,-3.6523,-3.6647,-3.6492,-3.6476,-3.6305,-3.6085,-3.6022,-3.599,-3.602,-3.5879,-3.592,-3.6155,-3.5965,-3.6099,-3.658,-3.5949,-3.5767,-3.6013,-3.5699,-3.5489,-3.5489,-3.5489,-3.5489,-3.5489,-3.5489,-3.5407,-3.5213,-3.5082,-3.4868,-3.4597,-3.5555,-3.6223,-3.645,-3.6287,-3.6657,-3.7894,-3.7441,-3.7356,-3.7955,-3.7513,-3.7221,-3.7368,-3.7244,-3.7109,-3.7031,-3.7109,-3.7134,-3.7226,-3.7495,-3.7739,-3.772,-3.742,-3.7155,-3.7155,-3.6577,-3.5927,-3.5497,-3.5074,-3.4783,-3.4959,-3.5254,-3.5535,-3.5809,-3.6483,-3.7028,-3.7303,-3.7548,-3.7785,-3.7892,-3.8148,-3.8214,-3.815,-3.8112,-3.8263,-3.8104,-3.8059,-3.7972,-3.7898,-3.7596,-3.7439,-3.7386,-3.731,-3.7455,-3.8257,-3.935,-4.0067,-3.9379,-3.9325,-3.9191,-3.8958,-3.8711,-3.8628,-3.8428,-3.8202,-3.8782,-3.8849,-3.86,-3.8399,-3.8286,-3.8201,-3.7637,-3.7252,-3.7029,-3.7079,-3.6923,-3.6631,-3.725,-3.7405,-3.7197,-3.7121,-3.6938,-3.6647,-3.6693,-3.66,-3.6336,-3.6523,-3.66,-3.6538,-3.6336,-3.6242,-3.6163,-3.6195,-3.6179,-3.6132,-3.6211,-3.6177,-3.6059,-3.6154,-3.6373,-3.663,-3.6189,-3.6037,-3.6365,-3.5917,-3.5589,-3.5439,-3.5439,-3.5407,-3.5374,-3.5407,-3.5359,-3.5148,-3.5001,-3.4842,-3.4792,-3.5416,-3.5796,-3.5645,-3.5774,-3.6194,-3.6867,-3.677,-3.6793,-3.7075,-3.7084,-3.6932,-3.6887,-3.701,-3.7105,-3.6898,-3.7116,-3.7264,-3.7264,-3.7572,-3.7853,-3.7782,-3.7364,-3.7056,-3.6954,-3.6373,-3.5607,-3.4877,-3.4168,-3.3916,-3.4356,-3.4909,-3.5603,-3.615,-3.6855,-3.7414,-3.7687,-3.7695,-3.7713,-3.7587,-3.7908,-3.793,-3.7777,-3.8069,-3.8345,-3.8179,-3.7877,-3.7667,-3.7562,-3.7293,-3.7074,-3.7049,-3.7099,-3.748,-3.8682,-3.984,-4.0843,-3.8969,-3.886,-3.8727,-3.856,-3.8448,-3.856,-3.8551,-3.8553,-3.8871,-3.9094,-3.9115,-3.8996,-3.8832,-3.8678,-3.8214,-3.7956,-3.7915,-3.7601,-3.7258,-3.7015,-3.7318,-3.7318,-3.709,-3.7301,-3.7271,-3.6969,-3.6984,-3.68,-3.646,-3.6507,-3.6569,-3.6677,-3.6538,-3.6523,-3.66,-3.6336,-3.6274,-3.646,-3.646,-3.6674,-3.7018,-3.6964,-3.702,-3.73,-3.7148,-3.6762,-3.6335,-3.6168,-3.5856,-3.5288,-3.5246,-3.5148,-3.5001,-3.5115,-3.5148,-3.4968,-3.4902,-3.4883,-3.4823,-3.5079,-3.5503,-3.5958,-3.5656,-3.5644,-3.605,-3.5432,-3.5589,-3.6606,-3.631,-3.6155,-3.6537,-3.6734,-3.6792,-3.6618,-3.6991,-3.7226,-3.7134,-3.7394,-3.7625,-3.761,-3.6944,-3.6417,-3.6323,-3.5439,-3.4587,-3.4344,-3.412,-3.3945,-3.4249,-3.5309,-3.6194,-3.657,-3.7146,-3.7701,-3.7965,-3.7686,-3.7506,-3.7543,-3.7492,-3.7521,-3.7609,-3.7856,-3.8202,-3.8202,-3.7863,-3.761,-3.7534,-3.7303,-3.7031,-3.7172,-3.7374,-3.7778,-3.9255,-4.0164,-4.0785,-3.875,-3.8588,-3.8504,-3.8448,-3.8391,-3.8464,-3.8427,-3.842,-3.8939,-3.9023,-3.8814,-3.9126,-3.9218,-3.9067,-3.8628,-3.8303,-3.8116,-3.7976,-3.7671,-3.7331,-3.7389,-3.7389,-3.7331,-3.73,-3.718,-3.703,-3.7075,-3.6907,-3.6585,-3.6585,-3.6631,-3.6677,-3.6647,-3.66,-3.6569,-3.6445,-3.6352,-3.632,-3.6336,-3.6547,-3.6997,-3.7053,-3.7192,-3.7515,-3.7552,-3.7447,-3.7248,-3.6805,-3.6133,-3.5466,-3.5246,-3.5115,-3.4902,-3.4968,-3.4968,-3.4916,-3.5169,-3.4961,-3.4142,-3.517,-3.5522,-3.4864,-3.5082,-3.5246,-3.5282,-3.4902,-3.5081,-3.5691,-3.6222,-3.6448,-3.6309,-3.6997,-3.7345,-3.6914,-3.7163,-3.7457,-3.738,-3.7495,-3.761,-3.7525,-3.6622,-3.6,-3.5949,-3.5128,-3.4385,-3.4162,-3.4157,-3.4254,-3.438,-3.5537,-3.6497,-3.7007,-3.7791,-3.8223,-3.8113,-3.8047,-3.7565,-3.6929,-3.7274,-3.7768,-3.707,-3.7681,-3.8202,-3.8202,-3.7877,-3.761,-3.761,-3.7331,-3.7063,-3.7341,-3.8079,-3.87,-3.9358,-3.9736,-4.0273,-3.8544,-3.8319,-3.825,-3.8266,-3.8335,-3.8379,-3.8378,-3.8391,-3.8933,-3.8931,-3.8638,-3.9093,-3.9272,-3.9164,-3.8766,-3.8432,-3.8116,-3.8062,-3.7817,-3.7375,-3.7344,-3.7314,-3.7285,-3.715,-3.6998,-3.6892,-3.6938,-3.6816,-3.6538,-3.6631,-3.6723,-3.6754,-3.6723,-3.6677,-3.6538,-3.6476,-3.632,-3.6148,-3.6164,-3.6344,-3.6639,-3.6882,-3.7316,-3.7888,-3.7978,-3.7986,-3.7974,-3.7159,-3.633,-3.5549,-3.5261,-3.5137,-3.5118,-3.5085,-3.5085,-3.5129,-3.5307,-3.4929,-3.3697,-3.4885,-3.5138,-3.4074,-3.444,-3.4753,-3.4747,-3.4779,-3.4839,-3.5019,-3.6251,-3.6754,-3.6251,-3.7067,-3.7425,-3.7008,-3.7277,-3.7495,-3.7419,-3.7419,-3.7386,-3.7196,-3.6331,-3.5575,-3.536,-3.4773,-3.4273,-3.4421,-3.4568,-3.486,-3.5161,-3.6175,-3.7119,-3.7506,-3.8478,-3.8801,-3.8316,-3.8128,-3.7505,-3.6791,-3.7041,-3.7374,-3.6613,-3.7425,-3.8089,-3.8028,-3.7763,-3.7572,-3.7457,-3.7268,-3.7091,-3.7594,-3.8138,-3.8738,-3.9171,-3.9335,-3.9908,-3.829,-3.8087,-3.7831,-3.7934,-3.8237,-3.8351,-3.846,-3.8476,-3.8761,-3.8854,-3.8848,-3.8882,-3.8887,-3.8985,-3.8711,-3.8444,-3.8116,-3.786,-3.751,-3.709,-3.718,-3.7043,-3.6754,-3.6723,-3.6662,-3.6554,-3.6554,-3.6507,-3.6476,-3.6647,-3.6785,-3.6954,-3.68,-3.6677,-3.6616,-3.6367,-3.6148,-3.6022,-3.6101,-3.6068,-3.5935,-3.6589,-3.7464,-3.8355,-3.8611,-3.8383,-3.7958,-3.7141,-3.6328,-3.5534,-3.5192,-3.5129,-3.5492,-3.5517,-3.5517,-3.5531,-3.5314,-3.47,-3.3845,-3.4028,-3.4046,-3.3767,-3.394,-3.4144,-3.4504,-3.4852,-3.5009,-3.4923,-3.6261,-3.6823,-3.6329,-3.6628,-3.6873,-3.6981,-3.7158,-3.7218,-3.7095,-3.7095,-3.6852,-3.6509,-3.5949,-3.5218,-3.426,-3.4097,-3.4416,-3.4845,-3.5152,-3.5549,-3.6309,-3.7214,-3.7819,-3.8251,-3.877,-3.9256,-3.8986,-3.8427,-3.7598,-3.6942,-3.675,-3.7017,-3.6996,-3.7083,-3.7564,-3.7891,-3.7739,-3.7534,-3.7341,-3.7215,-3.7169,-3.7327,-3.7358,-3.787,-3.8698,-3.9047,-3.9591,-3.8205,-3.7976,-3.7788,-3.7759,-3.7876,-3.802,-3.7963,-3.7815,-3.8353,-3.8422,-3.8275,-3.851,-3.8694,-3.8738,-3.8544,-3.8347,-3.8071,-3.7801,-3.7494,-3.7165,-3.7105,-3.6938,-3.6723,-3.66,-3.6492,-3.6305,-3.632,-3.632,-3.6336,-3.6476,-3.6647,-3.677,-3.6631,-3.6569,-3.6507,-3.6226,-3.6037,-3.6005,-3.5926,-3.5816,-3.578,-3.6348,-3.6917,-3.7375,-3.7843,-3.7888,-3.7504,-3.6983,-3.6348,-3.5651,-3.557,-3.5541,-3.5561,-3.5516,-3.5516,-3.557,-3.5412,-3.4874,-3.4151,-3.4512,-3.4531,-3.3918,-3.3862,-3.4008,-3.4297,-3.4782,-3.5137,-3.5385,-3.6202,-3.6773,-3.6744,-3.6742,-3.6772,-3.67,-3.681,-3.6968,-3.7112,-3.7095,-3.6792,-3.6193,-3.5379,-3.4498,-3.4241,-3.428,-3.4577,-3.4727,-3.541,-3.5942,-3.6195,-3.709,-3.799,-3.8189,-3.8495,-3.888,-3.9286,-3.8447,-3.7685,-3.7168,-3.6924,-3.7041,-3.7054,-3.7203,-3.7661,-3.7672,-3.7563,-3.7438,-3.7246,-3.7402,-3.7313,-3.7386,-3.74,-3.751,-3.8225,-3.8601,-3.909,-3.8164,-3.7905,-3.7759,-3.7685,-3.7716,-3.7788,-3.7719,-3.756,-3.8096,-3.8156,-3.7986,-3.836,-3.8532,-3.8448,-3.8307,-3.8164,-3.7988,-3.7788,-3.7478,-3.715,-3.703,-3.6831,-3.6554,-3.6414,-3.621,-3.6005,-3.5973,-3.6022,-3.6148,-3.6289,-3.6414,-3.6523,-3.6414,-3.6336,-3.6289,-3.6037,-3.5894,-3.5814,-3.5735,-3.5688,-3.5714,-3.6039,-3.6232,-3.6277,-3.6667,-3.7017,-3.7092,-3.665,-3.6202,-3.5744,-3.5681,-3.5707,-3.5799,-3.5936,-3.5915,-3.5776,-3.588,-3.5429,-3.4542,-3.4832,-3.484,-3.4292,-3.4069,-3.4066,-3.4239,-3.501,-3.5339,-3.5395,-3.6012,-3.6617,-3.6295,-3.6123,-3.6146,-3.6278,-3.6466,-3.6599,-3.6781,-3.6606,-3.6235,-3.5609,-3.4896,-3.4357,-3.4257,-3.4618,-3.4761,-3.4671,-3.5574,-3.6048,-3.6262,-3.6978,-3.7986,-3.8233,-3.8258,-3.8597,-3.8718,-3.8096,-3.7758,-3.7321,-3.6744,-3.6887,-3.6981,-3.7178,-3.7347,-3.7358,-3.7329,-3.7248,-3.7293,-3.749,-3.7566,-3.7625,-3.7484,-3.7439,-3.7889,-3.8173,-3.8841,-3.8046,-3.7857,-3.7743,-3.77,-3.7685,-3.77,-3.7772,-3.787,-3.8091,-3.8144,-3.8121,-3.8307,-3.8294,-3.818,-3.802,-3.7847,-3.773,-3.77,-3.745,-3.703,-3.6999,-3.6708,-3.6242,-3.6132,-3.5893,-3.5587,-3.5537,-3.5716,-3.5973,-3.6005,-3.6085,-3.6164,-3.6085,-3.6037,-3.6005,-3.5831,-3.5653,-3.5604,-3.5671,-3.5653,-3.5522,-3.5681,-3.5614,-3.5338,-3.5347,-3.5845,-3.6851,-3.6129,-3.5716,-3.5686,-3.5436,-3.5598,-3.6233,-3.67,-3.6787,-3.6173,-3.6518,-3.6143,-3.5031,-3.4711,-3.4766,-3.4699,-3.4461,-3.4273,-3.4464,-3.5472,-3.578,-3.5012,-3.5685,-3.6102,-3.5273,-3.4962,-3.5163,-3.5813,-3.6151,-3.6118,-3.6001,-3.57,-3.5349,-3.4944,-3.4653,-3.4602,-3.4775,-3.5036,-3.5164,-3.524,-3.576,-3.6323,-3.6619,-3.7215,-3.7945,-3.837,-3.8273,-3.8233,-3.8001,-3.7731,-3.7628,-3.7439,-3.6859,-3.6564,-3.6452,-3.6536,-3.6573,-3.6627,-3.6765,-3.6712,-3.7014,-3.7178,-3.7136,-3.7178,-3.7175,-3.7259,-3.754,-3.7962,-3.8761,-3.7496,-3.7403,-3.7697,-3.7788,-3.77,-3.7685,-3.773,-3.7743,-3.7817,-3.7889,-3.7947,-3.7934,-3.7918,-3.7963,-3.7847,-3.773,-3.77,-3.7583,-3.7345,-3.703,-3.6999,-3.6708,-3.6274,-3.6068,-3.5844,-3.5554,-3.5489,-3.5604,-3.5767,-3.5784,-3.5894,-3.599,-3.5894,-3.5863,-3.5973,-3.5831,-3.5735,-3.5861,-3.5878,-3.5831,-3.5638,-3.5604,-3.5442,-3.5213,-3.4997,-3.5101,-3.5499,-3.5434,-3.5442,-3.5539,-3.5776,-3.5996,-3.6241,-3.6238,-3.618,-3.6158,-3.5712,-3.5618,-3.5578,-3.5198,-3.4982,-3.4967,-3.4871,-3.4741,-3.4715,-3.555,-3.5765,-3.5137,-3.6239,-3.6733,-3.5741,-3.548,-3.5553,-3.5949,-3.5705,-3.5784,-3.6133,-3.5933,-3.5746,-3.5609,-3.5119,-3.4971,-3.5227,-3.5498,-3.5592,-3.5423,-3.6136,-3.6774,-3.6514,-3.7103,-3.78,-3.8115,-3.7916,-3.779,-3.7637,-3.7302,-3.6997,-3.6917,-3.6496,-3.6373,-3.621,-3.5931,-3.5955,-3.609,-3.6212,-3.6409,-3.6693,-3.685,-3.685,-3.6889,-3.6959,-3.7111,-3.7276,-3.7821,-3.8579,-3.7185,-3.7098,-3.7601,-3.7685,-3.7537,-3.7508,-3.7524,-3.7553,-3.7642,-3.7587,-3.7396,-3.7618,-3.7541,-3.7412,-3.7483,-3.7596,-3.7612,-3.7524,-3.7331,-3.7045,-3.6999,-3.6708,-3.6211,-3.5925,-3.5765,-3.5572,-3.5457,-3.5489,-3.5621,-3.5606,-3.5701,-3.5765,-3.5735,-3.5735,-3.5829,-3.5846,-3.5863,-3.5894,-3.5941,-3.5894,-3.5703,-3.5572,-3.5374,-3.503,-3.4731,-3.4582,-3.4534,-3.4683,-3.4949,-3.524,-3.5529,-3.5781,-3.6092,-3.5956,-3.5956,-3.6193,-3.6201,-3.6137,-3.6268,-3.612,-3.5949,-3.5934,-3.5623,-3.5297,-3.5211,-3.5708,-3.5694,-3.526,-3.5831,-3.6283,-3.5693,-3.5117,-3.5218,-3.5725,-3.5307,-3.533,-3.5903,-3.5822,-3.5711,-3.569,-3.5558,-3.5513,-3.5777,-3.5864,-3.5819,-3.5533,-3.6059,-3.6532,-3.6105,-3.6599,-3.7163,-3.7543,-3.7502,-3.7426,-3.7354,-3.6939,-3.6382,-3.6208,-3.6055,-3.6157,-3.6219,-3.5762,-3.5557,-3.5977,-3.6199,-3.6378,-3.6654,-3.6654,-3.6693,-3.6733,-3.6733,-3.6816,-3.7009,-3.7571,-3.8203,-3.7044,-3.6938,-3.7438,-3.749,-3.7254,-3.724,-3.721,-3.727,-3.7494,-3.7173,-3.6719,-3.7112,-3.7094,-3.6658,-3.6947,-3.7247,-3.7464,-3.7464,-3.7301,-3.7076,-3.6969,-3.6708,-3.6211,-3.5829,-3.5668,-3.5638,-3.5409,-3.5359,-3.5442,-3.5457,-3.5457,-3.5489,-3.5589,-3.5638,-3.5636,-3.5814,-3.5894,-3.5831,-3.5926,-3.5926,-3.5703,-3.5539,-3.5261,-3.475,-3.4481,-3.4259,-3.4088,-3.4108,-3.4351,-3.4783,-3.4848,-3.5189,-3.5755,-3.5978,-3.617,-3.6395,-3.7286,-3.7236,-3.7088,-3.6975,-3.7024,-3.7,-3.6429,-3.5847,-3.5504,-3.5629,-3.5576,-3.4768,-3.5038,-3.526,-3.5212,-3.4538,-3.4383,-3.5107,-3.5208,-3.519,-3.5116,-3.545,-3.5756,-3.5789,-3.594,-3.6165,-3.629,-3.6201,-3.5795,-3.5376,-3.5579,-3.5698,-3.5698,-3.6186,-3.6626,-3.6945,-3.7209,-3.6971,-3.6843,-3.6667,-3.6162,-3.5896,-3.5849,-3.6093,-3.6254,-3.5803,-3.5577,-3.5995,-3.6175,-3.6353,-3.6496,-3.6496,-3.6457,-3.6431,-3.647,-3.6524,-3.6809,-3.7261,-3.7569,-3.6097,-3.6432,-3.6749,-3.7046,-3.7296,-3.715,-3.706,-3.7044,-3.7151,-3.6789,-3.6274,-3.6169,-3.6246,-3.6103,-3.614,-3.6527,-3.713,-3.727,-3.7195,-3.703,-3.6999,-3.6708,-3.6258,-3.5958,-3.5814,-3.5703,-3.5507,-3.5374,-3.5294,-3.5294,-3.5294,-3.5294,-3.5344,-3.5459,-3.5653,-3.5878,-3.5973,-3.5958,-3.6053,-3.599,-3.5688,-3.5442,-3.5148,-3.4835,-3.4312,-3.4054,-3.4005,-3.3848,-3.3971,-3.4477,-3.481,-3.4934,-3.5232,-3.5852,-3.6273,-3.641,-3.6613,-3.6971,-3.7125,-3.7133,-3.6907,-3.6509,-3.6627,-3.6311,-3.5299,-3.5544,-3.5369,-3.4971,-3.5251,-3.5606,-3.5547,-3.4994,-3.4826,-3.4932,-3.5378,-3.5897,-3.64,-3.6589,-3.6584,-3.6612,-3.6529,-3.636,-3.6296,-3.6243,-3.6042,-3.5786,-3.5771,-3.589,-3.5768,-3.6097,-3.669,-3.6926,-3.7058,-3.6641,-3.6336,-3.6216,-3.5962,-3.5674,-3.5755,-3.6118,-3.6207,-3.6057,-3.6062,-3.6259,-3.6182,-3.6295,-3.636,-3.6431,-3.6312,-3.6192,-3.6272,-3.6351,-3.6391,-3.6704,-3.6888,-3.5606,-3.6061,-3.6377,-3.6787,-3.7178,-3.6984,-3.6862,-3.6877,-3.6862,-3.6458,-3.5932,-3.589,-3.5782,-3.5687,-3.5829,-3.6305,-3.6921,-3.6983,-3.6938,-3.6862,-3.6708,-3.6507,-3.6305,-3.6132,-3.5941,-3.5814,-3.5492,-3.5311,-3.518,-3.5115,-3.51,-3.5228,-3.5294,-3.5442,-3.5589,-3.5878,-3.5941,-3.5926,-3.6037,-3.5973,-3.5621,-3.5344,-3.5016,-3.4668,-3.4157,-3.3968,-3.3987,-3.3811,-3.3917,-3.4304,-3.454,-3.476,-3.5085,-3.5606,-3.6077,-3.6196,-3.6329,-3.6598,-3.7016,-3.7105,-3.691,-3.6561,-3.6694,-3.623,-3.5568,-3.5466,-3.5224,-3.509,-3.5183,-3.5233,-3.5269,-3.4919,-3.4823,-3.5123,-3.5634,-3.6254,-3.6978,-3.6571,-3.6489,-3.6459,-3.6186,-3.5886,-3.5831,-3.5821,-3.58,-3.5762,-3.579,-3.5803,-3.5817,-3.6298,-3.6615,-3.6758,-3.6645,-3.6179,-3.5681,-3.5433,-3.57,-3.5484,-3.5986,-3.6318,-3.636,-3.6374,-3.6455,-3.6469,-3.628,-3.6184,-3.6251,-3.6232,-3.6152,-3.6058,-3.6098,-3.6098,-3.6098,-3.6098,-3.6279,-3.5368,-3.587,-3.6185,-3.6578,-3.6982,-3.68,-3.6723,-3.6693,-3.6662,-3.6184,-3.5645,-3.586,-3.563,-3.5202,-3.5645,-3.6213,-3.6616,-3.6646,-3.6662,-3.6569,-3.6399,-3.6242,-3.6258,-3.6068,-3.5926,-3.5846,-3.5427,-3.5213,-3.5115,-3.4968,-3.5016,-3.5115,-3.5326,-3.5439,-3.5554,-3.5797,-3.5831,-3.5735,-3.5846,-3.5733,-3.5409,-3.518,-3.4883,-3.4496,-3.4309,-3.4037,-3.3998,-3.3977,-3.4125,-3.429,-3.4276,-3.4678,-3.5261,-3.5375,-3.5627,-3.5933,-3.616,-3.6436,-3.6819,-3.6996,-3.7092,-3.6788,-3.6462,-3.611,-3.5655,-3.5345,-3.5127,-3.5061,-3.4579,-3.4593,-3.4634,-3.4296,-3.4584,-3.524,-3.5701,-3.6168,-3.651,-3.6185,-3.5858,-3.5977,-3.5262,-3.4961,-3.4963,-3.5014,-3.4993,-3.5803,-3.5858,-3.5844,-3.5898,-3.6192,-3.6351,-3.6391,-3.6117,-3.5683,-3.5119,-3.4627,-3.5049,-3.5348,-3.6203,-3.6651,-3.6704,-3.6732,-3.6777,-3.6727,-3.6484,-3.6235,-3.6082,-3.6058,-3.5898,-3.5737,-3.5642,-3.5642,-3.5602,-3.5602,-3.5683,-3.4864,-3.5931,-3.5757,-3.6308,-3.7174,-3.6861,-3.6693,-3.6693,-3.643,-3.5922,-3.537,-3.5138,-3.5061,-3.5048,-3.5137,-3.5473,-3.6243,-3.6305,-3.6305,-3.6305,-3.6163,-3.5958,-3.5894,-3.5767,-3.5767,-3.5671,-3.5394,-3.5148,-3.4968,-3.485,-3.4817,-3.4968,-3.5067,-3.518,-3.5504,-3.5653,-3.5671,-3.5572,-3.5587,-3.5424,-3.5082,-3.4883,-3.4683,-3.439,-3.4464,-3.4427,-3.4223,-3.4363,-3.4596,-3.4826,-3.4846,-3.4813,-3.5,-3.5342,-3.5614,-3.5722,-3.5911,-3.6177,-3.6401,-3.652,-3.6533,-3.6496,-3.623,-3.5911,-3.5507,-3.5277,-3.5113,-3.5072,-3.4816,-3.4487,-3.4217,-3.4376,-3.4687,-3.5286,-3.5992,-3.6705,-3.7361,-3.7277,-3.6798,-3.6255,-3.5499,-3.5055,-3.5061,-3.4734,-3.4979,-3.5668,-3.5898,-3.5884,-3.6018,-3.6152,-3.6152,-3.6138,-3.5492,-3.5124,-3.497,-3.4574,-3.484,-3.5269,-3.6089,-3.6733,-3.6772,-3.6738,-3.6657,-3.6649,-3.664,-3.6391,-3.6098,-3.5777,-3.5616,-3.5399,-3.5236,-3.5141,-3.51,-3.51,-3.5232,-3.4657,-3.5746,-3.5542,-3.6121,-3.7112,-3.6861,-3.6616,-3.643,-3.6211,-3.5673,-3.5107,-3.4993,-3.493,-3.4674,-3.496,-3.5446,-3.5802,-3.6068,-3.6132,-3.6068,-3.5893,-3.5701,-3.5557,-3.5412,-3.5347,-3.5379,-3.5115,-3.4916,-3.4817,-3.4765,-3.475,-3.4902,-3.5001,-3.5213,-3.5472,-3.5572,-3.5507,-3.5392,-3.5359,-3.5148,-3.4716,-3.4582,-3.4361,-3.4203,-3.4412,-3.4517,-3.4372,-3.4412,-3.4678,-3.4897,-3.4766,-3.4673,-3.4794,-3.5103,-3.525,-3.5318,-3.548,-3.5669,-3.5857,-3.6057,-3.6125,-3.5978,-3.5978,-3.5777,-3.5521,-3.5277,-3.5195,-3.5006,-3.463,-3.4073,-3.3357,-3.3711,-3.4219,-3.491,-3.5761,-3.6609,-3.7277,-3.72,-3.6639,-3.5872,-3.4841,-3.4517,-3.4377,-3.4477,-3.5031,-3.5733,-3.5763,-3.5777,-3.6018,-3.6112,-3.5978,-3.5733,-3.4985,-3.458,-3.4694,-3.4694,-3.4811,-3.5239,-3.5792,-3.632,-3.6549,-3.6448,-3.6331,-3.6406,-3.6482,-3.6391,-3.6112,-3.5737,-3.5358,-3.5195,-3.499,-3.4771,-3.4605,-3.4605,-3.4785,-3.4404,-3.5475,-3.5319,-3.5993,-3.7008,-3.6831,-3.6446,-3.6105,-3.5916,-3.5379,-3.4842,-3.5179,-3.4872,-3.4607,-3.5126,-3.5474,-3.5587,-3.5701,-3.5814,-3.5797,-3.5507,-3.5359,-3.5261,-3.5082,-3.4968,-3.5049,-3.485,-3.4716,-3.4731,-3.4698,-3.4798,-3.4902,-3.5115,-3.5279,-3.5457,-3.5424,-3.5359,-3.5261,-3.5115,-3.4835,-3.4399,-3.4278,-3.4083,-3.3945,-3.437,-3.4671,-3.4671,-3.4712,-3.4772,-3.5088,-3.4444,-3.4334,-3.4598,-3.4756,-3.4756,-3.4756,-3.5003,-3.5154,-3.5358,-3.5642,-3.5737,-3.5413,-3.5737,-3.5777,-3.548,-3.5318,-3.5195,-3.4764,-3.427,-3.3436,-3.2603,-3.2597,-3.3438,-3.4314,-3.5211,-3.599,-3.6715,-3.6442,-3.6029,-3.5668,-3.498,-3.452,-3.4416,-3.4498,-3.5147,-3.5637,-3.564,-3.5682,-3.5855,-3.5732,-3.5396,-3.4873,-3.4013,-3.3826,-3.3937,-3.4714,-3.4861,-3.5155,-3.5613,-3.5828,-3.6138,-3.6029,-3.5984,-3.6198,-3.6243,-3.607,-3.5817,-3.544,-3.5113,-3.499,-3.4647,-3.4314,-3.4147,-3.4105,-3.4366,-3.3795,-3.5023,-3.4979,-3.5732,-3.6812,-3.6769,-3.6291,-3.5615,-3.5323,-3.4937,-3.4581,-3.4638,-3.4743,-3.4851,-3.527,-3.5504,-3.5457,-3.5489,-3.5377,-3.5344,-3.5148,-3.4997,-3.4898,-3.4798,-3.4683,-3.4582,-3.4582,-3.4664,-3.4664,-3.4698,-3.4765,-3.4902,-3.5082,-3.5294,-3.5359,-3.5359,-3.5213,-3.5082,-3.4883,-3.4515,-3.4059,-3.3868,-3.3888,-3.3864,-3.4503,-3.4934,-3.5179,-3.535,-3.5453,-3.5318,-3.4897,-3.4609,-3.4509,-3.4494,-3.4494,-3.4535,-3.4673,-3.4839,-3.4921,-3.5127,-3.5318,-3.5399,-3.5521,-3.5521,-3.5358,-3.5263,-3.5168,-3.4603,-3.379,-3.3027,-3.3979,-3.2846,-3.2841,-3.4027,-3.4838,-3.5168,-3.6009,-3.6168,-3.6024,-3.593,-3.528,-3.4623,-3.4525,-3.4481,-3.4849,-3.52,-3.5201,-3.5215,-3.5345,-3.4837,-3.4199,-3.359,-3.2866,-3.2907,-3.3079,-3.4179,-3.4831,-3.5076,-3.5346,-3.5346,-3.5562,-3.5535,-3.5602,-3.5749,-3.5707,-3.5465,-3.5211,-3.5047,-3.4771,-3.4535,-3.4147,-3.3755,-3.3725,-3.3705,-3.4112,-3.4025,-3.4778,-3.4794,-3.5528,-3.6569,-3.6631,-3.6076,-3.5278,-3.4987,-3.4573,-3.422,-3.4213,-3.4367,-3.4626,-3.5222,-3.5439,-3.5326,-3.5261,-3.5148,-3.5049,-3.4883,-3.4765,-3.4664,-3.4597,-3.4481,-3.4448,-3.4515,-3.4563,-3.4563,-3.4664,-3.4731,-3.4817,-3.4983,-3.5115,-3.5148,-3.5115,-3.4949,-3.4817,-3.4582,-3.4244,-3.3716,-3.3542,-3.3479,-3.3885,-3.4437,-3.492,-3.5176,-3.5057,-3.5157,-3.5048,-3.4411,-3.4204,-3.4264,-3.4314,-3.4243,-3.4285,-3.4369,-3.4465,-3.4507,-3.4701,-3.4895,-3.4908,-3.5195,-3.5318,-3.5318,-3.5304,-3.517,-3.4552,-3.3976,-3.3357,-3.3766,-3.2999,-3.3314,-3.392,-3.4414,-3.487,-3.5285,-3.5656,-3.5905,-3.6028,-3.528,-3.4681,-3.447,-3.4492,-3.4644,-3.4712,-3.471,-3.4758,-3.4819,-3.4131,-3.3357,-3.3195,-3.2777,-3.2962,-3.3185,-3.3962,-3.4688,-3.4949,-3.5031,-3.5031,-3.4951,-3.4939,-3.502,-3.5223,-3.5049,-3.4969,-3.4955,-3.4895,-3.4494,-3.4076,-3.381,-3.3556,-3.3356,-3.3429,-3.3821,-3.4129,-3.4517,-3.4503,-3.5199,-3.6244,-3.6352,-3.569,-3.4834,-3.4527,-3.4024,-3.3496,-3.3804,-3.4063,-3.4369,-3.4913,-3.5294,-3.518,-3.5148,-3.4983,-3.485,-3.4716,-3.4631,-3.4597,-3.4481,-3.4414,-3.4414,-3.4414,-3.438,-3.4414,-3.4597,-3.4664,-3.4683,-3.4817,-3.4902,-3.4935,-3.4835,-3.4635,-3.4467,-3.4278,-3.4054,-3.357,-3.3261,-3.3259,-3.3698,-3.4331,-3.4835,-3.5136,-3.4927,-3.4861,-3.4723,-3.4262,-3.3801,-3.4236,-3.4202,-3.4118,-3.4076,-3.4118,-3.416,-3.4285,-3.4522,-3.4743,-3.466,-3.5031,-3.5154,-3.5195,-3.5277,-3.5278,-3.4634,-3.4033,-3.3819,-3.3914,-3.3701,-3.3701,-3.3834,-3.4313,-3.4807,-3.4781,-3.5022,-3.556,-3.5474,-3.4977,-3.4744,-3.4576,-3.4444,-3.4531,-3.4224,-3.4208,-3.3914,-3.3895,-3.3522,-3.2995,-3.3103,-3.3067,-3.322,-3.3493,-3.3916,-3.4457,-3.466,-3.4618,-3.4535,-3.4432,-3.4301,-3.453,-3.4703,-3.4814,-3.4775,-3.4744,-3.4647,-3.423,-3.3852,-3.3556,-3.3356,-3.324,-3.3305,-3.3614,-3.306,-3.3999,-3.3955,-3.4636,-3.5693,-3.5816,-3.4979,-3.3785,-3.3586,-3.3217,-3.2926,-3.3277,-3.3896,-3.4578,-3.4846,-3.5082,-3.5082,-3.4931,-3.4765,-3.465,-3.4549,-3.4481,-3.4448,-3.4414,-3.438,-3.438,-3.438,-3.4278,-3.4264,-3.4515,-3.4597,-3.4515,-3.4668,-3.4902,-3.4802,-3.4601,-3.4448,-3.4346,-3.4137,-3.3821,-3.3452,-3.332,-3.3651,-3.409,-3.4521,-3.4923,-3.5251,-3.509,-3.4979,-3.4772,-3.447,-3.4277,-3.4356,-3.4243,-3.4118,-3.416,-3.4243,-3.4356,-3.4356,-3.4535,-3.4701,-3.4673,-3.5003,-3.5072,-3.5154,-3.5168,-3.5155,-3.4814,-3.416,-3.4069,-3.419,-3.3446,-3.3289,-3.3554,-3.4032,-3.4151,-3.4112,-3.4726,-3.5264,-3.5372,-3.5008,-3.487,-3.4761,-3.4574,-3.4374,-3.3989,-3.3628,-3.3359,-3.3043,-3.2739,-3.2655,-3.2789,-3.2988,-3.3138,-3.3643,-3.4064,-3.4251,-3.4439,-3.4285,-3.4118,-3.4027,-3.3978,-3.4085,-3.4272,-3.4397,-3.4577,-3.4577,-3.4356,-3.3937,-3.3598,-3.3356,-3.324,-3.3124,-3.3325,-3.3527,-3.2986,-3.3789,-3.3759,-3.4373,-3.5352,-3.5539,-3.4711,-3.3509,-3.3207,-3.302,-3.2926,-3.3051,-3.3839,-3.4937,-3.5115,-3.4983,-3.4916,-3.4765,-3.4563,-3.4448,-3.438,-3.438,-3.4414,-3.438,-3.438,-3.438,-3.438,-3.4278,-3.423,-3.423,-3.4312,-3.4298,-3.4366,-3.4501,-3.4601,-3.4366,-3.423,-3.4209,-3.4182,-3.4044,-3.3806,-3.3901,-3.4207,-3.4524,-3.4745,-3.5034,-3.5238,-3.5208,-3.5003,-3.4756,-3.4452,-3.4314,-3.4314,-3.4243,-3.416,-3.4507,-3.4285,-3.4243,-3.4243,-3.4369,-3.4452,-3.4618,-3.4784,-3.5044,-3.5195,-3.5277,-3.5331,-3.5304,-3.4696,-3.4614,-3.4815,-3.4171,-3.3712,-3.366,-3.3924,-3.3686,-3.3766,-3.4508,-3.5003,-3.5044,-3.506,-3.4821,-3.4631,-3.4415,-3.3917,-3.3246,-3.3003,-3.2799,-3.2539,-3.2233,-3.2277,-3.2502,-3.271,-3.2898,-3.3548,-3.4069,-3.4165,-3.4272,-3.4021,-3.3852,-3.3696,-3.3683,-3.3823,-3.3949,-3.4118,-3.4243,-3.4327,-3.4147,-3.3755,-3.3471,-3.3185,-3.3169,-3.3208,-3.3433,-3.3845,-3.29,-3.3592,-3.3726,-3.4334,-3.5133,-3.5228,-3.4486,-3.3157,-3.2926,-3.2895,-3.309,-3.3389,-3.4352,-3.5198,-3.5261,-3.5082,-3.4865,-3.4716,-3.4515,-3.438,-3.4312,-3.438,-3.438,-3.438,-3.438,-3.438,-3.4312,-3.423,-3.4142,-3.4108,-3.4074,-3.4059,-3.4142,-3.421,-3.4264,-3.4196,-3.4094,-3.398,-3.4299,-3.427,-3.42,-3.4613,-3.4903,-3.5071,-3.5148,-3.5209,-3.5386,-3.5277,-3.5086,-3.4756,-3.441,-3.4272,-3.4356,-3.4285,-3.4314,-3.4494,-3.4356,-3.4243,-3.4202,-3.4243,-3.4243,-3.441,-3.4701,-3.5044,-3.5236,-3.5399,-3.544,-3.5521,-3.5141,-3.4991,-3.5018,-3.4649,-3.3948,-3.3724,-3.3856,-3.3514,-3.3383,-3.416,-3.4729,-3.488,-3.4803,-3.4459,-3.4286,-3.4096,-3.3565,-3.2651,-3.2341,-3.2277,-3.21,-3.186,-3.2101,-3.2397,-3.2745,-3.3038,-3.3623,-3.4079,-3.4134,-3.4063,-3.3852,-3.3641,-3.3526,-3.3484,-3.3569,-3.3696,-3.3865,-3.3907,-3.3949,-3.3768,-3.3586,-3.3313,-3.3119,-3.3252,-3.3389,-3.3637,-3.4143,-3.2406,-3.3268,-3.3893,-3.4419,-3.4935,-3.4783,-3.4032,-3.2828,-3.264,-3.2672,-3.3006,-3.4233,-3.5056,-3.5377,-3.5326,-3.5195,-3.5129,-3.4831,-3.4664,-3.4563,-3.4481,-3.4414,-3.438,-3.438,-3.438,-3.4346,-3.423,-3.4162,-3.4094,-3.3971,-3.3951,-3.3917,-3.4074,-3.4094,-3.422,-3.4277,-3.4186,-3.417,-3.4555,-3.4732,-3.4862,-3.5246,-3.5704,-3.5899,-3.5937,-3.5857,-3.5683,-3.5467,-3.5156,-3.48,-3.4551,-3.4439,-3.4481,-3.4439,-3.4481,-3.4522,-3.4397,-3.4272,-3.4272,-3.4243,-3.4243,-3.4452,-3.4784,-3.5044,-3.5154,-3.5521,-3.5588,-3.5521,-3.5249,-3.5058,-3.488,-3.4513,-3.393,-3.3709,-3.3776,-3.3668,-3.3629,-3.3927,-3.4457,-3.4688,-3.4584,-3.4212,-3.3976,-3.3834,-3.3269,-3.2377,-3.1988,-3.1927,-3.1937,-3.1834,-3.2122,-3.2421,-3.2913,-3.3351,-3.3856,-3.4105,-3.4147,-3.4021,-3.3768,-3.3556,-3.3398,-3.3398,-3.3368,-3.3484,-3.3641,-3.3598,-3.3556,-3.3556,-3.3471,-3.3185,-3.3052,-3.3127,-3.3819,-3.4449,-3.4857,-3.2557,-3.3127,-3.3792,-3.4345,-3.4798,-3.4716,-3.3901,-3.2739,-3.2527,-3.2591,-3.2901,-3.4428,-3.5246,-3.5294,-3.5392,-3.5261,-3.5034,-3.4916,-3.4731,-3.4563,-3.4414,-3.4414,-3.438,-3.438,-3.4346,-3.423,-3.4128,-3.4094,-3.4094,-3.3951,-3.3971,-3.4005,-3.4094,-3.4162,-3.4268,-3.4517,-3.4652,-3.5032,-3.543,-3.5815,-3.5941,-3.6193,-3.6497,-3.6451,-3.6328,-3.5905,-3.5448,-3.552,-3.5171,-3.482,-3.4735,-3.4772,-3.4743,-3.466,-3.466,-3.466,-3.4452,-3.4314,-3.4384,-3.4314,-3.4314,-3.4452,-3.4825,-3.5072,-3.5113,-3.5575,-3.5723,-3.5642,-3.5372,-3.5127,-3.5003,-3.4634,-3.4177,-3.384,-3.3709,-3.3759,-3.3755,-3.3934,-3.3952,-3.4103,-3.4126,-3.3978,-3.3747,-3.3556,-3.2883,-3.2131,-3.1838,-3.1628,-3.1695,-3.1873,-3.2202,-3.2537,-3.3014,-3.3454,-3.3946,-3.4079,-3.4147,-3.3937,-3.3683,-3.3484,-3.3326,-3.324,-3.324,-3.3356,-3.3428,-3.3441,-3.3441,-3.3471,-3.33,-3.2982,-3.2885,-3.2945,-3.3826,-3.5036,-3.549,-3.2659,-3.3048,-3.3665,-3.4196,-3.4558,-3.4412,-3.3627,-3.2614,-3.2295,-3.248,-3.2949,-3.446,-3.5261,-3.5294,-3.5326,-3.5341,-3.5148,-3.5016,-3.4817,-3.4683,-3.4549,-3.4448,-3.438,-3.4312,-3.423,-3.4094,-3.4005,-3.3971,-3.4094,-3.3951,-3.4054,-3.4142,-3.4196,-3.4244,-3.4286,-3.4671,-3.5161,-3.5652,-3.6274,-3.6645,-3.6612,-3.6997,-3.7144,-3.6919,-3.6601,-3.6142,-3.5634,-3.5497,-3.5154,-3.4875,-3.4794,-3.4991,-3.4962,-3.488,-3.4825,-3.4701,-3.4535,-3.4243,-3.4314,-3.4314,-3.4314,-3.4369,-3.4701,-3.4949,-3.5168,-3.5494,-3.5521,-3.548,-3.5331,-3.5168,-3.5003,-3.4634,-3.419,-3.3799,-3.4047,-3.411,-3.3673,-3.3589,-3.3498,-3.345,-3.3344,-3.3145,-3.2813,-3.2599,-3.2594,-3.2196,-3.2339,-3.2049,-3.1831,-3.2045,-3.2383,-3.2717,-3.3116,-3.353,-3.3959,-3.3969,-3.3937,-3.3852,-3.3598,-3.3398,-3.324,-3.3167,-3.3124,-3.3197,-3.3283,-3.3326,-3.3313,-3.3313,-3.3013,-3.2667,-3.2883,-3.3207,-3.4144,-3.5245,-3.5712,-3.2492,-3.3063,-3.3475,-3.3941,-3.4288,-3.3794,-3.3122,-3.2396,-3.1961,-3.2192,-3.309,-3.4522,-3.5261,-3.5374,-3.5294,-3.5326,-3.5359,-3.5261,-3.5049,-3.485,-3.4683,-3.4549,-3.438,-3.423,-3.4128,-3.404,-3.3882,-3.3848,-3.4111,-3.3965,-3.4103,-3.4268,-3.4297,-3.4238,-3.4002,-3.4314,-3.4816,-3.5489,-3.637,-3.6575,-3.6812,-3.7353,-3.7529,-3.741,-3.6821,-3.6268,-3.6049,-3.5587,-3.5264,-3.5042,-3.5009,-3.5127,-3.5154,-3.4784,-3.4701,-3.4797,-3.441,-3.423,-3.4343,-3.4202,-3.4118,-3.4202,-3.459,-3.4839,-3.488,-3.5044,-3.5277,-3.5318,-3.5086,-3.4921,-3.4743,-3.4538,-3.4153,-3.406,-3.4293,-3.4249,-3.3786,-3.3465,-3.3383,-3.3275,-3.2593,-3.1996,-3.1662,-3.1523,-3.1941,-3.2176,-3.262,-3.2542,-3.215,-3.2188,-3.2531,-3.2998,-3.3315,-3.3524,-3.3846,-3.3771,-3.3725,-3.3641,-3.3556,-3.3356,-3.324,-3.3124,-3.3124,-3.3124,-3.3167,-3.3197,-3.3154,-3.3111,-3.3058,-3.3121,-3.3395,-3.3835,-3.4749,-3.5303,-3.5658,-3.1766,-3.226,-3.2796,-3.3343,-3.3736,-3.3605,-3.2893,-3.2019,-3.2186,-3.2531,-3.3067,-3.436,-3.5034,-3.5115,-3.5326,-3.5392,-3.5439,-3.5457,-3.5246,-3.4902,-3.475,-3.4582,-3.438,-3.421,-3.404,-3.3917,-3.3758,-3.3846,-3.437,-3.4041,-3.4329,-3.4617,-3.422,-3.4312,-3.4654,-3.4959,-3.5218,-3.6282,-3.6805,-3.7044,-3.7325,-3.7587,-3.7725,-3.7749,-3.6958,-3.6504,-3.6429,-3.5899,-3.5512,-3.5391,-3.5438,-3.5507,-3.5399,-3.5031,-3.4867,-3.4867,-3.4522,-3.4189,-3.4063,-3.3852,-3.3937,-3.416,-3.4465,-3.4714,-3.4797,-3.5113,-3.5236,-3.5236,-3.5003,-3.4921,-3.4949,-3.4605,-3.4282,-3.4282,-3.4384,-3.4259,-3.3978,-3.373,-3.353,-3.3356,-3.2869,-3.2737,-3.2431,-3.2269,-3.2485,-3.2379,-3.2799,-3.2849,-3.2533,-3.2525,-3.2746,-3.32,-3.3575,-3.3656,-3.3704,-3.3658,-3.3556,-3.3484,-3.3441,-3.3356,-3.324,-3.3081,-3.3081,-3.3081,-3.3081,-3.3124,-3.3068,-3.3113,-3.3464,-3.3662,-3.3642,-3.3854,-3.4443,-3.4883,-3.5223,-3.1644,-3.2167,-3.2715,-3.303,-3.3169,-3.3169,-3.253,-3.1851,-3.2457,-3.2915,-3.339,-3.4347,-3.4868,-3.4968,-3.5096,-3.5261,-3.5294,-3.5294,-3.5162,-3.485,-3.4765,-3.4515,-3.4312,-3.4108,-3.3951,-3.3779,-3.3648,-3.3727,-3.3988,-3.388,-3.4082,-3.4245,-3.3895,-3.4114,-3.4593,-3.491,-3.5284,-3.6245,-3.6738,-3.7053,-3.7299,-3.751,-3.7663,-3.7443,-3.7,-3.6425,-3.6465,-3.6203,-3.5769,-3.5819,-3.5806,-3.5831,-3.5521,-3.5195,-3.4949,-3.4825,-3.4605,-3.4189,-3.3839,-3.3852,-3.3949,-3.3949,-3.434,-3.4548,-3.4673,-3.4825,-3.4949,-3.4949,-3.4949,-3.4908,-3.4825,-3.4439,-3.4439,-3.4384,-3.4343,-3.4259,-3.4095,-3.3846,-3.3431,-3.3297,-3.3073,-3.3127,-3.3284,-3.3399,-3.3381,-3.3178,-3.2947,-3.2918,-3.2902,-3.2877,-3.2895,-3.3314,-3.3573,-3.3602,-3.356,-3.3513,-3.3398,-3.3326,-3.324,-3.3142,-3.2982,-3.2822,-3.2909,-3.2995,-3.3038,-3.3081,-3.3025,-3.3158,-3.3333,-3.3405,-3.331,-3.364,-3.41,-3.4597,-3.501,-3.2063,-3.2674,-3.3187,-3.2991,-3.2542,-3.2556,-3.2288,-3.1934,-3.2593,-3.3289,-3.4024,-3.4427,-3.4783,-3.485,-3.4798,-3.4831,-3.4968,-3.4968,-3.485,-3.4765,-3.4698,-3.4448,-3.423,-3.4054,-3.3882,-3.3654,-3.3508,-3.3424,-3.3396,-3.3593,-3.3783,-3.3746,-3.3354,-3.3732,-3.4205,-3.4565,-3.5066,-3.594,-3.6547,-3.6797,-3.7046,-3.7204,-3.7324,-3.711,-3.6576,-3.6421,-3.6339,-3.6093,-3.5812,-3.5714,-3.569,-3.5534,-3.5223,-3.4771,-3.4714,-3.4632,-3.4535,-3.4189,-3.3894,-3.3992,-3.401,-3.4007,-3.4017,-3.4215,-3.4369,-3.4494,-3.4618,-3.466,-3.4618,-3.4577,-3.4452,-3.4452,-3.4397,-3.4397,-3.4397,-3.4246,-3.4069,-3.3788,-3.3351,-3.3046,-3.2844,-3.2911,-3.3354,-3.3586,-3.3947,-3.3698,-3.3399,-3.3168,-3.3177,-3.3136,-3.314,-3.3233,-3.3471,-3.3428,-3.3398,-3.3227,-3.3111,-3.2982,-3.2853,-3.2766,-3.2636,-3.2605,-3.2692,-3.2779,-3.2952,-3.2982,-3.2939,-3.2959,-3.3089,-3.3128,-3.3416,-3.3698,-3.4252,-3.4626,-3.4978,-3.1051,-3.1283,-3.1833,-3.1961,-3.1888,-3.2451,-3.2696,-3.2765,-3.3353,-3.3844,-3.4021,-3.4519,-3.4599,-3.475,-3.4731,-3.4783,-3.485,-3.4902,-3.4817,-3.4765,-3.4631,-3.4515,-3.4312,-3.4108,-3.3951,-3.3744,-3.3543,-3.3339,-3.3459,-3.3565,-3.3366,-3.3213,-3.2966,-3.339,-3.3765,-3.3959,-3.4786,-3.5571,-3.6177,-3.6496,-3.6646,-3.6761,-3.6878,-3.6712,-3.6333,-3.6298,-3.6459,-3.6399,-3.6269,-3.6448,-3.6067,-3.579,-3.5548,-3.5031,-3.4714,-3.4494,-3.4397,-3.4259,-3.4063,-3.4034,-3.4108,-3.4118,-3.4016,-3.3962,-3.4105,-3.4269,-3.4353,-3.4494,-3.4494,-3.4452,-3.4494,-3.4494,-3.4452,-3.4439,-3.4439,-3.4343,-3.422,-3.41,-3.3674,-3.3664,-3.3366,-3.3569,-3.391,-3.4125,-3.4391,-3.415,-3.3856,-3.3597,-3.3361,-3.3292,-3.3202,-3.3227,-3.324,-3.3185,-3.3013,-3.2853,-3.2723,-3.2605,-3.2506,-3.2419,-3.2431,-3.2388,-3.2475,-3.2562,-3.2736,-3.281,-3.281,-3.2872,-3.3086,-3.3617,-3.3924,-3.4129,-3.4364,-3.4678,-3.4932,-3.0743,-3.0988,-3.1351,-3.1801,-3.2341,-3.2908,-3.336,-3.3694,-3.3667,-3.3743,-3.3977,-3.3885,-3.4003,-3.406,-3.4155,-3.4305,-3.4534,-3.4534,-3.4549,-3.4582,-3.4559,-3.438,-3.423,-3.4162,-3.4005,-3.3813,-3.3529,-3.3226,-3.3251,-3.3097,-3.2885,-3.2781,-3.2668,-3.3243,-3.3796,-3.4079,-3.4546,-3.5263,-3.5844,-3.6218,-3.6316,-3.6356,-3.6515,-3.6476,-3.6131,-3.6282,-3.6675,-3.6637,-3.6632,-3.6802,-3.6336,-3.5884,-3.5562,-3.499,-3.4618,-3.4439,-3.4397,-3.4356,-3.4202,-3.4118,-3.4253,-3.4255,-3.4012,-3.4084,-3.4159,-3.4312,-3.446,-3.4618,-3.4535,-3.4452,-3.4507,-3.4548,-3.4535,-3.4535,-3.4481,-3.4439,-3.4439,-3.4452,-3.4426,-3.4426,-3.447,-3.4609,-3.4758,-3.488,-3.4756,-3.441,-3.4034,-3.3755,-3.345,-3.3232,-3.3086,-3.3013,-3.2939,-3.2896,-3.2692,-3.255,-3.2419,-3.2288,-3.2169,-3.2125,-3.2125,-3.2213,-3.2257,-3.2388,-3.2531,-3.2587,-3.2655,-3.2943,-3.3171,-3.3741,-3.4163,-3.4362,-3.4474,-3.4679,-3.4848,-3.0932,-3.1395,-3.1453,-3.2152,-3.3362,-3.3477,-3.3976,-3.4633,-3.3606,-3.3416,-3.3782,-3.3196,-3.3129,-3.3444,-3.3616,-3.3868,-3.4225,-3.436,-3.4428,-3.439,-3.4412,-3.4301,-3.4157,-3.4094,-3.4025,-3.3813,-3.3515,-3.3107,-3.2674,-3.2518,-3.2464,-3.2422,-3.2561,-3.3157,-3.3984,-3.4047,-3.4421,-3.4899,-3.5399,-3.5764,-3.5991,-3.6163,-3.6334,-3.6362,-3.6063,-3.5917,-3.6507,-3.6549,-3.6294,-3.6465,-3.6375,-3.5831,-3.5277,-3.4812,-3.4522,-3.4397,-3.4397,-3.4397,-3.4314,-3.4243,-3.4263,-3.4134,-3.3904,-3.4191,-3.4323,-3.4283,-3.4379,-3.4706,-3.4703,-3.4533,-3.4494,-3.4369,-3.4327,-3.4544,-3.4651,-3.4758,-3.4921,-3.4923,-3.4912,-3.4901,-3.4908,-3.5031,-3.4949,-3.5003,-3.4825,-3.4481,-3.4202,-3.3878,-3.3569,-3.327,-3.3142,-3.2927,-3.281,-3.2723,-3.2519,-3.2332,-3.2113,-3.1937,-3.1849,-3.1849,-3.1893,-3.1994,-3.2081,-3.2213,-3.2313,-3.2442,-3.2565,-3.291,-3.332,-3.3706,-3.4134,-3.4497,-3.4643,-3.4788,-3.4909,-3.0745,-3.0965,-3.0965,-3.1725,-3.2835,-3.2954,-3.3399,-3.3958,-3.3871,-3.377,-3.3903,-3.3577,-3.3318,-3.3215,-3.3332,-3.3632,-3.407,-3.4361,-3.4502,-3.4445,-3.4364,-3.4235,-3.4131,-3.4059,-3.4059,-3.3888,-3.3528,-3.2931,-3.2472,-3.2236,-3.2303,-3.2785,-3.2814,-3.3216,-3.4238,-3.423,-3.4202,-3.4696,-3.4996,-3.5305,-3.5507,-3.5289,-3.5254,-3.5327,-3.5168,-3.5034,-3.5485,-3.5909,-3.5861,-3.6035,-3.6064,-3.5629,-3.4962,-3.4605,-3.4439,-3.4397,-3.4356,-3.4314,-3.4314,-3.4311,-3.4344,-3.4331,-3.4242,-3.4371,-3.4388,-3.4215,-3.4276,-3.4669,-3.4821,-3.4612,-3.4452,-3.4298,-3.4199,-3.4497,-3.4821,-3.5079,-3.5336,-3.537,-3.5374,-3.5312,-3.5276,-3.5195,-3.5154,-3.499,-3.4812,-3.4564,-3.4285,-3.3992,-3.3696,-3.3441,-3.3411,-3.3197,-3.2853,-3.268,-3.2388,-3.2213,-3.1981,-3.1849,-3.1761,-3.1761,-3.1705,-3.1805,-3.1893,-3.1994,-3.2094,-3.232,-3.2674,-3.3177,-3.3538,-3.381,-3.4197,-3.4631,-3.48,-3.4921,-3.5005,-3.0672,-3.0835,-3.1128,-3.164,-3.2253,-3.2555,-3.2922,-3.3249,-3.3325,-3.3228,-3.3042,-3.2915,-3.2954,-3.3042,-3.3129,-3.3545,-3.4041,-3.437,-3.4318,-3.4255,-3.4217,-3.4096,-3.4037,-3.4005,-3.4005,-3.3854,-3.3269,-3.2717,-3.2359,-3.2388,-3.2658,-3.3033,-3.301,-3.3496,-3.4537,-3.4303,-3.4074,-3.4746,-3.4794,-3.4847,-3.5007,-3.4928,-3.4942,-3.4966,-3.468,-3.4496,-3.4594,-3.5096,-3.5291,-3.556,-3.5809,-3.5534,-3.499,-3.4535,-3.4285,-3.4202,-3.4147,-3.4092,-3.4134,-3.4241,-3.4344,-3.4292,-3.4233,-3.4263,-3.4543,-3.4383,-3.4241,-3.4593,-3.4622,-3.4439,-3.4457,-3.4341,-3.4331,-3.4523,-3.4786,-3.5025,-3.5392,-3.5647,-3.5501,-3.5343,-3.5318,-3.5318,-3.5236,-3.5113,-3.4949,-3.4908,-3.459,-3.4437,-3.4089,-3.3683,-3.3611,-3.3454,-3.3099,-3.2593,-3.2213,-3.2081,-3.195,-3.1805,-3.1797,-3.1705,-3.1705,-3.1705,-3.1761,-3.1934,-3.2136,-3.2345,-3.2756,-3.3312,-3.3699,-3.3921,-3.4378,-3.4836,-3.492,-3.4957,-3.5053,-3.0789,-3.0953,-3.1437,-3.1744,-3.186,-3.2198,-3.2431,-3.2616,-3.2547,-3.2273,-3.1902,-3.1858,-3.2326,-3.2677,-3.2778,-3.3378,-3.3863,-3.4286,-3.42,-3.4008,-3.388,-3.388,-3.3893,-3.3862,-3.3813,-3.3626,-3.3157,-3.2878,-3.2582,-3.2725,-3.2945,-3.3254,-3.3669,-3.4214,-3.4784,-3.456,-3.3998,-3.4365,-3.4471,-3.4339,-3.4496,-3.4772,-3.4965,-3.4846,-3.4446,-3.4246,-3.427,-3.4329,-3.4585,-3.5089,-3.553,-3.5373,-3.5031,-3.4494,-3.4243,-3.4076,-3.3937,-3.3839,-3.3797,-3.3949,-3.4004,-3.4017,-3.4034,-3.4146,-3.4439,-3.4405,-3.4221,-3.4256,-3.4272,-3.4324,-3.4328,-3.4335,-3.4312,-3.4582,-3.4842,-3.5178,-3.5566,-3.5865,-3.5666,-3.5439,-3.5318,-3.5318,-3.5195,-3.5072,-3.5071,-3.5084,-3.4989,-3.492,-3.4671,-3.4215,-3.3894,-3.3696,-3.3398,-3.2884,-3.2442,-3.2138,-3.2094,-3.2051,-3.2031,-3.1834,-3.1705,-3.1705,-3.1789,-3.1982,-3.2163,-3.2512,-3.2901,-3.3454,-3.3731,-3.3995,-3.427,-3.4592,-3.464,-3.47,-3.4927,-3.1275,-3.1176,-3.1042,-3.1364,-3.188,-3.1795,-3.1714,-3.1847,-3.2266,-3.215,-3.1629,-3.1586,-3.1896,-3.2396,-3.2518,-3.3078,-3.3973,-3.426,-3.4168,-3.3933,-3.3847,-3.3804,-3.3698,-3.357,-3.3536,-3.3382,-3.3262,-3.3286,-3.3197,-3.3252,-3.3608,-3.4193,-3.3647,-3.3896,-3.4034,-3.3762,-3.3564,-3.3881,-3.4001,-3.3914,-3.382,-3.415,-3.4772,-3.4455,-3.382,-3.3874,-3.3926,-3.3854,-3.4224,-3.4761,-3.5237,-3.5278,-3.4949,-3.4494,-3.4118,-3.3949,-3.3768,-3.3641,-3.3641,-3.3725,-3.3768,-3.3768,-3.3781,-3.3709,-3.3858,-3.3803,-3.3738,-3.3823,-3.3852,-3.3852,-3.387,-3.382,-3.3875,-3.4637,-3.5115,-3.5647,-3.6114,-3.5993,-3.5826,-3.5449,-3.5072,-3.4908,-3.4647,-3.4684,-3.4829,-3.4802,-3.471,-3.4667,-3.4921,-3.458,-3.4147,-3.3937,-3.3725,-3.3728,-3.3533,-3.2574,-3.2393,-3.2345,-3.2289,-3.2071,-3.1918,-3.1729,-3.1837,-3.2238,-3.2493,-3.2771,-3.3228,-3.3577,-3.3755,-3.3991,-3.4071,-3.4223,-3.431,-3.4464,-3.4686]},{"header":{"parameterUnit":"m.s-1","parameterCategory":1,"la1":31.0,"la2":29.5877,"lo1":-88.7671,"lo2":-86.6584,"dy":0.0162,"dx":0.0185,"nx":115,"ny":88,"refTime":"2024-04-23T12:00:00:Z","depth":0,"parameterNumber":3,"parameterNumberName":"V-component_of_WINDS"},"data":[0.0,0.0,0.0,0.0,0.0,0.0,0.0,0.0,0.0,0.0,0.0,0.0,0.0,0.0,0.0,0.0,0.0,0.0,0.0,0.0,0.0,0.0,0.0,0.0,0.0,0.0,0.0,0.0,0.0,0.0,0.0,0.0,0.0,0.0,0.0,0.0,0.0,0.0,0.0,0.0,0.0,0.0,0.0,0.0,0.0,0.0,0.0,0.0,0.0,0.0,0.0,0.0,0.0,0.0,0.0,0.0,0.0,0.0,0.0,0.0,0.0,0.0,0.0,0.0,0.0,0.0,0.0,0.0,0.0,0.0,0.0,0.0,0.0,0.0,0.0,0.0,0.0,0.0,0.0,0.0,0.0,0.0,0.0,0.0,0.0,0.0,0.0,0.0,0.0,0.0,0.0,0.0,0.0,0.0,0.0,0.0,0.0,0.0,0.0,0.0,0.0,0.0,0.0,0.0,0.0,0.0,0.0,0.0,0.0,0.0,0.0,0.0,0.0,0.0,0.0,0.0,0.0,0.0,0.0,0.0,0.0,0.0,0.0,0.0,0.0,0.0,0.0,0.0,0.0,0.0,0.0,0.0,0.0,0.0,0.0,0.0,0.0,0.0,0.0,0.0,0.0,0.0,0.0,0.0,0.0,0.0,0.0,0.0,0.0,0.0,0.0,0.0,0.0,0.0,0.0,0.0,0.0,0.0,0.0,0.0,0.0,0.0,0.0,0.0,0.0,0.0,0.0,0.0,0.0,0.0,0.0,0.0,0.0,0.0,0.0,0.0,0.0,0.0,0.0,0.0,0.0,0.0,0.0,0.0,0.0,0.0,0.0,0.0,0.0,0.0,0.0,0.0,0.0,0.0,0.0,0.0,0.0,0.0,0.0,0.0,0.0,0.0,0.0,0.0,0.0,0.0,0.0,0.0,0.0,0.0,0.0,0.0,0.0,0.0,0.0,0.0,0.0,0.0,0.0,0.0,0.0,0.0,0.0,0.0,0.0,0.0,0.0,0.0,0.0,0.0,0.0,0.0,0.0,0.0,0.0,0.0,0.0,0.0,0.0,0.0,0.0,0.0,0.0,0.0,0.0,0.0,0.0,0.0,0.0,0.0,0.0,0.0,0.0,0.0,0.0,0.0,0.0,0.0,0.0,0.0,0.0,0.0,0.0,0.0,0.0,0.0,0.0,0.0,0.0,0.0,0.0,0.0,0.0,0.0,0.0,0.0,0.0,0.0,0.0,0.0,0.0,0.0,0.0,0.0,0.0,0.0,0.0,0.0,0.0,0.0,0.0,0.0,0.0,0.0,0.0,0.0,0.0,0.0,0.0,0.0,0.0,0.0,0.0,0.0,0.0,0.0,0.0,0.0,0.0,0.0,0.0,0.0,0.0,0.0,0.0,0.0,0.0,0.0,0.0,0.0,0.0,0.0,0.0,0.0,0.0,0.0,0.0,0.0,0.0,0.0,0.0,0.0,0.0,0.0,0.0,0.0,0.0,0.0,0.0,0.0,0.0,0.0,0.0,0.0,0.0,0.0,0.0,0.0,0.0,0.0,0.0,0.0,0.0,0.0,0.0,0.0,0.0,0.0,0.0,0.0,0.0,0.0,0.0,0.0,0.0,0.0,0.0,0.0,0.0,0.0,0.0,0.0,0.0,0.0,0.0,0.0,0.0,0.0,0.0,0.0,0.0,0.0,0.0,0.0,0.0,0.0,0.0,0.0,0.0,0.0,0.0,0.0,0.0,0.0,0.0,0.0,0.0,0.0,0.0,0.0,0.0,0.0,0.0,0.0,0.0,0.0,0.0,0.0,0.0,0.0,0.0,0.0,0.0,0.0,0.0,0.0,0.0,0.0,0.0,0.0,0.0,0.0,0.0,0.0,0.0,0.0,0.0,0.0,0.0,0.0,0.0,0.0,0.0,0.0,0.0,0.0,0.0,0.0,0.0,0.0,0.0,0.0,0.0,0.0,0.0,0.0,0.0,0.0,0.0,0.0,0.0,0.0,0.0,0.0,0.0,0.0,0.0,0.0,0.0,0.0,0.0,0.0,0.0,0.0,0.0,0.0,0.0,0.0,0.0,0.0,0.0,0.0,0.0,0.0,0.0,0.0,0.0,0.0,0.0,0.0,0.0,0.0,0.0,0.0,0.0,0.0,0.0,0.0,0.0,0.0,0.0,0.0,0.0,0.0,0.0,0.0,0.0,0.0,0.0,0.0,0.0,0.0,0.0,0.0,0.0,0.0,0.0,0.0,0.0,0.0,0.0,0.0,0.0,0.0,0.0,0.0,0.0,0.0,0.0,0.0,0.0,0.0,0.0,0.0,0.0,0.0,0.0,0.0,0.0,0.0,0.0,0.0,0.0,0.0,0.0,0.0,0.0,0.0,0.0,0.0,0.0,0.0,0.0,0.0,0.0,0.0,0.0,0.0,0.0,0.0,0.0,0.0,0.0,0.0,0.0,0.0,0.0,0.0,0.0,0.0,0.0,0.0,0.0,0.0,0.0,0.0,0.0,0.0,0.0,0.0,0.0,0.0,0.0,0.0,0.0,0.0,0.0,0.0,0.0,0.0,0.0,0.0,0.0,0.0,0.0,0.0,0.0,0.0,0.0,0.0,0.0,0.0,0.0,0.0,0.0,0.0,0.0,0.0,0.0,0.0,0.0,0.0,0.0,0.0,0.0,0.0,0.0,0.0,0.0,0.0,0.0,0.0,0.0,0.0,0.0,0.0,0.0,0.0,0.0,0.0,0.0,0.0,0.0,0.0,0.0,0.0,0.0,0.0,0.0,0.0,0.0,0.0,0.0,0.0,0.0,0.0,0.0,0.0,0.0,0.0,0.0,0.0,0.0,0.0,0.0,0.0,0.0,0.0,0.0,0.0,0.0,0.0,0.0,0.0,0.0,0.0,0.0,0.0,0.0,0.0,0.0,0.0,0.0,0.0,0.0,0.0,0.0,0.0,0.0,0.0,0.0,0.0,0.0,0.0,0.0,0.0,0.0,0.0,0.0,0.0,0.0,0.0,0.0,0.0,0.0,0.0,0.0,0.0,0.0,0.0,0.0,0.0,0.0,0.0,0.0,0.0,0.0,0.0,0.0,0.0,0.0,0.0,0.0,0.0,0.0,0.0,0.0,0.0,0.0,0.0,0.0,0.0,0.0,0.0,0.0,0.0,0.0,0.0,0.0,0.0,0.0,0.0,0.0,0.0,0.0,0.0,0.0,0.0,0.0,0.0,0.0,0.0,0.0,0.0,0.0,0.0,0.0,0.0,0.0,0.0,0.0,0.0,0.0,0.0,0.0,0.0,0.0,0.0,0.0,0.0,0.0,0.0,0.0,0.0,0.0,0.0,0.0,0.0,0.0,0.0,0.0,0.0,0.0,0.0,0.0,0.0,0.0,0.0,0.0,0.0,0.0,0.0,0.0,0.0,0.0,0.0,0.0,0.0,0.0,0.0,0.0,0.0,0.0,0.0,0.0,0.0,0.0,0.0,0.0,0.0,0.0,0.0,0.0,0.0,0.0,0.0,0.0,0.0,0.0,0.0,0.0,0.0,0.0,0.0,0.0,0.0,0.0,0.0,0.0,0.0,0.0,0.0,0.0,0.0,0.0,0.0,0.0,0.0,0.0,0.0,0.0,0.0,0.0,0.0,0.0,0.0,0.0,0.0,0.0,0.0,0.0,0.0,0.0,0.0,0.0,0.0,0.0,0.0,0.0,0.0,0.0,0.0,0.0,0.0,0.0,0.0,0.0,0.0,0.0,0.0,0.0,0.0,0.0,0.0,0.0,0.0,0.0,0.0,0.0,0.0,0.0,0.0,0.0,0.0,0.0,0.0,0.0,0.0,0.0,0.0,0.0,0.0,0.0,0.0,0.0,0.0,0.0,0.0,0.0,0.0,0.0,0.0,0.0,0.0,0.0,0.0,0.0,0.0,0.0,0.0,0.0,0.0,0.0,0.0,0.0,0.0,0.0,0.0,0.0,0.0,0.0,0.0,0.0,0.0,0.0,0.0,0.0,0.0,0.0,0.0,0.0,0.0,0.0,0.0,0.0,0.0,0.0,0.0,0.0,0.0,0.0,0.0,0.0,0.0,0.0,0.0,0.0,0.0,0.0,0.0,0.0,0.0,0.0,0.0,0.0,0.0,0.0,0.0,0.0,0.0,0.0,0.0,0.0,0.0,0.0,0.0,0.0,0.0,0.0,0.0,0.0,0.0,0.0,0.0,0.0,0.0,0.0,0.0,0.0,0.0,0.0,0.0,0.0,0.0,0.0,0.0,1.3979,0.0,0.0,0.0,0.0,0.0,0.0,0.0,0.0,0.0,0.0,0.0,0.0,0.0,0.0,0.0,0.0,0.0,0.0,0.0,0.0,0.0,0.0,0.0,0.0,0.0,0.0,0.0,0.0,0.0,0.0,0.0,0.0,0.0,0.0,0.0,0.0,0.0,0.0,0.0,0.0,0.0,0.0,0.0,0.0,0.0,0.0,0.0,0.0,0.0,0.0,0.0,0.0,0.0,0.0,0.0,0.0,0.0,0.0,0.0,0.0,0.0,0.0,0.0,0.0,0.0,0.0,0.0,0.0,0.0,0.0,0.0,0.0,0.0,0.0,0.0,0.0,0.0,0.0,0.0,0.0,0.0,0.0,0.0,0.0,0.0,0.0,0.0,0.0,0.0,0.0,0.0,0.0,0.0,0.0,0.0,0.0,0.0,0.0,0.0,0.0,0.0,0.0,0.0,0.0,0.0,0.0,0.0,0.0,0.0,0.0,1.47,1.4484,1.3784,1.3709,1.4318,0.0,0.0,0.0,0.0,0.0,0.0,0.0,0.0,0.0,0.0,0.0,0.0,0.0,0.0,0.0,0.0,0.0,0.0,0.0,0.0,0.0,0.0,0.0,0.0,0.0,0.0,0.0,0.0,0.0,0.0,0.0,0.0,0.0,0.0,0.0,0.0,0.0,0.0,0.0,0.0,0.0,0.0,0.0,0.0,0.0,0.0,0.0,0.0,0.0,0.0,0.0,0.0,0.0,0.0,0.0,0.0,0.0,0.0,0.0,0.0,0.0,0.0,0.0,0.0,0.0,0.0,0.0,0.0,0.0,0.0,0.0,0.0,0.0,0.0,0.0,0.0,0.0,0.0,0.0,0.0,0.0,0.0,0.0,0.0,0.0,0.0,0.0,0.0,0.0,0.0,0.0,0.0,0.0,0.0,0.0,0.0,0.0,0.0,0.0,0.0,0.0,0.0,0.0,0.0,0.0,0.0,0.0,0.0,0.0,0.0,0.0,0.0,1.4302,1.4152,1.4502,0.0,0.0,0.0,0.0,0.0,0.0,0.0,0.0,0.0,0.0,0.0,0.0,0.0,0.0,0.0,0.0,0.0,0.0,0.0,0.0,0.0,0.0,0.0,0.0,0.0,0.0,0.0,0.0,0.0,0.0,0.0,0.0,0.0,0.0,0.0,0.0,0.0,0.0,0.0,0.0,0.0,0.0,0.0,0.0,0.0,0.0,0.0,0.0,0.0,0.0,0.0,0.0,0.0,0.0,0.0,0.0,0.0,0.0,0.0,0.0,0.0,0.0,0.0,0.0,0.0,0.0,0.0,0.0,0.0,0.0,0.0,0.0,0.0,0.0,0.0,0.0,0.0,0.0,0.0,0.0,0.0,0.0,0.0,0.0,0.0,0.0,0.0,0.0,0.0,0.0,0.0,0.0,0.0,0.0,0.0,0.0,0.0,0.0,0.0,0.0,0.0,0.0,0.0,0.0,0.0,0.0,0.0,0.0,0.0,0.0,1.6069,1.5041,1.4839,0.0,1.4289,0.0,0.0,0.0,0.0,0.0,0.0,0.0,0.0,0.0,0.0,0.0,0.0,0.0,0.0,0.0,0.0,0.0,0.0,0.0,0.0,0.0,0.0,0.0,0.0,0.0,0.0,0.0,0.0,0.0,0.0,0.0,0.0,0.0,0.0,0.0,0.0,0.0,0.0,0.0,0.0,0.0,0.0,0.0,0.0,0.0,0.0,0.0,0.0,0.0,0.0,0.0,0.0,0.0,0.0,0.0,0.0,0.0,0.0,0.0,0.0,0.0,0.0,0.0,0.0,0.0,0.0,0.0,0.0,0.0,0.0,0.0,0.0,0.0,0.0,0.0,0.0,0.0,0.0,0.0,0.0,0.0,0.0,0.0,0.0,0.0,0.0,0.0,0.0,0.0,0.0,0.0,0.0,0.0,0.0,0.0,0.0,0.0,0.0,0.0,0.0,0.0,0.0,0.0,0.0,0.0,0.0,0.0,0.0,0.0,0.0,1.6027,1.52,1.4759,1.4667,0.0,0.0,0.0,0.0,0.0,0.0,0.0,0.0,0.0,0.0,0.0,0.0,0.0,0.0,0.0,0.0,0.0,0.0,0.0,0.0,0.0,0.0,0.0,0.0,0.0,0.0,0.0,0.0,0.0,0.0,0.0,0.0,0.0,0.0,0.0,0.0,0.0,0.0,0.0,0.0,0.0,0.0,0.0,0.0,0.0,0.0,0.0,0.0,0.0,0.0,0.0,0.0,0.0,0.0,0.0,0.0,0.0,0.0,0.0,0.0,0.0,0.0,0.0,0.0,0.0,0.0,0.0,0.0,0.0,0.0,0.0,0.0,0.0,0.0,0.0,0.0,0.0,0.0,0.0,0.0,0.0,0.0,0.0,0.0,0.0,0.0,0.0,0.0,0.0,0.0,0.0,0.0,0.0,0.0,0.0,0.0,0.0,0.0,0.0,0.0,0.0,0.0,0.0,0.0,0.0,0.0,0.0,0.0,0.0,0.0,1.6924,1.6091,1.514,1.4909,1.4914,1.5211,0.0,0.0,0.0,0.0,0.0,0.0,0.0,0.0,0.0,0.0,0.0,0.0,0.0,0.0,0.0,0.0,0.0,0.0,0.0,0.0,0.0,0.0,0.0,0.0,0.0,0.0,0.0,0.0,0.0,0.0,0.0,0.0,0.0,0.0,0.0,0.0,0.0,0.0,0.0,0.0,0.0,0.0,0.0,0.0,0.0,0.0,0.0,0.0,0.0,0.0,0.0,0.0,0.0,0.0,0.0,0.0,0.0,0.0,0.0,0.0,0.0,0.0,0.0,0.0,0.0,0.0,0.0,0.0,0.0,0.0,0.0,0.0,0.0,0.0,0.0,0.0,0.0,0.0,0.0,0.0,0.0,0.0,0.0,0.0,0.0,0.0,0.0,0.0,0.0,0.0,0.0,0.0,0.0,0.0,0.0,0.0,0.0,0.0,0.0,0.0,0.0,0.0,0.0,0.0,0.0,0.0,0.0,0.0,1.756,1.7388,1.6477,1.4743,1.5449,1.5474,0.0,0.0,0.0,0.0,0.0,0.0,0.0,0.0,0.0,0.0,0.0,0.0,0.0,0.0,0.0,0.0,0.0,0.0,0.0,0.0,0.0,0.0,0.0,0.0,0.0,0.0,0.0,0.0,0.0,0.0,0.0,0.0,0.0,0.0,0.0,0.0,0.0,0.0,0.0,0.0,0.0,0.0,0.0,0.0,0.0,0.0,0.0,0.0,0.0,0.0,0.0,0.0,0.0,0.0,0.0,0.0,0.0,0.0,0.0,0.0,0.0,0.0,0.0,0.0,0.0,0.0,0.0,0.0,0.0,0.0,0.0,0.0,0.0,0.0,0.0,0.0,0.0,0.0,0.0,0.0,0.0,0.0,0.0,0.0,0.0,0.0,0.0,0.0,0.0,0.0,0.0,0.0,0.0,0.0,0.0,0.0,0.0,0.0,0.0,0.0,0.0,0.0,0.0,0.0,0.0,0.0,0.0,0.0,0.0,1.8431,1.6592,1.5325,1.4749,1.4303,1.4231,0.0,0.0,0.0,0.0,0.0,0.0,0.0,0.0,0.0,0.0,0.0,0.0,0.0,0.0,0.0,0.0,0.0,0.0,0.0,0.0,0.0,0.0,0.0,0.0,0.0,0.0,0.0,0.0,0.0,0.0,0.0,0.0,0.0,0.0,0.0,0.0,0.0,0.0,0.0,0.0,0.0,0.0,0.0,0.0,0.0,0.0,0.0,0.0,0.0,0.0,0.0,0.0,0.0,0.0,0.0,0.0,0.0,0.0,0.0,0.0,0.0,0.0,0.0,0.0,0.0,0.0,0.0,0.0,0.0,0.0,0.0,0.0,0.0,0.0,0.0,0.0,0.0,0.0,0.0,0.0,0.0,0.0,0.0,0.0,0.0,0.0,0.0,0.0,0.0,0.0,0.0,0.0,0.0,0.0,0.0,0.0,0.0,0.0,0.0,0.0,0.0,0.0,0.0,0.0,0.0,0.0,0.0,0.0,0.0,1.8439,0.0,1.4689,1.4259,1.3737,1.381,0.0,0.0,0.0,0.0,0.0,0.0,0.0,0.0,0.0,0.0,0.0,0.0,0.0,0.0,0.0,0.0,0.0,0.0,0.0,0.0,0.0,0.0,0.0,0.0,0.0,0.0,0.0,0.0,0.0,0.0,0.0,0.0,0.0,0.0,0.0,0.0,0.0,0.0,0.0,0.0,0.0,0.0,0.0,0.0,0.0,0.0,0.0,0.0,0.0,0.0,0.0,0.0,0.0,0.0,0.0,0.0,0.0,0.0,0.0,0.0,0.0,0.0,0.0,0.0,0.0,0.0,0.0,0.0,0.0,0.0,0.0,0.0,0.0,0.0,0.0,0.0,0.0,0.0,0.0,0.0,0.0,0.0,0.0,0.0,0.0,0.0,0.0,0.0,0.0,0.0,0.0,0.0,0.0,0.0,0.0,0.0,0.0,0.0,0.0,0.0,0.0,0.0,0.0,0.0,0.0,0.0,0.0,0.0,1.9587,1.7475,1.6027,1.4623,1.3304,1.4074,1.4367,0.0,0.0,0.0,0.0,0.0,0.0,0.0,0.0,0.0,0.0,0.0,0.0,0.0,0.0,0.0,0.0,0.0,0.0,0.0,0.0,0.0,0.0,0.0,0.0,0.0,0.0,0.0,0.0,0.0,0.0,0.0,0.0,0.0,0.0,0.0,0.0,0.0,0.0,0.0,0.0,0.0,0.0,0.0,0.0,0.0,0.0,0.0,0.0,0.0,0.0,0.0,0.0,0.0,0.0,0.0,0.0,0.0,0.0,0.0,0.0,0.0,0.0,0.0,0.0,0.0,0.0,0.0,0.0,0.0,0.0,0.0,0.0,0.0,0.0,0.0,0.0,0.0,0.0,0.0,0.0,0.0,0.0,0.0,0.0,0.0,0.0,0.0,0.0,0.0,0.0,0.0,0.0,0.0,0.0,0.0,0.0,0.0,0.0,0.0,0.0,0.0,0.0,0.0,0.0,0.0,0.0,0.0,0.0,0.0,1.829,1.6011,1.4502,1.3832,1.3849,1.3846,0.0,0.0,0.0,0.0,0.0,0.0,0.0,0.0,0.0,0.0,0.0,0.0,0.0,0.0,0.0,0.0,0.0,0.0,0.0,0.0,0.0,0.0,0.0,0.0,0.0,0.0,0.0,0.0,0.0,0.0,0.0,0.0,0.0,0.0,0.0,0.0,0.0,0.0,0.0,0.0,0.0,0.0,0.0,0.0,0.0,0.0,0.0,0.0,0.0,0.0,0.0,0.0,0.0,0.0,0.0,0.0,0.0,0.0,0.0,0.0,0.0,0.0,0.0,0.0,0.0,0.0,0.0,0.0,0.0,0.0,0.0,0.0,0.0,0.0,0.0,0.0,0.0,0.0,0.0,0.0,0.0,0.0,0.0,0.0,0.0,0.0,0.0,0.0,0.0,0.0,0.0,0.0,0.0,0.0,0.0,0.0,0.0,0.0,0.0,0.0,0.0,0.0,0.0,0.0,0.0,0.0,0.0,0.0,0.0,1.8722,1.5968,1.4207,1.3747,1.3791,1.3888,1.3939,0.0,0.0,0.0,0.0,0.0,0.0,0.0,0.0,0.0,0.0,0.0,0.0,0.0,0.0,0.0,0.0,0.0,0.0,0.0,0.0,0.0,0.0,0.0,0.0,0.0,0.0,0.0,0.0,0.0,0.0,0.0,0.0,0.0,0.0,0.0,0.0,0.0,0.0,0.0,0.0,0.0,0.0,0.0,0.0,0.0,0.0,0.0,0.0,0.0,0.0,0.0,0.0,0.0,0.0,0.0,0.0,0.0,0.0,0.0,0.0,0.0,0.0,0.0,0.0,0.0,0.0,0.0,0.0,0.0,0.0,0.0,0.0,0.0,0.0,0.0,0.0,0.0,0.0,0.0,0.0,0.0,0.0,0.0,0.0,0.0,0.0,0.0,0.0,0.0,0.0,0.0,0.0,0.0,0.0,0.0,0.0,0.0,0.0,0.0,0.0,0.0,0.0,0.0,0.0,0.0,0.0,0.0,0.0,1.898,1.593,1.4032,1.3321,1.4074,1.4402,0.0,0.0,0.0,0.0,0.0,0.0,0.0,0.0,0.0,0.0,0.0,0.0,0.0,0.0,0.0,0.0,0.0,0.0,0.0,0.0,0.0,0.0,0.0,0.0,0.0,0.0,0.0,0.0,0.0,0.0,0.0,0.0,0.0,0.0,0.0,0.0,0.0,0.0,0.0,0.0,0.0,0.0,0.0,0.0,0.0,0.0,0.0,0.0,0.0,0.0,0.0,0.0,0.0,0.0,0.0,0.0,0.0,0.0,0.0,0.0,0.0,0.0,0.0,0.0,0.0,0.0,0.0,0.0,0.0,0.0,0.0,0.0,0.0,0.0,0.0,0.0,0.0,0.0,0.0,0.0,0.0,0.0,0.0,0.0,0.0,0.0,0.0,0.0,0.0,0.0,0.0,0.0,0.0,0.0,0.0,0.0,0.0,0.0,0.0,0.0,0.0,0.0,0.0,0.0,0.0,0.0,0.0,0.0,0.0,1.9192,1.7321,1.5875,1.4878,1.548,1.5642,0.0,0.0,0.0,0.0,0.0,0.0,0.0,0.0,0.0,0.0,0.0,0.0,0.0,0.0,0.0,0.0,0.0,0.0,0.0,0.0,0.0,0.0,0.0,0.0,0.0,0.0,0.0,0.0,0.0,0.0,0.0,0.0,0.0,0.0,0.0,0.0,0.0,0.0,0.0,0.0,0.0,0.0,0.0,0.0,0.0,0.0,0.0,0.0,0.0,0.0,0.0,0.0,0.0,0.0,0.0,0.0,0.0,0.0,0.0,0.0,0.0,0.0,0.0,0.0,0.0,0.0,0.0,0.0,0.0,0.0,0.0,0.0,0.0,0.0,0.0,0.0,0.0,0.0,0.0,0.0,0.0,0.0,0.0,0.0,0.0,0.0,0.0,0.0,0.0,0.0,0.0,0.0,0.0,0.0,0.0,0.0,0.0,0.0,0.0,0.0,0.0,0.0,0.0,0.0,0.0,0.0,0.0,0.0,2.1141,1.9845,1.8764,1.7664,1.6515,1.6513,1.6303,0.0,0.0,0.0,0.0,0.0,0.0,0.0,0.0,0.0,0.0,0.0,0.0,0.0,0.0,0.0,0.0,0.0,0.0,0.0,0.0,0.0,0.0,0.0,0.0,0.0,0.0,0.0,0.0,0.0,0.0,0.0,0.0,0.0,0.0,0.0,0.0,0.0,0.0,0.0,0.0,0.0,0.0,0.0,0.0,0.0,0.0,0.0,0.0,0.0,0.0,0.0,0.0,0.0,0.0,0.0,0.0,0.0,0.0,0.0,0.0,0.0,0.0,0.0,0.0,0.0,0.0,0.0,0.0,0.0,0.0,0.0,0.0,0.0,0.0,0.0,0.0,0.0,0.0,0.0,0.0,0.0,0.0,0.0,0.0,0.0,0.0,0.0,0.0,0.0,0.0,0.0,0.0,0.0,0.0,0.0,0.0,0.0,0.0,0.0,0.0,0.0,0.0,0.0,0.0,0.0,0.0,0.0,0.0,2.2126,2.0717,2.0105,1.9302,1.8178,1.7289,1.6724,0.0,0.0,0.0,0.0,0.0,0.0,0.0,0.0,0.0,0.0,0.0,0.0,0.0,0.0,0.0,0.0,0.0,0.0,0.0,0.0,0.0,0.0,0.0,0.0,0.0,0.0,0.0,0.0,0.0,0.0,0.0,0.0,0.0,0.0,0.0,0.0,0.0,0.0,0.0,0.0,0.0,0.0,0.0,0.0,0.0,0.0,0.0,0.0,0.0,0.0,0.0,0.0,0.0,0.0,0.0,0.0,0.0,0.0,0.0,0.0,0.0,0.0,0.0,0.0,0.0,0.0,0.0,0.0,0.0,0.0,0.0,0.0,0.0,0.0,0.0,0.0,0.0,0.0,0.0,0.0,0.0,0.0,0.0,0.0,0.0,0.0,0.0,0.0,0.0,0.0,0.0,0.0,0.0,0.0,0.0,0.0,0.0,0.0,0.0,0.0,0.0,0.0,0.0,0.0,0.0,0.0,0.0,0.0,2.3026,2.1945,2.1067,2.0115,1.8968,1.8087,1.7614,0.0,0.0,0.0,0.0,0.0,0.0,0.0,0.0,0.0,0.0,0.0,0.0,0.0,0.0,0.0,0.0,0.0,0.0,0.0,0.0,0.0,0.0,0.0,0.0,0.0,0.0,0.0,0.0,0.0,0.0,0.0,0.0,0.0,0.0,0.0,0.0,0.0,0.0,0.0,0.0,0.0,0.0,0.0,0.0,0.0,0.0,0.0,0.0,1.715,0.0,0.0,0.0,0.0,0.0,0.0,0.0,0.0,0.0,0.0,0.0,0.0,0.0,0.0,0.0,0.0,0.0,0.0,0.0,0.0,0.0,0.0,0.0,0.0,0.0,0.0,0.0,0.0,0.0,0.0,0.0,0.0,0.0,0.0,0.0,0.0,0.0,0.0,0.0,0.0,0.0,0.0,0.0,0.0,0.0,0.0,0.0,0.0,0.0,0.0,0.0,0.0,0.0,0.0,0.0,0.0,0.0,0.0,0.0,2.393,2.3048,2.2262,2.1183,1.9878,1.8985,1.8505,0.0,0.0,0.0,0.0,0.0,0.0,0.0,0.0,0.0,0.0,0.0,0.0,0.0,0.0,0.0,0.0,0.0,0.0,0.0,0.0,0.0,0.0,0.0,0.0,0.0,0.0,0.0,0.0,0.0,0.0,0.0,0.0,0.0,0.0,0.0,0.0,0.0,0.0,0.0,0.0,0.0,0.0,0.0,0.0,0.0,0.0,0.0,0.0,0.0,0.0,0.0,0.0,0.0,0.0,0.0,0.0,0.0,0.0,0.0,0.0,0.0,0.0,0.0,0.0,0.0,0.0,0.0,0.0,0.0,0.0,0.0,0.0,0.0,0.0,0.0,0.0,0.0,0.0,0.0,0.0,0.0,0.0,0.0,0.0,0.0,0.0,0.0,0.0,0.0,0.0,0.0,0.0,0.0,0.0,0.0,0.0,0.0,0.0,0.0,0.0,0.0,0.0,0.0,0.0,0.0,0.0,0.0,2.5039,2.4848,2.4172,2.3435,2.2307,2.0783,1.9902,1.9429,1.9317,0.0,0.0,0.0,0.0,0.0,0.0,0.0,0.0,0.0,0.0,0.0,0.0,0.0,0.0,0.0,0.0,0.0,0.0,0.0,0.0,0.0,0.0,0.0,0.0,0.0,0.0,0.0,0.0,0.0,0.0,0.0,0.0,0.0,0.0,0.0,0.0,0.0,0.0,2.4451,2.3329,0.0,0.0,0.0,0.0,0.0,0.0,0.0,0.0,1.8598,0.0,0.0,0.0,0.0,0.0,0.0,0.0,0.0,0.0,0.0,0.0,0.0,0.0,0.0,0.0,0.0,0.0,0.0,0.0,0.0,0.0,0.0,0.0,0.0,0.0,0.0,0.0,0.0,0.0,0.0,0.0,0.0,0.0,0.0,0.0,0.0,0.0,0.0,0.0,0.0,0.0,0.0,0.0,0.0,0.0,0.0,0.0,0.0,0.0,0.0,0.0,0.0,0.0,0.0,0.0,0.0,2.6173,2.6011,2.5739,2.5402,2.4244,2.309,2.1895,2.1062,2.0539,2.0337,0.0,0.0,0.0,0.0,0.0,0.0,0.0,0.0,0.0,0.0,0.0,0.0,0.0,0.0,0.0,0.0,0.0,0.0,0.0,0.0,0.0,0.0,0.0,0.0,0.0,0.0,0.0,0.0,0.0,0.0,0.0,0.0,0.0,0.0,0.0,0.0,0.0,0.0,0.0,2.5297,2.4927,0.0,0.0,0.0,0.0,0.0,0.0,0.0,0.0,1.9439,0.0,0.0,0.0,0.0,0.0,0.0,0.0,0.0,0.0,0.0,0.0,0.0,0.0,0.0,0.0,0.0,0.0,0.0,0.0,0.0,0.0,0.0,0.0,0.0,0.0,0.0,0.0,0.0,0.0,0.0,0.0,0.0,0.0,0.0,0.0,0.0,0.0,0.0,0.0,0.0,0.0,0.0,0.0,0.0,0.0,0.0,0.0,0.0,0.0,0.0,0.0,0.0,0.0,0.0,0.0,2.6508,2.666,2.6532,2.6119,2.5257,2.4256,2.3194,2.2042,2.127,0.0,0.0,0.0,0.0,0.0,0.0,0.0,0.0,0.0,0.0,0.0,0.0,0.0,0.0,0.0,0.0,0.0,0.0,0.0,0.0,0.0,0.0,0.0,0.0,0.0,0.0,0.0,0.0,0.0,0.0,0.0,0.0,0.0,0.0,0.0,0.0,0.0,0.0,0.0,0.0,2.5869,2.5243,2.4466,0.0,0.0,0.0,0.0,0.0,0.0,2.1083,2.0984,0.0,0.0,0.0,0.0,0.0,0.0,0.0,0.0,0.0,0.0,0.0,0.0,0.0,0.0,0.0,0.0,0.0,0.0,0.0,0.0,0.0,0.0,0.0,0.0,0.0,0.0,0.0,0.0,0.0,0.0,0.0,0.0,0.0,0.0,0.0,0.0,0.0,0.0,0.0,0.0,0.0,0.0,0.0,0.0,0.0,0.0,0.0,0.0,0.0,0.0,0.0,0.0,0.0,0.0,0.0,2.6455,2.7013,2.7028,2.6524,2.6011,2.5305,2.4276,2.3077,2.2147,0.0,0.0,0.0,0.0,0.0,0.0,0.0,0.0,0.0,0.0,0.0,0.0,0.0,0.0,0.0,0.0,0.0,0.0,0.0,0.0,0.0,0.0,0.0,0.0,0.0,0.0,0.0,0.0,0.0,0.0,0.0,0.0,0.0,0.0,0.0,0.0,0.0,0.0,0.0,0.0,0.0,2.5841,2.557,2.4732,0.0,0.0,0.0,0.0,2.2085,2.2379,0.0,0.0,0.0,0.0,0.0,0.0,0.0,0.0,0.0,0.0,0.0,0.0,0.0,0.0,0.0,0.0,0.0,0.0,0.0,0.0,0.0,0.0,0.0,0.0,0.0,0.0,0.0,0.0,0.0,0.0,0.0,0.0,0.0,0.0,0.0,0.0,0.0,0.0,0.0,0.0,0.0,0.0,0.0,0.0,0.0,0.0,0.0,0.0,0.0,0.0,0.0,0.0,0.0,0.0,0.0,0.0,2.6228,2.6898,2.7031,2.6532,2.6256,2.5742,2.4816,2.4303,2.3374,0.0,0.0,0.0,0.0,0.0,0.0,0.0,0.0,0.0,0.0,0.0,0.0,0.0,0.0,0.0,0.0,0.0,0.0,0.0,0.0,0.0,0.0,0.0,0.0,0.0,0.0,0.0,0.0,0.0,0.0,0.0,0.0,0.0,0.0,0.0,0.0,0.0,0.0,0.0,0.0,0.0,2.8596,2.722,2.7405,2.6962,0.0,0.0,2.5208,2.3537,2.3295,0.0,0.0,0.0,0.0,0.0,0.0,0.0,0.0,0.0,0.0,0.0,0.0,0.0,0.0,0.0,0.0,0.0,0.0,0.0,0.0,0.0,0.0,0.0,0.0,0.0,0.0,0.0,0.0,0.0,0.0,0.0,0.0,0.0,0.0,0.0,0.0,0.0,0.0,0.0,0.0,0.0,0.0,0.0,0.0,0.0,0.0,0.0,0.0,0.0,0.0,0.0,0.0,0.0,0.0,0.0,2.741,2.6712,2.7376,2.7537,2.7136,2.6923,2.6581,2.6032,2.5077,2.4098,0.0,0.0,0.0,0.0,0.0,0.0,0.0,0.0,0.0,0.0,0.0,0.0,0.0,0.0,0.0,0.0,0.0,0.0,0.0,0.0,0.0,0.0,0.0,0.0,0.0,0.0,0.0,0.0,0.0,0.0,0.0,0.0,0.0,0.0,0.0,0.0,0.0,0.0,0.0,0.0,0.0,0.0,2.7762,2.7857,0.0,0.0,0.0,2.6406,2.4906,0.0,0.0,0.0,0.0,0.0,0.0,0.0,0.0,0.0,0.0,0.0,0.0,0.0,0.0,0.0,0.0,0.0,0.0,0.0,0.0,0.0,0.0,0.0,0.0,0.0,0.0,0.0,0.0,0.0,0.0,0.0,0.0,0.0,0.0,0.0,0.0,0.0,0.0,0.0,0.0,0.0,0.0,0.0,0.0,0.0,0.0,0.0,0.0,0.0,0.0,0.0,0.0,0.0,0.0,0.0,0.0,0.0,2.7128,2.7702,2.7928,2.7726,2.7631,2.74,2.6991,2.5921,0.0,0.0,0.0,0.0,0.0,0.0,0.0,0.0,0.0,0.0,0.0,0.0,0.0,0.0,0.0,0.0,0.0,0.0,0.0,0.0,0.0,0.0,0.0,0.0,0.0,0.0,0.0,2.6076,0.0,0.0,0.0,0.0,0.0,0.0,0.0,0.0,0.0,0.0,0.0,0.0,0.0,0.0,2.9128,2.8555,2.8668,2.8459,0.0,0.0,2.7725,2.6398,2.6611,2.6468,0.0,0.0,0.0,0.0,0.0,0.0,0.0,0.0,0.0,0.0,0.0,0.0,0.0,0.0,0.0,0.0,0.0,0.0,0.0,0.0,0.0,0.0,0.0,0.0,0.0,0.0,0.0,0.0,0.0,0.0,0.0,0.0,0.0,0.0,0.0,0.0,0.0,0.0,0.0,0.0,0.0,0.0,0.0,0.0,0.0,0.0,0.0,0.0,0.0,0.0,0.0,0.0,0.0,0.0,2.7371,2.7128,2.77,2.7977,2.7966,2.8196,2.7946,2.7222,2.6939,2.6152,0.0,0.0,0.0,0.0,0.0,0.0,0.0,0.0,0.0,0.0,0.0,0.0,0.0,0.0,0.0,0.0,0.0,0.0,0.0,0.0,0.0,0.0,0.0,0.0,0.0,0.0,0.0,0.0,0.0,0.0,0.0,0.0,0.0,0.0,0.0,0.0,0.0,0.0,0.0,0.0,0.0,3.0847,3.015,3.081,3.0878,0.0,2.9685,2.9511,2.8053,2.7996,2.7551,2.6032,0.0,0.0,0.0,0.0,0.0,0.0,0.0,0.0,0.0,0.0,0.0,0.0,0.0,0.0,0.0,0.0,0.0,0.0,0.0,0.0,0.0,0.0,0.0,0.0,0.0,0.0,0.0,0.0,0.0,0.0,0.0,0.0,0.0,0.0,0.0,0.0,0.0,0.0,0.0,0.0,0.0,0.0,0.0,0.0,0.0,0.0,0.0,0.0,0.0,0.0,0.0,0.0,0.0,2.7232,2.7318,2.8052,2.8494,2.8667,2.8508,2.8176,2.7729,2.7371,2.6587,0.0,0.0,0.0,0.0,0.0,0.0,0.0,0.0,0.0,0.0,0.0,0.0,0.0,0.0,0.0,0.0,0.0,0.0,0.0,0.0,0.0,0.0,0.0,0.0,0.0,0.0,0.0,0.0,2.7383,2.7603,2.8034,0.0,0.0,0.0,0.0,0.0,0.0,0.0,0.0,0.0,0.0,3.1024,3.0889,3.1165,0.0,0.0,3.051,3.0122,2.865,2.8849,2.8656,2.7027,2.7259,0.0,0.0,0.0,0.0,0.0,0.0,0.0,0.0,0.0,0.0,0.0,0.0,0.0,0.0,0.0,0.0,0.0,0.0,0.0,0.0,0.0,0.0,0.0,0.0,0.0,0.0,0.0,0.0,0.0,0.0,0.0,0.0,0.0,0.0,0.0,0.0,0.0,0.0,0.0,0.0,0.0,0.0,0.0,0.0,0.0,0.0,0.0,0.0,0.0,0.0,0.0,0.0,2.7097,2.7603,2.8177,2.8723,2.9216,2.8701,2.8288,2.8,2.7777,2.7167,0.0,0.0,0.0,0.0,0.0,0.0,0.0,0.0,0.0,0.0,0.0,0.0,0.0,0.0,0.0,0.0,0.0,0.0,0.0,0.0,0.0,0.0,0.0,0.0,0.0,0.0,0.0,0.0,2.786,2.8245,2.8816,0.0,0.0,0.0,0.0,0.0,0.0,0.0,0.0,0.0,0.0,3.1193,3.1374,3.1485,3.153,3.1477,3.1273,3.0831,2.9869,2.9935,2.9686,2.8366,0.0,0.0,0.0,0.0,0.0,0.0,0.0,0.0,0.0,0.0,0.0,0.0,0.0,0.0,0.0,0.0,0.0,0.0,0.0,0.0,0.0,0.0,0.0,0.0,0.0,0.0,0.0,1.9341,0.0,0.0,2.163,0.0,0.0,0.0,0.0,0.0,0.0,0.0,0.0,0.0,0.0,0.0,0.0,0.0,0.0,0.0,0.0,0.0,0.0,0.0,0.0,0.0,0.0,2.7106,2.8047,2.7985,2.8451,2.9414,2.8792,2.8259,2.7939,2.8331,2.8025,2.6894,0.0,0.0,0.0,0.0,0.0,0.0,0.0,0.0,0.0,0.0,0.0,0.0,0.0,0.0,0.0,0.0,0.0,0.0,0.0,0.0,0.0,0.0,0.0,0.0,0.0,0.0,2.8592,2.8869,2.9034,0.0,0.0,0.0,0.0,0.0,0.0,0.0,0.0,0.0,0.0,3.0943,3.1679,3.169,3.1938,3.2249,3.2734,3.2195,3.1754,3.1946,3.1353,3.0744,0.0,0.0,0.0,0.0,0.0,0.0,0.0,0.0,0.0,0.0,0.0,0.0,0.0,0.0,0.0,0.0,0.0,0.0,0.0,0.0,0.0,0.0,0.0,0.0,0.0,0.0,0.0,2.0849,2.1234,0.0,0.0,0.0,0.0,0.0,0.0,0.0,0.0,0.0,0.0,0.0,2.3847,2.4126,0.0,0.0,0.0,0.0,0.0,0.0,0.0,0.0,0.0,0.0,0.0,0.0,2.6966,2.7616,2.8105,2.8722,2.9398,2.8823,2.8475,2.8372,2.8333,2.8028,2.7309,0.0,0.0,0.0,0.0,0.0,0.0,0.0,0.0,0.0,0.0,0.0,0.0,0.0,0.0,0.0,0.0,0.0,0.0,0.0,0.0,0.0,0.0,0.0,0.0,0.0,2.7736,0.0,0.0,0.0,0.0,0.0,0.0,0.0,0.0,0.0,0.0,0.0,3.1221,3.0793,3.1292,3.1845,3.2203,3.2474,3.2747,0.0,0.0,0.0,0.0,0.0,0.0,0.0,0.0,0.0,0.0,0.0,0.0,0.0,0.0,3.5481,3.2042,3.1965,3.2379,3.2084,0.0,0.0,0.0,0.0,0.0,0.0,0.0,0.0,0.0,0.0,0.0,0.0,0.0,0.0,2.1799,0.0,2.2253,0.0,0.0,0.0,0.0,0.0,0.0,0.0,0.0,2.5965,2.5591,2.4919,2.5081,2.4968,0.0,2.4697,2.4887,0.0,0.0,0.0,0.0,0.0,0.0,0.0,0.0,2.7452,2.7981,2.8454,2.8899,2.9314,2.8757,2.8474,2.8474,2.8287,2.8169,2.8002,2.7226,2.6541,0.0,0.0,0.0,0.0,0.0,0.0,0.0,0.0,0.0,0.0,0.0,0.0,0.0,0.0,0.0,0.0,0.0,0.0,0.0,0.0,0.0,0.0,0.0,2.776,0.0,0.0,0.0,0.0,0.0,0.0,0.0,0.0,0.0,3.1581,3.169,3.1896,3.1982,3.1904,3.1999,3.2542,0.0,0.0,0.0,0.0,0.0,0.0,0.0,3.2788,3.2691,3.3068,3.3432,3.3651,3.5154,3.6224,3.5768,0.0,0.0,3.4363,3.4442,3.4929,3.4647,3.5067,3.5405,3.5253,3.5585,3.5933,0.0,0.0,0.0,0.0,0.0,0.0,0.0,0.0,2.154,2.146,0.0,2.2097,0.0,0.0,0.0,0.0,0.0,2.6599,0.0,0.0,2.7015,2.7152,2.7462,2.6627,2.6367,2.6604,2.6794,2.6608,2.6137,2.5222,0.0,0.0,0.0,0.0,0.0,0.0,2.8577,2.9018,2.8922,2.8979,2.9273,2.8602,2.8219,2.8219,2.8278,2.8471,2.8838,2.8374,2.7702,2.6771,2.7225,0.0,0.0,0.0,0.0,0.0,0.0,0.0,0.0,0.0,0.0,0.0,0.0,0.0,0.0,0.0,0.0,0.0,0.0,0.0,0.0,2.7375,0.0,0.0,0.0,0.0,0.0,0.0,0.0,0.0,0.0,0.0,3.2733,3.2887,3.3195,3.3469,0.0,0.0,0.0,0.0,3.251,3.3465,3.3387,3.373,3.5219,3.4819,3.4424,3.4783,0.0,0.0,3.5083,3.5683,3.6141,3.6058,3.7277,3.8184,3.7963,3.8047,3.8198,3.8011,3.7404,3.7167,3.7523,3.7243,3.7227,2.3118,0.0,0.0,0.0,0.0,2.3402,2.3751,2.3972,2.4064,2.4033,2.3978,2.3967,0.0,0.0,0.0,0.0,0.0,0.0,2.7226,2.7208,2.7699,2.7621,2.7107,2.7018,2.6934,2.6846,2.7008,2.7279,2.7559,2.7081,2.6907,2.704,0.0,0.0,0.0,0.0,2.8686,2.9024,2.9142,2.9258,2.9367,2.9047,2.8764,2.8633,2.8657,2.8584,2.8484,2.8462,2.8213,2.7714,2.709,0.0,0.0,0.0,0.0,0.0,0.0,0.0,0.0,0.0,0.0,0.0,0.0,0.0,0.0,0.0,0.0,0.0,0.0,0.0,2.8029,2.8439,2.9188,0.0,0.0,0.0,0.0,0.0,0.0,0.0,0.0,0.0,3.3926,3.3551,3.3581,0.0,0.0,3.266,3.3011,3.2951,3.3113,3.3787,3.3621,0.0,3.4954,3.4458,3.4105,3.4727,3.5035,3.53,3.5737,3.6428,3.6862,3.6567,3.8059,3.9159,3.8546,3.8839,3.8992,3.8502,3.8469,3.8553,3.8554,3.8576,3.8654,2.3859,2.3691,2.3681,2.3897,2.4258,2.473,2.4916,2.4889,2.5011,2.4959,2.4778,2.4926,2.484,2.4636,2.5383,0.0,0.0,0.0,2.7441,2.7493,2.7929,2.7899,2.7447,2.7413,2.7288,2.7186,2.7393,2.7696,2.8059,2.8442,2.846,2.8096,0.0,0.0,2.8637,2.9089,2.9391,2.9555,2.9732,2.9741,2.956,2.9248,2.9052,2.8922,2.8922,2.8814,2.8625,2.8819,2.8686,2.8201,2.7693,2.7385,0.0,0.0,0.0,0.0,0.0,0.0,0.0,0.0,0.0,0.0,0.0,2.8855,2.8431,0.0,0.0,0.0,2.8596,2.857,2.8539,2.8915,0.0,0.0,0.0,0.0,0.0,0.0,0.0,3.3852,3.4189,3.4502,3.4711,3.4205,3.4071,3.4679,3.3652,3.3009,3.3437,0.0,3.3121,3.374,3.371,3.4041,3.5105,3.494,3.4842,3.543,3.5683,3.5912,3.6286,3.6829,3.7195,3.7436,3.8259,3.9072,3.9116,3.9451,3.9579,3.9152,3.9281,3.9394,3.9247,3.9292,3.9305,2.4411,2.4818,2.4818,2.5327,2.6104,2.599,2.5561,2.4984,2.4941,2.4684,2.4375,2.5134,2.5521,2.5595,2.5976,0.0,2.7441,2.7267,2.7441,2.7893,2.7928,2.8041,2.8166,2.7789,2.7607,2.7603,2.783,2.7945,2.8096,2.9318,2.9966,2.9982,2.945,2.9403,2.9907,3.0241,3.0444,3.0482,3.0444,3.0267,2.983,2.9378,2.9131,2.9104,2.9052,2.9013,2.9052,2.9236,2.904,2.8418,2.8724,2.8525,2.7656,0.0,0.0,0.0,0.0,0.0,0.0,0.0,0.0,0.0,0.0,0.0,0.0,0.0,0.0,0.0,2.8628,0.0,2.8645,2.9257,0.0,0.0,0.0,3.2666,3.2721,3.3544,3.4118,3.4118,0.0,0.0,3.5155,3.4737,3.451,3.483,3.39,3.3368,3.3866,3.314,3.2747,3.3582,3.3759,3.4344,3.5388,3.5739,3.5983,3.6372,3.6482,3.6458,3.6696,3.6909,3.7369,3.7932,3.8082,3.8424,3.977,3.9872,3.9887,3.9932,3.9837,3.973,3.9598,3.9452,3.9349,2.3807,2.41,2.4282,2.4882,2.577,2.6032,2.5966,2.5616,2.5297,2.5052,2.4971,2.5337,2.5821,2.6341,2.6587,2.6849,2.7044,2.7319,2.7482,2.7638,2.8187,2.8263,2.7999,2.8234,2.814,2.7825,2.8009,2.8433,2.8978,2.9476,2.9849,3.0146,3.0281,3.0544,3.084,3.0714,3.0811,3.1086,3.0936,3.0558,3.0049,2.956,2.9236,2.9091,2.8657,2.8498,2.863,2.8709,2.8767,2.8895,2.849,2.8061,2.7619,2.7876,0.0,0.0,0.0,0.0,0.0,0.0,0.0,0.0,0.0,2.9161,2.8709,0.0,3.0108,0.0,2.8812,2.9325,3.0788,3.0922,0.0,0.0,3.3241,3.3562,3.3939,3.4194,3.4314,3.4301,3.4356,3.445,3.4593,3.4489,3.4408,3.451,3.4166,3.3986,3.4351,3.384,3.3631,3.4158,3.4169,3.4319,3.4995,3.5358,3.5816,3.6359,3.6408,3.651,3.6875,3.7228,3.7438,3.7439,3.8304,3.9005,3.9183,3.9747,4.0081,3.9914,3.9894,3.9791,3.9482,3.9349,3.9394,2.3754,2.4024,2.4368,2.4924,2.5559,2.5717,2.5675,2.5569,2.5529,2.545,2.542,2.5831,2.6304,2.685,2.6985,2.7026,2.7056,2.7249,2.74,2.7534,2.7894,2.8046,2.7904,2.8163,2.8151,2.7881,2.8099,2.8533,2.9133,2.9472,2.9947,3.0606,3.0487,3.0775,3.1401,3.1384,3.1454,3.1655,3.123,3.0761,3.0254,2.9793,2.9353,2.8973,2.8566,2.8339,2.8391,2.8391,2.8538,2.891,2.8266,2.7791,2.7651,2.7688,2.7193,0.0,0.0,0.0,0.0,0.0,0.0,0.0,0.0,0.0,0.0,0.0,3.0213,2.9757,3.01,3.0881,3.2184,3.252,3.3092,3.4223,3.4314,3.4426,3.4701,3.4688,3.4701,3.4688,3.4743,3.4701,3.4577,3.459,3.4535,3.4384,3.4314,3.4263,3.4323,3.41,3.401,3.4307,3.4354,3.4572,3.5136,3.5409,3.5764,3.6351,3.6549,3.664,3.6954,3.7259,3.7496,3.7617,3.815,3.8769,3.9185,3.9383,3.9563,3.9856,3.9712,3.9509,3.9262,3.9247,3.9394,2.3937,2.4196,2.4572,2.4988,2.5327,2.5158,2.5242,2.5454,2.5853,2.5948,2.5812,2.6396,2.685,2.719,2.7179,2.7149,2.7149,2.7149,2.726,2.74,2.7522,2.7696,2.7881,2.7962,2.8002,2.8002,2.8151,2.8521,2.9063,2.9362,3.0027,3.0907,3.0286,3.0484,3.1557,3.1915,3.2067,3.2092,3.1387,3.0862,3.0509,3.0036,2.9532,2.898,2.8614,2.8391,2.8271,2.8259,2.8407,2.8779,2.8222,2.7854,2.7835,2.7422,2.7105,0.0,2.7117,0.0,0.0,0.0,0.0,0.0,0.0,0.0,0.0,3.0152,3.0303,3.088,3.1717,3.2513,3.3067,3.3781,3.4446,3.5006,3.5072,3.5072,3.5072,3.5086,3.5072,3.5072,3.5086,3.4962,3.4797,3.4797,3.4714,3.4481,3.4452,3.434,3.4202,3.4095,3.4098,3.4176,3.4481,3.4949,3.5561,3.5656,3.5844,3.6417,3.6536,3.664,3.6783,3.7052,3.7366,3.7774,3.7833,3.8171,3.9396,3.8978,3.8852,3.9514,3.9277,3.8986,3.9039,3.9175,3.9428,2.3677,2.3884,2.396,2.4196,2.4454,2.4583,2.538,2.6603,2.6685,2.6685,2.6644,2.6809,2.6985,2.719,2.7026,2.6933,2.6974,2.6944,2.6974,2.7056,2.7586,2.7841,2.7921,2.8243,2.8471,2.8605,2.851,2.8815,2.9472,2.9239,2.9376,2.9885,2.9744,3.0059,3.08,0.0,0.0,0.0,3.1525,3.1182,3.1009,3.0149,2.976,2.9742,2.8767,0.0,2.8431,2.8419,2.863,2.9,2.8915,0.0,0.0,0.0,0.0,0.0,0.0,0.0,0.0,0.0,0.0,0.0,3.1044,3.1202,3.0608,3.1057,3.1632,3.203,3.2398,3.2883,3.3661,3.402,3.4446,3.5006,3.5072,3.5072,3.5072,3.4962,3.4839,3.4852,3.4839,3.4839,3.4797,3.4797,3.4756,3.4675,3.4535,3.4397,3.4317,3.4101,3.4132,3.4568,3.4908,3.5277,3.5912,3.5683,3.5629,3.6005,3.5991,3.5991,3.6178,3.6509,3.6605,3.6588,3.7441,3.8208,3.8477,3.8614,3.8639,3.8559,3.8337,3.8265,3.8745,3.909,3.9288,2.3667,2.3667,2.3894,2.4272,0.0,2.5031,2.5832,2.6862,2.6437,2.6437,2.6768,2.685,2.7015,2.7231,2.7464,2.7603,2.7725,2.8295,2.8231,2.7736,2.8295,2.8348,2.7921,2.8231,2.8498,2.8791,2.8697,2.8975,2.9517,2.9015,2.9119,2.9818,2.9322,2.9499,3.0386,3.0556,3.1023,3.1836,3.1185,3.0776,3.0611,2.9906,2.9555,2.9536,2.8882,0.0,0.0,0.0,0.0,0.0,0.0,0.0,0.0,2.9127,0.0,2.8725,2.9243,2.9638,2.9754,3.0406,3.0855,3.1074,3.1797,3.1972,3.1251,3.1785,3.2192,3.2379,3.296,3.3528,3.414,3.462,3.5076,3.5359,3.5399,3.5399,3.5358,3.5236,3.5072,3.5086,3.5003,3.4921,3.4797,3.4797,3.4665,3.4386,3.417,3.4024,3.4031,3.4324,3.4698,3.5332,3.5494,3.5696,3.5938,3.5683,3.544,3.5629,3.5521,3.5521,3.5683,3.5873,3.5981,3.5926,3.681,3.7491,3.7468,3.766,3.7894,3.795,3.7702,3.7454,3.7781,3.832,3.8863,2.3807,2.3711,2.4153,2.4625,2.52,2.5611,2.6124,2.6644,0.0,0.0,0.0,2.6723,2.6933,2.7149,2.7696,2.8007,2.8207,2.9241,2.9192,2.8275,2.8774,2.86,2.7933,2.807,2.8339,2.8724,2.8724,2.8943,2.9423,2.8795,2.8903,2.9665,2.8891,2.8955,2.988,2.998,3.0368,3.1061,3.0573,3.0215,3.0099,2.9688,2.9363,2.9318,2.9037,2.8922,2.8961,2.8816,2.8907,2.917,2.9091,2.9052,2.9221,2.9365,2.947,2.9535,2.987,3.0152,3.0241,3.0904,3.1536,3.2098,3.2344,3.2351,3.2166,3.2311,3.2485,3.2583,3.3392,3.4086,3.4513,3.5224,3.571,3.571,3.571,3.571,3.5669,3.548,3.5331,3.5318,3.5047,3.4857,3.4612,3.4507,3.4335,3.3899,3.3619,3.3515,3.3711,3.4419,3.5224,3.576,3.5909,3.6032,3.5924,3.5602,3.5358,3.5182,3.5072,3.5031,3.5113,3.5182,3.5304,3.5494,3.6075,3.6495,3.6577,3.6797,3.703,3.755,3.7126,3.6661,3.67,3.7416,3.8163,2.4196,2.4368,2.47,2.4861,2.4935,2.52,2.5506,2.5822,2.6437,2.6408,2.5957,2.6423,2.6685,2.6685,2.6809,2.6839,2.688,2.7236,2.7388,2.7377,2.7632,2.7806,2.7881,2.7921,2.8163,2.851,2.8379,2.8483,2.8821,2.8443,2.8423,2.8663,2.8411,2.8495,2.898,2.9339,2.9468,2.9477,2.9677,2.9955,3.0259,2.9719,2.9667,3.0062,2.9588,2.9431,2.9663,2.9636,2.9636,2.9714,2.9663,2.9675,2.9714,2.9702,2.9818,2.9998,3.0075,3.0292,3.0849,3.185,3.3067,3.4364,3.3409,3.2849,3.3367,3.2659,3.2478,3.3186,3.3621,3.411,3.4641,3.5278,3.5723,3.5723,3.571,3.571,3.5669,3.5358,3.5113,3.5113,3.4511,3.4084,3.4043,3.3647,3.3384,3.3343,3.3146,3.3172,3.3589,3.4477,3.5184,3.5542,3.5902,3.5977,3.5764,3.5399,3.5018,3.4605,3.4522,3.4468,3.4345,3.4454,3.4688,3.488,3.5553,3.6054,3.6274,3.6522,3.6646,3.6783,3.6239,3.5858,3.6247,3.682,3.7276,2.4239,2.4378,2.4583,2.4828,2.5073,2.5295,2.5146,2.487,2.5514,2.5848,2.589,2.6243,2.6373,2.6415,2.6869,2.7196,2.7441,2.8052,2.8191,2.7938,2.8186,2.8092,2.7719,2.7829,2.8122,2.8471,2.8299,2.8407,2.8712,2.8407,2.8311,2.851,2.8498,2.8685,2.8961,2.904,2.9079,2.9104,2.9184,2.9413,2.9804,2.945,2.9626,3.0423,2.9899,2.9813,3.0218,2.9955,2.9779,2.9779,2.9779,2.9779,2.9779,2.9779,2.9908,3.0075,3.0228,3.0444,3.0811,3.2084,3.3265,3.4139,3.3397,3.3078,3.3599,3.2547,3.2047,3.2488,3.3116,3.3735,3.4241,3.5035,3.5602,3.5683,3.5602,3.5548,3.548,3.5195,3.4962,3.4868,3.4214,3.375,3.375,3.3224,3.2777,3.2669,3.2493,3.2577,3.3102,3.3896,3.4617,3.5036,3.5463,3.5602,3.5399,3.5168,3.4624,3.3895,3.4048,3.4033,3.3752,3.3942,3.4301,3.4535,3.5105,3.5487,3.5651,3.5912,3.6076,3.6103,3.5873,3.5777,3.6067,3.6614,3.7363,2.4368,2.4454,2.4668,2.4999,2.538,2.5506,2.5135,2.4513,2.4766,2.5168,2.5549,2.5779,2.5946,2.6071,2.6846,2.7377,2.7777,2.8645,2.8783,2.8427,2.8519,2.8251,2.765,2.7719,2.7962,2.8311,2.8219,2.8339,2.8645,2.8407,2.8339,2.8419,2.8645,2.8764,2.8895,2.8855,2.8843,2.8934,2.8803,2.8971,2.9396,2.9342,2.9784,3.0668,3.0434,3.0372,3.0649,3.0272,2.9995,2.9869,2.9869,2.9908,2.9946,2.9908,2.9934,3.0152,3.0292,3.0623,3.1121,3.2382,3.3381,3.3826,3.3433,3.3238,3.3341,3.2246,3.1563,3.1805,3.245,3.3035,3.358,3.4513,3.5211,3.5399,3.5454,3.544,3.544,3.5113,3.4839,3.4772,3.4014,3.3365,3.3273,3.2751,3.2201,3.1959,3.1862,3.2045,3.2461,3.3127,3.3786,3.423,3.4821,3.5196,3.499,3.4693,3.4181,3.3327,3.3612,3.3706,3.3496,3.3755,3.415,3.4452,3.4784,3.5125,3.5181,3.5467,3.5724,3.5778,3.567,3.5723,3.6071,3.6747,3.759,2.4946,2.5115,2.5391,2.5644,2.5812,2.5644,2.5516,2.5336,2.5062,2.4786,2.468,2.4903,2.5158,2.5359,2.6019,2.6393,2.6487,2.7131,2.7632,2.7893,2.7551,2.7551,2.776,2.7476,2.7516,2.7921,2.7933,2.8111,2.855,2.8459,2.8379,2.8271,2.8419,2.8471,2.8339,2.8645,2.8724,2.855,2.855,2.8847,2.9577,2.98,3.0381,3.1298,3.1448,3.1329,3.0896,3.0822,3.0556,3.0138,3.0037,3.0152,3.0292,3.019,3.0152,3.033,3.0406,3.093,3.219,3.3288,3.4061,3.4573,3.3985,3.3457,3.3106,3.1694,3.1074,3.1541,3.1703,3.2057,3.2539,3.3661,3.446,3.4674,3.5103,3.548,3.5548,3.5331,3.5086,3.5072,3.3779,3.279,3.2777,3.1979,3.1348,3.147,3.154,3.1585,3.166,3.2354,3.2804,3.3,3.3963,3.4774,3.4485,3.4007,3.3623,3.3288,3.3463,3.3489,3.342,3.3788,3.4397,3.4397,3.4771,3.5072,3.5154,3.5399,3.5683,3.5818,3.5778,3.5693,3.6287,3.6885,3.7537,2.5285,2.5601,2.5728,2.5812,2.5895,2.5822,2.5314,2.4535,2.4628,2.4385,2.4019,2.433,2.4625,2.4828,2.5506,2.5957,2.6196,2.6467,2.6933,2.7435,2.729,2.729,2.7435,2.7412,2.7574,2.7841,2.7748,2.7938,2.8391,2.8391,2.8299,2.8207,2.8311,2.8339,2.8379,2.8538,2.8657,2.8697,2.8645,2.9071,2.9759,2.9938,3.0387,3.1132,3.1301,3.1213,3.0842,3.0611,3.0319,2.9958,3.0037,3.019,3.0406,3.033,3.033,3.0419,3.0842,3.1341,3.2118,3.3448,3.4153,3.3963,3.3878,3.3594,3.2758,3.1495,3.0765,3.0957,3.1418,3.1753,3.1912,3.3313,3.4295,3.4272,3.4807,3.5236,3.5318,3.5195,3.5072,3.4992,3.3927,3.2988,3.2725,3.1769,3.1164,3.1235,3.1299,3.125,3.1228,3.1928,3.229,3.2241,3.3215,3.3817,3.3646,3.3809,3.3381,3.2744,3.3268,3.3858,3.3232,3.3779,3.4397,3.4397,3.4784,3.5072,3.5072,3.5426,3.5791,3.5981,3.6453,3.6565,3.6863,3.6974,3.7228,2.5633,2.5968,2.6104,2.6115,2.5979,2.5948,2.5282,2.4399,2.4565,2.4386,2.3968,2.431,2.454,2.4711,2.5295,2.5801,2.6196,2.6343,2.6727,2.7342,2.7319,2.736,2.7464,2.7615,2.7817,2.799,2.7898,2.8059,2.8419,2.8299,2.8179,2.8139,2.8179,2.8271,2.8419,2.8498,2.8697,2.8882,2.8831,2.9169,2.9736,2.9933,3.0421,3.1232,3.1307,3.1174,3.0819,3.0428,3.0082,2.9829,3.0049,3.0343,3.0663,3.0701,3.0701,3.074,3.1306,3.1727,3.1907,3.3322,3.3932,3.3485,3.3697,3.3487,3.2615,3.166,3.0891,3.0509,3.1236,3.1669,3.1444,3.2794,3.3772,3.3911,3.4685,3.5195,3.5277,3.5277,3.5169,3.4914,3.3953,3.3102,3.2615,3.1724,3.12,3.1472,3.1399,3.125,3.1382,3.2005,3.241,3.1962,3.2718,3.3212,3.3088,3.3363,3.3036,3.2694,3.3206,3.3799,3.3039,3.3772,3.4522,3.4618,3.4908,3.5113,3.5236,3.5521,3.5818,3.6225,3.6589,3.6922,3.7091,3.7002,3.7133,2.601,2.6238,2.6674,2.6561,2.6157,2.599,2.5759,2.5346,2.5232,2.5052,2.4808,2.5009,2.5073,2.4956,2.538,2.5748,2.6196,2.6633,2.719,2.776,2.7574,2.7725,2.8139,2.8179,2.8259,2.8431,2.8431,2.8459,2.8498,2.8311,2.8099,2.7973,2.8111,2.8207,2.8287,2.8605,2.8882,2.904,2.891,2.9013,2.9425,2.9828,3.061,3.1617,3.1829,3.143,3.0807,3.0481,3.0146,2.9817,3.019,3.074,3.1332,3.1423,3.1423,3.1436,3.1797,3.2006,3.1978,3.2861,3.3457,3.3546,3.3426,3.319,3.2815,3.2216,3.1522,3.056,3.1313,3.1589,3.1234,3.2052,3.2983,3.3738,3.4726,3.5318,3.5588,3.5588,3.5278,3.4646,3.3817,3.2913,3.1878,3.145,3.1536,3.179,3.186,3.1798,3.1912,3.2421,3.2587,3.2382,3.2676,3.3159,3.3297,3.3257,3.29,3.2612,3.2945,3.3698,3.3605,3.3684,3.4345,3.4797,3.4962,3.5154,3.5358,3.5548,3.5737,3.5967,3.6076,3.6332,3.6964,3.7136,3.7243,2.6135,2.6467,2.6768,2.6809,2.6644,2.6437,2.597,2.5387,2.5566,2.5251,2.4797,2.5188,2.5369,2.5338,2.5633,2.5926,2.6227,2.6715,2.7179,2.7626,2.7708,2.7898,2.8179,2.8339,2.851,2.8685,2.8697,2.8697,2.8645,2.8498,2.8311,2.8151,2.8299,2.8379,2.8459,2.8816,2.9052,2.9091,2.9157,2.9263,2.9429,3.003,3.0568,3.081,3.1195,3.0956,3.0033,3.0149,3.003,2.9585,3.0379,3.11,3.1461,3.163,3.163,3.1539,3.1746,3.1817,3.1708,3.2751,3.3492,3.3477,3.3422,3.3274,3.2976,3.2435,3.1847,3.1513,3.1679,3.1826,3.18,3.201,3.2391,3.2972,3.3953,3.4929,3.5373,3.5588,3.5453,3.4723,3.3794,3.2737,3.207,3.1827,3.1823,3.1543,3.1953,3.215,3.1953,3.2384,3.2807,3.2545,3.2517,3.2696,3.3185,3.3055,3.2831,3.2739,3.2956,3.3498,3.3658,3.4016,3.4586,3.4747,3.4951,3.5142,3.5345,3.5805,3.5954,3.6103,3.6117,3.6144,3.6752,3.6953,3.7176,2.6229,2.6603,2.6809,2.688,2.6903,2.6768,2.6289,2.5694,2.5878,2.5616,2.5202,2.545,2.5686,2.5812,2.6021,2.6229,2.6415,2.6768,2.7167,2.7615,2.7841,2.807,2.8367,2.8578,2.8867,2.9091,2.9131,2.904,2.8882,2.8736,2.8578,2.8407,2.8578,2.8709,2.8736,2.9052,2.9197,2.9326,2.9392,2.9419,2.9571,2.9974,3.0201,3.0238,3.0563,3.0447,2.9703,2.9878,2.9777,2.9596,3.034,3.1177,3.1811,3.2215,3.2267,3.2072,3.2306,3.2252,3.1861,3.2695,3.3425,3.3625,3.3407,3.3186,3.3064,3.2934,3.2524,3.194,3.2071,3.2183,3.169,3.1679,3.1979,3.2594,3.3635,3.458,3.521,3.5505,3.5298,3.4765,3.4069,3.3251,3.2651,3.278,3.2629,3.198,3.2527,3.2529,3.2436,3.2571,3.3021,3.2944,3.2675,3.2819,3.3068,3.3043,3.2895,3.2802,3.3157,3.358,3.3738,3.4217,3.4523,3.4684,3.4887,3.5116,3.5467,3.5967,3.6198,3.6334,3.6198,3.6076,3.651,3.6863,3.7182,2.6332,2.6569,2.6798,2.6891,2.688,2.6891,2.6757,2.6517,2.6302,2.6155,2.6016,2.6021,2.6074,2.624,2.6437,2.6685,2.685,2.6891,2.7272,2.7841,2.7881,2.8231,2.8764,2.8934,2.926,2.9663,2.9753,2.9507,2.9131,2.9091,2.8961,2.8831,2.8961,2.9052,2.9091,2.9275,2.9521,2.9611,2.947,2.9521,2.974,2.961,2.9752,3.0049,3.0189,3.0145,2.9908,2.965,2.9507,2.9482,2.9933,3.0945,3.241,3.3118,3.3342,3.3001,3.3463,3.3265,3.2454,3.2511,3.3136,3.3655,3.3424,3.3169,3.3281,3.3809,3.3512,3.2013,3.2202,3.2293,3.1138,3.1136,3.1731,3.2816,3.3859,3.4576,3.5147,3.5313,3.5195,3.4716,3.4427,3.4451,3.4248,3.3982,3.3736,3.3515,3.342,3.3357,3.3555,3.3509,3.3424,3.3502,3.3197,3.2944,3.3034,3.3016,3.2926,3.2905,3.3407,3.3874,3.3622,3.3847,3.418,3.438,3.4661,3.4915,3.5588,3.5981,3.594,3.5981,3.59,3.5981,3.6252,3.6659,3.735,2.565,2.5887,2.6457,2.6768,2.6891,2.688,2.685,2.6798,2.6727,2.6592,2.6509,2.6561,2.655,2.652,2.6685,2.685,2.6891,2.7056,2.7383,2.7841,2.7881,2.8231,2.8724,2.9013,2.9351,2.9702,2.9779,2.9611,2.9353,2.9302,2.9197,2.9079,2.9197,2.9236,2.9131,2.9275,2.9392,2.93,2.9248,2.9275,2.9509,2.9611,2.9805,3.0075,3.0356,3.0445,3.0252,2.9997,2.9805,2.9689,3.0287,3.1291,3.2489,3.3133,3.3225,3.2843,3.2868,3.2566,3.1824,3.2041,3.2478,3.2894,3.3309,3.3696,3.3892,3.4405,3.4238,3.3198,3.3793,3.3807,3.275,3.2369,3.2579,3.3014,3.3735,3.4556,3.543,3.5466,3.5128,3.4765,3.4511,3.4216,3.4093,3.4206,3.4446,3.4059,3.4217,3.4594,3.4499,3.4298,3.426,3.4319,3.3693,3.3068,3.3152,3.3148,3.3021,3.3022,3.3516,3.3993,3.3767,3.358,3.3897,3.4323,3.459,3.5006,3.5667,3.5898,3.5898,3.5858,3.5926,3.5994,3.6076,3.6524,3.7174,2.5378,2.5676,2.639,2.688,2.7085,2.7126,2.7138,2.7097,2.6974,2.6748,2.6613,2.6771,2.6778,2.6624,2.686,2.7003,2.7015,2.7138,2.7435,2.7852,2.7881,2.8231,2.8803,2.9221,2.9417,2.965,2.9818,2.9779,2.956,2.9548,2.9495,2.9417,2.9392,2.9392,2.9339,2.9287,2.9236,2.9197,2.917,2.9197,2.9431,2.965,2.9946,3.0318,3.066,3.0798,3.0823,3.0685,3.0381,3.0164,3.0547,3.1448,3.2712,3.3093,3.3237,3.3383,3.3317,3.3041,3.2371,3.2594,3.2869,3.329,3.3878,3.4385,3.4753,3.5166,3.5153,3.4424,3.4451,3.4431,3.3577,3.2963,3.2913,3.3314,3.3359,3.4043,3.5051,3.5356,3.5247,3.5073,3.5096,3.4975,3.4928,3.509,3.5276,3.4842,3.4974,3.5356,3.5095,3.4807,3.4807,3.4628,3.4065,3.3625,3.3413,3.326,3.312,3.3252,3.3475,3.3939,3.4072,3.3788,3.389,3.4666,3.511,3.5515,3.6098,3.6098,3.6058,3.6018,3.6018,3.61,3.621,3.6361,3.6972,2.5341,2.5804,2.652,2.7051,2.7441,2.7493,2.7534,2.7452,2.7179,2.6822,2.6617,2.684,2.6765,2.6634,2.6967,2.7186,2.7219,2.7219,2.7476,2.7812,2.7921,2.8231,2.8803,2.9339,2.9534,2.9509,2.9844,2.9934,2.9805,2.9818,2.9818,2.9779,2.9599,2.9509,2.9573,2.9326,2.9197,2.9275,2.9157,2.9157,2.9431,2.9689,3.0049,3.0609,3.0911,3.1187,3.1373,3.1323,3.0998,3.0571,3.0763,3.1615,3.2763,3.304,3.3581,3.4312,3.4618,3.427,3.3911,3.3512,3.3778,3.4352,3.4646,3.4997,3.5427,3.602,3.6045,3.492,3.4733,3.4424,3.3856,3.3063,3.2914,3.3315,3.3265,3.354,3.4208,3.5066,3.5368,3.5556,3.6097,3.6561,3.6132,3.636,3.6267,3.6077,3.5656,3.562,3.562,3.5405,3.5062,3.4754,3.4471,3.3952,3.3686,3.382,3.3647,3.3474,3.3724,3.4177,3.4404,3.4199,3.3983,3.476,3.5471,3.5959,3.6258,3.6258,3.6298,3.6351,3.6312,3.6286,3.633,3.6456,3.6839,2.4233,2.4922,2.5971,2.6731,2.7284,2.7615,2.78,2.7788,2.7679,2.7347,2.7025,2.7132,2.7128,2.696,2.7172,2.7338,2.7412,2.7452,2.7586,2.7841,2.7881,2.8231,2.8712,2.9118,2.9326,2.9431,2.9728,2.9946,3.0011,3.0011,3.0011,3.0011,2.9921,2.9754,2.9521,2.9248,2.9131,2.9118,2.9,2.9079,2.9419,2.9805,3.0152,3.0482,3.1099,3.141,3.1434,3.1633,3.1471,3.0975,3.1481,3.2011,3.2783,3.3579,3.4271,3.4552,3.4593,3.4326,3.387,3.3803,3.3819,3.3675,3.4834,3.5528,3.5686,3.6487,3.6466,3.5899,3.5871,3.5684,3.4856,3.3941,3.3412,3.2932,3.3426,3.4214,3.4846,3.541,3.5639,3.5666,3.5975,3.6201,3.6375,3.6401,3.6517,3.6496,3.6401,3.6284,3.6239,3.594,3.5586,3.5426,3.509,3.4393,3.4033,3.4218,3.4201,3.3853,3.4079,3.4576,3.4737,3.4668,3.4522,3.4711,3.5324,3.5823,3.6201,3.6351,3.647,3.6589,3.651,3.6431,3.6391,3.6464,3.6888,2.4017,2.4842,2.5888,2.6789,2.751,2.7869,2.803,2.8042,2.803,2.7786,2.751,2.7789,2.7768,2.7508,2.7804,2.7858,2.7822,2.7805,2.7898,2.803,2.8231,2.8459,2.8685,2.8934,2.917,2.9326,2.9715,2.996,3.0113,3.019,3.0177,3.0088,3.0011,2.9805,2.9599,2.9248,2.917,2.9157,2.9052,2.9131,2.956,2.9921,3.0305,3.0672,3.1299,3.1676,3.2112,3.2438,3.2327,3.2059,3.235,3.2914,3.3734,3.446,3.5068,3.5338,3.5313,3.5035,3.4593,3.4526,3.442,3.4393,3.5358,3.5916,3.6353,3.6887,3.7038,3.6816,3.6753,3.6326,3.5579,3.4465,3.3555,3.3185,3.3668,3.4404,3.4861,3.478,3.5007,3.5208,3.5405,3.5652,3.6067,3.6214,3.6509,3.6791,3.6819,3.6833,3.6847,3.6457,3.6138,3.5965,3.5465,3.471,3.4157,3.4217,3.4475,3.4192,3.46,3.5072,3.5113,3.5126,3.5127,3.5141,3.542,3.5713,3.6172,3.6549,3.6628,3.6693,3.6654,3.6654,3.6654,3.6654,3.7079,2.4194,2.5116,2.5989,2.6943,2.7742,2.8111,2.8179,2.8219,2.8259,2.8079,2.7912,2.846,2.8341,2.8064,2.8354,2.8548,2.8287,2.8247,2.8259,2.8379,2.8566,2.8764,2.8776,2.9013,2.9157,2.9287,2.9793,3.0075,3.019,3.033,3.0305,3.019,2.9972,2.9869,2.9702,2.9378,2.9275,2.9392,2.9287,2.9456,2.9844,3.0113,3.0457,3.0924,3.1508,3.2229,3.2975,3.3389,3.3461,3.3404,3.339,3.4152,3.5339,3.5529,3.5939,3.6406,3.6318,3.6041,3.579,3.5494,3.5507,3.5682,3.5987,3.6506,3.6922,3.7327,3.7505,3.7434,3.7082,3.6613,3.5709,3.4371,3.369,3.3515,3.3511,3.3727,3.4047,3.3965,3.4028,3.4666,3.4728,3.5114,3.5579,3.6021,3.6395,3.6833,3.6889,3.6875,3.685,3.6589,3.6431,3.6391,3.5725,3.4913,3.4511,3.4176,3.4443,3.4585,3.5191,3.5626,3.56,3.5627,3.5749,3.5856,3.5853,3.6077,3.6478,3.6693,3.685,3.7007,3.707,3.707,3.7109,3.7109,3.7356,2.3962,2.4926,2.5446,2.6319,2.7319,2.7966,2.8219,2.8219,2.8526,2.8382,2.8135,2.8455,2.8519,2.8255,2.858,2.8662,2.87,2.8685,2.8685,2.8685,2.8895,2.9118,2.9197,2.9353,2.9353,2.947,2.9831,3.0152,3.033,3.0495,3.0533,3.033,3.0216,3.0113,2.9792,2.9521,2.947,2.965,2.9663,2.9856,3.0228,3.0457,3.0685,3.1101,3.1858,3.2528,3.3193,3.3916,3.4596,3.5055,3.5228,3.5426,3.6007,3.6438,3.6718,3.683,3.6783,3.6494,3.6243,3.6123,3.6137,3.6258,3.6468,3.6783,3.7173,3.7419,3.7572,3.761,3.7582,3.6821,3.5433,3.4677,3.4087,3.3779,3.3858,3.4153,3.4537,3.4685,3.454,3.4631,3.4961,3.5516,3.5756,3.6047,3.638,3.6774,3.685,3.6836,3.6733,3.6628,3.6628,3.6615,3.5881,3.52,3.5353,3.503,3.5069,3.5193,3.5698,3.6018,3.5978,3.5789,3.5788,3.5936,3.6085,3.6391,3.6654,3.6968,3.7123,3.7303,3.7457,3.7519,3.7558,3.7558,3.7782,2.3987,2.5088,2.541,2.6244,2.7337,2.7966,2.8287,2.8526,2.8803,2.8694,2.8493,2.891,2.8986,2.8774,2.9011,2.922,2.9186,2.9013,2.8934,2.9013,2.926,2.9495,2.9638,2.978,2.9857,2.9819,3.019,3.0419,3.0533,3.0622,3.0609,3.0406,3.0292,3.0075,2.983,2.965,2.9728,2.9895,2.9934,3.0152,3.0647,3.0798,3.1075,3.1479,3.223,3.2971,3.3851,3.4337,3.5366,3.6216,3.6476,3.6538,3.6907,3.7234,3.739,3.738,3.7226,3.7017,3.6808,3.6612,3.6601,3.6772,3.6772,3.6968,3.7187,3.7419,3.7495,3.7539,3.7381,3.6779,3.5228,3.4454,3.4144,3.4306,3.4384,3.474,3.4914,3.4538,3.4166,3.4041,3.4014,3.4592,3.5059,3.578,3.6276,3.6601,3.6872,3.6886,3.6733,3.6668,3.6772,3.6601,3.5913,3.5653,3.6005,3.6005,3.5891,3.5938,3.6106,3.6241,3.6232,3.5974,3.5702,3.5933,3.6244,3.6391,3.6668,3.7007,3.7341,3.7495,3.7687,3.7863,3.8014,3.8014,3.8379,2.4314,2.5538,2.572,2.6452,2.751,2.8007,2.8347,2.8591,2.889,2.8778,2.8786,2.9389,2.9391,2.9492,2.9605,2.9767,2.9663,2.9495,2.9326,2.9378,2.9728,2.9934,3.0049,3.0228,3.033,3.0267,3.0495,3.0647,3.066,3.0698,3.0584,3.0406,3.019,2.9998,2.9818,2.9856,2.9934,3.0049,3.019,3.0482,3.0973,3.1136,3.1437,3.2213,3.2758,3.3628,3.452,3.5169,3.5929,3.7381,3.7261,3.7469,3.7757,3.7929,3.7929,3.7929,3.7701,3.7534,3.7341,3.707,3.7007,3.7317,3.7007,3.6968,3.7226,3.738,3.7495,3.7443,3.7236,3.6569,3.5425,3.4576,3.4475,3.4766,3.5058,3.5213,3.5223,3.4206,3.3818,3.3774,3.4151,3.4671,3.5022,3.5569,3.6001,3.6423,3.6665,3.6788,3.6646,3.6521,3.6494,3.6429,3.5764,3.5645,3.5997,3.6822,3.6736,3.6564,3.6637,3.6618,3.6615,3.6503,3.63,3.6198,3.6401,3.6545,3.6847,3.7264,3.7572,3.7687,3.7976,3.8277,3.8427,3.8464,3.9015,2.5121,2.6153,2.618,2.6804,2.774,2.8087,2.81,2.7951,2.835,2.8609,2.8825,2.9001,2.9543,2.9897,2.9858,2.9792,2.9818,2.9779,2.9882,2.9921,3.0152,3.0356,3.047,3.0584,3.0685,3.0798,3.0798,3.0736,3.0736,3.0698,3.0622,3.0406,3.0228,3.0011,2.9934,2.9934,3.0075,3.0228,3.0457,3.0874,3.1347,3.1582,3.2018,3.2917,3.3465,3.4254,3.5256,3.613,3.6873,3.7299,3.7587,3.7852,3.8075,3.8142,3.8142,3.8104,3.8005,3.7853,3.7777,3.7586,3.738,3.7303,3.7187,3.7187,3.7341,3.7404,3.7467,3.7433,3.7119,3.6519,3.6199,3.5146,3.4911,3.5236,3.5374,3.5322,3.5696,3.5311,3.4561,3.4546,3.4821,3.4927,3.5133,3.5395,3.5773,3.5976,3.6056,3.607,3.5889,3.5839,3.5803,3.5707,3.5554,3.5676,3.5942,3.6974,3.7515,3.7205,3.7165,3.7165,3.7148,3.712,3.7028,3.6858,3.6654,3.6645,3.7024,3.7501,3.7863,3.8104,3.8427,3.8745,3.8797,3.8944,3.9676,2.5466,2.6446,2.6458,2.7138,2.806,2.8299,2.8249,2.8062,2.8332,2.8437,2.8587,2.8899,2.9352,2.977,2.9884,2.9869,2.9972,3.0049,3.0152,3.0267,3.0457,3.0622,3.0736,3.0811,3.0911,3.0949,3.0874,3.0849,3.0849,3.0736,3.066,3.0533,3.0343,3.019,3.0152,3.019,3.0381,3.0533,3.0798,3.1174,3.1716,3.19,3.2613,3.3371,3.4063,3.4768,3.5561,3.6224,3.6886,3.7339,3.7636,3.7904,3.8138,3.8277,3.8366,3.8329,3.8254,3.8194,3.8156,3.7953,3.7749,3.7763,3.7495,3.738,3.738,3.7366,3.7305,3.7134,3.716,3.6562,3.6051,3.5698,3.5725,3.5744,3.5949,3.6188,3.6221,3.6047,3.5827,3.5482,3.5126,3.5062,3.5077,3.533,3.5563,3.5633,3.5553,3.537,3.52,3.519,3.5228,3.5675,3.5769,3.6288,3.6534,3.7226,3.7938,3.7725,3.7649,3.7649,3.7563,3.7468,3.7472,3.7362,3.7177,3.7011,3.7239,3.7749,3.8142,3.8516,3.8723,3.8943,3.9141,3.9488,4.0129,2.5718,2.6786,2.6836,2.7563,2.8573,2.8657,2.8517,2.8334,2.8462,2.8487,2.8356,2.8808,2.9286,2.9679,2.9885,3.0011,3.0113,3.0152,3.0343,3.0495,3.0647,3.0773,3.0811,3.0911,3.0986,3.0986,3.0986,3.1024,3.0986,3.0811,3.0736,3.0685,3.0533,3.0406,3.0368,3.0482,3.071,3.0898,3.1136,3.141,3.1927,3.2473,3.3115,3.3919,3.4556,3.5294,3.6147,3.6565,3.7059,3.7481,3.7719,3.7871,3.819,3.8404,3.8478,3.8516,3.8478,3.8441,3.8329,3.8089,3.7915,3.7991,3.7649,3.7534,3.7495,3.7337,3.7094,3.6817,3.6816,3.6907,3.6527,3.6458,3.6378,3.6362,3.6796,3.7244,3.6812,3.6664,3.6824,3.6336,3.5593,3.5356,3.5493,3.5513,3.5836,3.5209,3.5116,3.4966,3.4794,3.4638,3.4845,3.5654,3.6245,3.6976,3.7361,3.7585,3.8017,3.7991,3.8028,3.8104,3.7907,3.7763,3.7765,3.7872,3.7744,3.762,3.7834,3.7976,3.8352,3.8686,3.8943,3.9141,3.9265,3.9516,3.9971,2.6238,2.7409,2.7557,2.8299,2.9227,2.9263,2.8835,2.8224,2.837,2.8622,2.8749,2.8673,2.9271,3.0124,3.0291,3.0228,3.0228,3.0432,3.0622,3.0723,3.0836,3.0911,3.0949,3.0986,3.1024,3.1024,3.1024,3.1136,3.1123,3.0874,3.0811,3.0874,3.0672,3.0406,3.052,3.0748,3.0949,3.1061,3.1349,3.1746,3.2304,3.3247,3.402,3.4766,3.5437,3.6164,3.6824,3.7139,3.751,3.7782,3.8032,3.8153,3.824,3.8366,3.8478,3.8441,3.8366,3.824,3.824,3.8104,3.7953,3.8005,3.7701,3.761,3.7534,3.7548,3.7453,3.7744,3.7442,3.7261,3.7149,3.6983,3.6809,3.6779,3.6977,3.7106,3.6902,3.7158,3.7323,3.7275,3.657,3.6188,3.6075,3.6038,3.5986,3.5273,3.4671,3.4469,3.4367,3.4199,3.479,3.5705,3.6396,3.7128,3.7777,3.8082,3.8123,3.8165,3.8329,3.8478,3.8376,3.8237,3.8273,3.8315,3.8202,3.8066,3.8066,3.824,3.8612,3.8907,3.9141,3.9265,3.9388,3.9627,4.0044,2.6891,2.7668,2.7767,2.8587,2.973,2.9689,2.9126,2.8431,2.8424,2.8641,2.8749,2.8605,2.9157,3.0037,3.019,3.0343,3.0419,3.0622,3.0849,3.0949,3.1024,3.1024,3.0986,3.1024,3.1024,3.1024,3.1024,3.1136,3.1161,3.1161,3.1099,3.1086,3.1011,3.0861,3.0748,3.1011,3.1161,3.1415,3.1875,3.2448,3.3005,3.3827,3.4734,3.5517,3.5901,3.6517,3.7133,3.751,3.7701,3.7929,3.8179,3.8277,3.8277,3.8366,3.8441,3.8156,3.8329,3.8366,3.8366,3.8254,3.8179,3.8028,3.7877,3.7663,3.7495,3.7419,3.7394,3.7366,3.7534,3.7609,3.7663,3.7537,3.6952,3.6814,3.7102,3.6843,3.6929,3.7494,3.7701,3.7663,3.7515,3.6935,3.6335,3.6029,3.5586,3.4578,3.4026,3.3816,3.3769,3.3818,3.4689,3.594,3.6568,3.7184,3.7835,3.8339,3.8279,3.8315,3.8538,3.8686,3.8848,3.8833,3.8738,3.8627,3.8478,3.8366,3.8292,3.8427,3.8745,3.9017,3.9286,3.9529,3.9751,4.0199,4.0694,2.7242,2.7938,2.8112,2.8938,3.0139,3.0088,2.9453,2.8633,2.8749,2.8785,2.8828,2.8961,2.9339,2.9731,3.0049,3.0228,3.0508,3.0647,3.0874,3.1024,3.1099,3.1024,3.1024,3.1024,3.1024,3.1024,3.1099,3.1161,3.1286,3.1323,3.136,3.1347,3.1286,3.1211,3.1123,3.1198,3.131,3.1548,3.2265,3.2806,3.3244,3.4163,3.4979,3.561,3.6081,3.6539,3.7127,3.7419,3.7625,3.7929,3.8217,3.8315,3.824,3.8329,3.8277,3.8142,3.824,3.8366,3.8404,3.8366,3.8366,3.8217,3.7953,3.7663,3.7457,3.7303,3.7264,3.7187,3.7519,3.7606,3.7634,3.7895,3.7292,3.7046,3.7191,3.6815,3.6671,3.7442,3.7901,3.7815,3.7567,3.7114,3.6527,3.6008,3.5139,3.3959,3.3417,3.3206,3.3459,3.3795,3.4879,3.6218,3.685,3.7425,3.8004,3.8435,3.8412,3.8501,3.8686,3.887,3.8995,3.9031,3.8958,3.8848,3.8701,3.8664,3.8627,3.876,3.8892,3.9177,3.9469,3.9892,4.0235,4.0715,4.1235,2.7072,2.8413,2.8884,2.9592,3.0368,3.0571,2.9977,2.898,2.9132,2.9097,2.9073,2.9627,2.9808,2.9882,2.9972,3.0126,3.0203,3.0546,3.0736,3.0849,3.0911,3.0986,3.1024,3.1024,3.1024,3.1061,3.1161,3.1235,3.131,3.1471,3.1522,3.1559,3.136,3.131,3.1288,3.1341,3.167,3.2003,3.2648,3.2887,3.3374,3.4186,3.5086,3.5278,3.6016,3.6808,3.7031,3.7211,3.7372,3.7729,3.8037,3.8165,3.8127,3.8165,3.8127,3.8089,3.8202,3.8315,3.8315,3.8366,3.8366,3.8179,3.7877,3.7663,3.7534,3.7187,3.7095,3.7187,3.7471,3.7677,3.7815,3.7913,3.7519,3.7192,3.7184,3.7229,3.7185,3.768,3.8017,3.7938,3.7742,3.75,3.716,3.6681,3.5366,3.4193,3.3782,3.357,3.4098,3.4513,3.5441,3.6485,3.7119,3.7696,3.8267,3.8464,3.8427,3.8538,3.876,3.8943,3.9104,3.9104,3.9156,3.9031,3.887,3.8907,3.8943,3.8943,3.9017,3.9286,3.9652,4.0097,4.0843,4.1513,4.1911,2.7561,2.8607,2.9182,2.9856,3.0584,3.0647,3.0125,2.9285,2.9287,2.9216,2.9044,2.973,3.0037,3.0011,2.9895,3.0049,3.0254,3.0419,3.066,3.0849,3.0986,3.0986,3.1024,3.1024,3.1061,3.1161,3.1272,3.131,3.131,3.1522,3.1471,3.1434,3.131,3.1235,3.1264,3.1629,3.2173,3.2739,3.3257,3.3618,3.3883,3.4723,3.5477,3.5664,3.6012,3.6378,3.6389,3.6863,3.6981,3.7177,3.7577,3.7782,3.7915,3.7991,3.7991,3.7991,3.8179,3.8277,3.8188,3.8277,3.8277,3.8179,3.7839,3.761,3.7572,3.7162,3.6993,3.707,3.7356,3.7586,3.7701,3.7962,3.7875,3.7337,3.7192,3.7411,3.7571,3.7936,3.8208,3.8125,3.8235,3.8237,3.7893,3.7514,3.5964,3.4531,3.4217,3.4066,3.4589,3.5166,3.6,3.6695,3.7316,3.7813,3.8369,3.8435,3.8427,3.8612,3.8833,3.9031,3.9192,3.9265,3.9265,3.9141,3.9053,3.9068,3.9068,3.9017,3.9162,3.9481,3.9892,4.0323,4.1217,4.2219,4.2578,2.7893,2.8728,2.9329,3.0056,3.0709,3.0579,3.0079,2.9366,2.9078,2.8989,2.896,2.9693,3.0049,3.0011,2.9972,2.9985,3.0152,3.0305,3.0533,3.0685,3.0836,3.0949,3.1024,3.1099,3.1161,3.131,3.1434,3.1471,3.131,3.1522,3.141,3.1286,3.1198,3.1174,3.1418,3.198,3.2716,3.3392,3.39,3.4246,3.4366,3.4955,3.5481,3.5574,3.5733,3.5672,3.5712,3.6122,3.6483,3.675,3.7149,3.7606,3.7739,3.7815,3.7839,3.7953,3.8104,3.8366,3.8277,3.8277,3.8277,3.8254,3.7953,3.7725,3.7548,3.724,3.7187,3.7226,3.7394,3.7548,3.7701,3.7962,3.7889,3.7374,3.773,3.7883,3.7645,3.7799,3.8113,3.8311,3.8274,3.7878,3.7416,3.6927,3.6278,3.5136,3.5137,3.4899,3.4967,3.559,3.6362,3.698,3.7513,3.7982,3.8384,3.8479,3.8612,3.8686,3.8907,3.9104,3.9265,3.9352,3.9388,3.9301,3.9228,3.9192,3.9177,3.9177,3.943,3.9717,4.0247,4.0916,4.179,4.2756,4.313,2.7997,2.8741,2.9486,3.0227,3.0805,3.0361,2.9823,2.917,2.8778,2.8607,2.8828,2.9681,3.0049,2.9946,3.0011,2.9972,2.9934,3.0049,3.0267,3.0495,3.0685,3.0836,3.1024,3.1161,3.1272,3.1397,3.1596,3.1633,3.1463,3.1535,3.1386,3.1264,3.129,3.1442,3.1638,3.242,3.3111,3.3678,3.4139,3.4406,3.4553,3.4832,3.5073,3.5115,3.4942,3.4871,3.5041,3.551,3.5885,3.6129,3.7053,3.7505,3.7534,3.7877,3.7953,3.7891,3.8217,3.8352,3.8225,3.8404,3.8478,3.8404,3.8081,3.7853,3.7815,3.7663,3.7419,3.738,3.7625,3.7777,3.7915,3.8023,3.7765,3.7744,3.8086,3.8204,3.7937,3.7908,3.8318,3.8618,3.7659,3.6807,3.6423,3.6104,3.6023,3.5735,3.5912,3.5904,3.5784,3.6222,3.7013,3.7461,3.7988,3.8143,3.8509,3.8679,3.8797,3.887,3.8943,3.9141,3.9265,3.9388,3.9388,3.9388,3.9352,3.9301,3.9337,3.9373,3.9748,4.0179,4.0964,4.1689,4.2531,4.3113,4.3352,2.7613,2.8354,2.9015,2.9694,3.0309,3.0192,2.9552,2.883,2.879,2.8844,2.9063,2.9869,3.0254,3.019,2.9972,2.9895,2.9869,2.9818,3.0037,3.0406,3.0609,3.0798,3.1024,3.1211,3.1397,3.1559,3.1757,3.2119,3.2332,3.1883,3.1803,3.1721,3.1633,3.2137,3.2885,3.3612,3.4159,3.4884,3.5157,3.5076,3.4806,3.4897,3.4949,3.4895,3.454,3.4339,3.4419,3.4971,3.5281,3.5623,3.6617,3.7173,3.7303,3.7649,3.7801,3.7801,3.8089,3.8389,3.8501,3.8686,3.8612,3.8441,3.8194,3.7967,3.7891,3.7572,3.7457,3.7457,3.7701,3.7777,3.7725,3.8014,3.7991,3.7991,3.8188,3.83,3.8237,3.8377,3.8656,3.8883,3.84,3.8077,3.7721,3.6958,3.6637,3.6679,3.6829,3.6967,3.6934,3.7252,3.7836,3.8192,3.8539,3.8546,3.8686,3.8804,3.8943,3.9031,3.9068,3.9141,3.9265,3.9424,3.9424,3.9424,3.9424,3.9388,3.9409,3.955,4.0147,4.0745,4.1267,4.19,4.2629,4.3077,4.3304,2.7812,2.8459,2.9136,2.9545,2.98,2.98,2.9226,2.8491,2.8779,2.9057,2.9346,3.0121,3.0444,3.033,3.0241,3.0049,3.0011,3.0011,3.0164,3.0495,3.0622,3.0874,3.1099,3.1323,3.1522,3.1706,3.193,3.2216,3.2395,3.1941,3.1782,3.1865,3.2095,3.28,3.3625,3.4306,3.4901,3.554,3.5789,3.5548,3.5318,3.5208,3.5044,3.4764,3.4352,3.3967,3.4153,3.443,3.4769,3.5276,3.6119,3.6861,3.7187,3.7495,3.7725,3.7839,3.8014,3.8389,3.8671,3.8686,3.8627,3.8627,3.8306,3.8118,3.8005,3.7839,3.7725,3.7725,3.7725,3.7763,3.7839,3.8165,3.8165,3.8188,3.8225,3.83,3.8368,3.8509,3.8458,3.8728,3.8638,3.8616,3.8713,3.8252,3.7565,3.7666,3.7817,3.7868,3.7933,3.824,3.843,3.8662,3.8877,3.8826,3.8863,3.898,3.9104,3.9192,3.9265,3.9322,3.9481,3.964,3.9568,3.9496,3.946,3.9424,3.9445,3.9691,4.0257,4.0704,4.1134,4.1821,4.2679,4.3107,4.3427,2.8429,2.9035,2.9751,2.9706,2.9301,2.9314,2.8881,2.8191,2.8773,2.9194,2.9511,3.0325,3.0571,3.0495,3.0584,3.0546,3.033,3.033,3.0495,3.0622,3.0698,3.0949,3.1161,3.141,3.1596,3.1867,3.2077,3.2277,3.225,3.2299,3.2129,3.1884,3.2209,3.322,3.413,3.4792,3.545,3.6097,3.6151,3.5924,3.5696,3.5305,3.5035,3.4606,3.4033,3.3741,3.3887,3.4177,3.4584,3.5327,3.6398,3.6958,3.7443,3.7863,3.7967,3.8043,3.8104,3.8389,3.8649,3.859,3.8781,3.8863,3.8619,3.8418,3.8254,3.8142,3.8028,3.7991,3.8028,3.8066,3.8179,3.8179,3.8202,3.8202,3.8202,3.8285,3.8339,3.8274,3.8113,3.8015,3.77,3.7693,3.8032,3.7879,3.7951,3.8172,3.8252,3.8324,3.8419,3.8712,3.8888,3.8911,3.9017,3.9053,3.9104,3.925,3.9373,3.9481,3.9589,3.9661,3.9768,3.9818,3.9747,3.9676,3.9532,3.9481,3.9517,3.9805,4.023,4.0728,4.145,4.2175,4.3157,4.3434,4.3777,2.7775,2.7983,2.8599,2.8778,2.8712,2.8963,2.8863,2.8607,2.9121,2.942,2.9574,3.0339,3.0544,3.0609,3.066,3.0571,3.0495,3.0406,3.0533,3.0622,3.0773,3.0874,3.1099,3.1323,3.1522,3.1743,3.204,3.2477,3.3024,3.3056,3.2645,3.2355,3.2467,3.3536,3.451,3.5166,3.5943,3.6515,3.6494,3.6258,3.5855,3.5345,3.4996,3.446,3.3807,3.3701,3.4073,3.4166,3.4644,3.5583,3.6383,3.69,3.7134,3.7649,3.7967,3.8142,3.8202,3.83,3.8501,3.8553,3.8722,3.9076,3.8958,3.8642,3.8464,3.8396,3.8321,3.8142,3.8142,3.8179,3.8142,3.8142,3.8179,3.8165,3.8165,3.8225,3.8256,3.8206,3.8062,3.7967,3.7631,3.7528,3.7826,3.7817,3.7945,3.8345,3.8605,3.8649,3.8802,3.9066,3.922,3.925,3.9265,3.9286,3.943,3.9589,3.9696,3.9818,3.9874,3.9945,3.996,3.9996,3.9925,3.9854,3.9711,3.9625,3.9625,4.0055,4.0586,4.1513,4.2269,4.2906,4.3492,4.3792,4.4014,2.762,2.7902,2.8229,2.8634,2.9056,2.9243,2.9321,2.9354,2.9266,2.9268,2.9535,2.9848,3.0216,3.0533,3.0485,3.0551,3.0823,3.0823,3.0836,3.0798,3.0913,3.1024,3.1161,3.1235,3.1434,3.1669,3.2027,3.2509,3.3178,3.3387,3.3101,3.2709,3.2739,3.3681,3.4617,3.5213,3.593,3.6595,3.6875,3.6536,3.6079,3.5649,3.5262,3.4766,3.4137,3.4205,3.45,3.454,3.4914,3.5695,3.6336,3.6836,3.7148,3.7687,3.8028,3.8165,3.8202,3.824,3.8404,3.8478,3.8802,3.906,3.904,3.8951,3.878,3.8698,3.8356,3.8028,3.8104,3.8179,3.8156,3.8118,3.8104,3.8104,3.8127,3.8165,3.8165,3.8179,3.815,3.815,3.8032,3.7852,3.7848,3.7815,3.7929,3.8217,3.8553,3.8745,3.8906,3.9169,3.9343,3.943,3.9517,3.9553,3.9747,3.9839,3.9945,4.0051,4.0172,4.0207,4.0207,4.0137,4.0101,3.9996,3.9905,3.9884,3.9879,4.0501,4.1146,4.2041,4.2853,4.3394,4.3828,4.4089,4.4304,2.779,2.8268,2.832,2.8886,2.9907,2.9749,2.9862,3.0239,2.9277,2.9048,2.9431,2.9241,2.9699,3.0312,3.0268,3.0629,3.102,3.1279,3.1204,3.1101,3.1395,3.1431,3.1299,3.131,3.1384,3.1669,3.2013,3.2463,3.2816,3.3163,3.3325,3.3065,3.2846,3.352,3.4734,3.5027,3.5644,3.6376,3.6898,3.6954,3.6705,3.648,3.6255,3.5811,3.5362,3.5065,3.5101,3.5142,3.5125,3.5678,3.6296,3.6861,3.7419,3.7825,3.8089,3.8202,3.8202,3.8202,3.8277,3.8366,3.8558,3.8751,3.8745,3.8987,3.9052,3.875,3.835,3.8292,3.8373,3.8185,3.8142,3.8254,3.8292,3.8281,3.8315,3.835,3.8361,3.8279,3.8183,3.8088,3.7763,3.7649,3.7725,3.7701,3.7839,3.8127,3.8404,3.8716,3.8958,3.9213,3.9322,3.9502,3.9625,3.9696,3.9889,4.0016,4.0191,4.0331,4.0401,4.0401,4.0366,4.0312,4.0242,4.0137,4.0081,4.0152,4.0304,4.1005,4.1702,4.2469,4.3201,4.376,4.4142,4.4327,4.4381,2.7501,2.7577,2.7577,2.8192,2.9178,2.922,2.9484,2.9912,2.9508,2.9356,2.9471,2.9576,2.9868,3.0303,3.0144,3.0482,3.122,3.1625,3.1615,3.1563,3.1766,3.1646,3.1413,3.1347,3.1347,3.1532,3.1886,3.2503,3.3043,3.3382,3.367,3.3802,3.3392,3.3654,3.4841,3.4985,3.534,3.6165,3.6797,3.7204,3.7173,3.6543,3.6032,3.5714,3.5322,3.4958,3.4947,3.4905,3.501,3.5335,3.6221,3.6975,3.7739,3.8014,3.8165,3.8202,3.824,3.8277,3.8277,3.8358,3.8564,3.8889,3.9046,3.9192,3.9126,3.8758,3.8573,3.8588,3.8504,3.8272,3.8179,3.8344,3.8485,3.8481,3.8504,3.8534,3.8563,3.8347,3.8183,3.7867,3.75,3.7495,3.7534,3.7687,3.7825,3.8052,3.8329,3.859,3.8848,3.9068,3.9119,3.9301,3.9589,3.9732,3.9996,4.0137,4.0296,4.0401,4.047,4.047,4.0489,4.0436,4.0366,4.0312,4.0257,4.0451,4.0893,4.1616,4.2352,4.2984,4.3574,4.4127,4.4243,4.4396,4.4404,2.7436,2.7341,2.754,2.7993,2.8598,2.8993,2.9256,2.9417,2.9419,2.9205,2.8913,2.9057,2.9542,3.0145,2.9961,3.0404,3.1193,3.1702,3.1585,3.1596,3.1838,3.1795,3.1601,3.1434,3.1434,3.1569,3.2128,3.2717,3.329,3.3833,3.4115,3.4133,3.3665,3.3789,3.4764,3.4831,3.5055,3.5981,3.6746,3.7206,3.7458,3.7049,3.6741,3.6366,3.5991,3.5489,3.5203,3.5173,3.506,3.5482,3.6281,3.7039,3.7687,3.8104,3.8329,3.8404,3.8427,3.8449,3.8412,3.8448,3.8564,3.8846,3.895,3.8898,3.9302,3.8948,3.8448,3.842,3.8368,3.8165,3.8437,3.8646,3.855,3.851,3.8719,3.8899,3.8539,3.8143,3.7904,3.7571,3.738,3.738,3.7457,3.7572,3.7725,3.7763,3.8081,3.8246,3.853,3.8833,3.8922,3.9083,3.9358,3.9803,4.0137,4.0242,4.0347,4.0436,4.0516,4.0489,4.0489,4.0489,4.047,4.0508,4.0673,4.103,4.1551,4.2257,4.2748,4.3319,4.3903,4.4488,4.4496,4.4542,4.4665,2.7481,2.7325,2.7752,2.8023,2.8187,2.8864,2.9073,2.8983,2.9177,2.8868,2.8287,2.8248,2.9043,2.9617,2.9709,3.0385,3.1098,3.1763,3.1684,3.1575,3.1941,3.1941,3.1813,3.1646,3.1669,3.184,3.23,3.2806,3.3373,3.3888,3.419,3.4136,3.4112,3.4065,3.4406,3.441,3.4446,3.5508,3.6325,3.6985,3.7399,3.7782,3.7577,3.7368,3.7019,3.6564,3.6113,3.5705,3.5348,3.5784,3.6473,3.7112,3.7649,3.8142,3.8366,3.8516,3.8612,3.8671,3.8708,3.8627,3.8604,3.8619,3.8553,3.8766,3.9184,3.9059,3.8595,3.8381,3.8315,3.8373,3.8631,3.8808,3.8698,3.8745,3.9037,3.9155,3.8644,3.8126,3.7749,3.7427,3.738,3.738,3.7495,3.761,3.7691,3.7706,3.7768,3.7859,3.8086,3.8418,3.8649,3.8848,3.9104,3.9538,4.0152,4.0222,4.0257,4.0565,4.0631,4.0562,4.0489,4.0489,4.0597,4.0843,4.1074,4.152,4.2207,4.2915,4.3368,4.3806,4.426,4.4776,4.4739,4.4816,4.5109,2.7669,2.6863,2.7283,2.7627,2.7958,2.8378,2.8556,2.8612,2.9052,2.8948,2.8417,2.8377,2.8908,2.9751,2.9472,3.0046,3.1267,3.1878,3.1862,3.1713,3.226,3.2219,3.2048,3.1927,3.1963,3.2096,3.2332,3.2782,3.3342,3.3838,3.42,3.4418,3.3942,3.3748,3.3665,3.3689,3.3859,3.478,3.5829,3.6607,3.6747,3.7187,3.7782,3.7437,3.6747,3.6564,3.6302,3.5753,3.5751,3.6075,3.6729,3.7256,3.7725,3.8142,3.8478,3.8627,3.876,3.887,3.887,3.8797,3.876,3.876,3.8775,3.8863,3.9121,3.9143,3.8811,3.8738,3.8686,3.8686,3.8878,3.9077,3.9055,3.9323,3.9604,3.9416,3.9068,3.8514,3.8001,3.7766,3.761,3.7763,3.7976,3.8101,3.826,3.8231,3.813,3.8249,3.8361,3.8405,3.8427,3.8612,3.8797,3.9491,4.0141,4.0046,4.0092,4.0481,4.0775,4.0773,4.067,4.052,4.0659,4.1263,4.1683,4.2135,4.2818,4.3561,4.409,4.4499,4.4806,4.5108,4.5017,4.5219,4.5615]}]]